<?xml version="1.0" encoding="UTF-8" standalone="no" ?>
<gpx xmlns="http://www.topografix.com/GPX/1/1" xmlns:xsi="http://www.w3.org/2001/XMLSchema-instance" xsi:schemaLocation="http://www.topografix.com/GPX/1/1 http://www.topografix.com/GPX/1/1/gpx.xsd" version="1.1" creator="VisuGPX - https://www.visugpx.com">
  <metadata>
    <name>Laboutarie</name>
    <desc><![CDATA[Rando Laboutarie Sieurac]]></desc>
  </metadata>
  <trk>
    <name><![CDATA[Trace 1759664433000]]></name>
    <extensions>
      <line xmlns="http://www.topografix.com/GPX/gpx_style/0/2">
        <color>0000FF</color>
        <width>4</width>
      </line>
    </extensions>
    <trkseg>
      <trkpt lat="43.78308" lon="2.11962">
        <ele>226</ele>
        <time>2025-10-05T11:40:33.000Z</time>
      </trkpt>
      <trkpt lat="43.78309" lon="2.11955">
        <ele>226</ele>
        <time>2025-10-05T11:40:38.000Z</time>
      </trkpt>
      <trkpt lat="43.7831" lon="2.11948">
        <ele>224</ele>
        <time>2025-10-05T11:40:43.000Z</time>
      </trkpt>
      <trkpt lat="43.78309" lon="2.11942">
        <ele>223</ele>
        <time>2025-10-05T11:40:48.000Z</time>
      </trkpt>
      <trkpt lat="43.78307" lon="2.11935">
        <ele>223</ele>
        <time>2025-10-05T11:40:53.000Z</time>
      </trkpt>
      <trkpt lat="43.78305" lon="2.11927">
        <ele>223</ele>
        <time>2025-10-05T11:40:58.000Z</time>
      </trkpt>
      <trkpt lat="43.78303" lon="2.11921">
        <ele>221</ele>
        <time>2025-10-05T11:41:03.000Z</time>
      </trkpt>
      <trkpt lat="43.78301" lon="2.11914">
        <ele>221</ele>
        <time>2025-10-05T11:41:08.000Z</time>
      </trkpt>
      <trkpt lat="43.78299" lon="2.11909">
        <ele>220</ele>
        <time>2025-10-05T11:41:13.000Z</time>
      </trkpt>
      <trkpt lat="43.78298" lon="2.11901">
        <ele>218</ele>
        <time>2025-10-05T11:41:18.000Z</time>
      </trkpt>
      <trkpt lat="43.78296" lon="2.11893">
        <ele>218</ele>
        <time>2025-10-05T11:41:23.000Z</time>
      </trkpt>
      <trkpt lat="43.78294" lon="2.11886">
        <ele>216</ele>
        <time>2025-10-05T11:41:28.000Z</time>
      </trkpt>
      <trkpt lat="43.78293" lon="2.11879">
        <ele>217</ele>
        <time>2025-10-05T11:41:33.000Z</time>
      </trkpt>
      <trkpt lat="43.78291" lon="2.11872">
        <ele>217</ele>
        <time>2025-10-05T11:41:38.000Z</time>
      </trkpt>
      <trkpt lat="43.78289" lon="2.11863">
        <ele>217</ele>
        <time>2025-10-05T11:41:43.000Z</time>
      </trkpt>
      <trkpt lat="43.78286" lon="2.11855">
        <ele>217</ele>
        <time>2025-10-05T11:41:48.000Z</time>
      </trkpt>
      <trkpt lat="43.78285" lon="2.11848">
        <ele>216</ele>
        <time>2025-10-05T11:41:53.000Z</time>
      </trkpt>
      <trkpt lat="43.78283" lon="2.11841">
        <ele>216</ele>
        <time>2025-10-05T11:41:58.000Z</time>
      </trkpt>
      <trkpt lat="43.78285" lon="2.11833">
        <ele>216</ele>
        <time>2025-10-05T11:42:03.000Z</time>
      </trkpt>
      <trkpt lat="43.78286" lon="2.11826">
        <ele>216</ele>
        <time>2025-10-05T11:42:08.000Z</time>
      </trkpt>
      <trkpt lat="43.78285" lon="2.11818">
        <ele>215</ele>
        <time>2025-10-05T11:42:13.000Z</time>
      </trkpt>
      <trkpt lat="43.78284" lon="2.11811">
        <ele>213</ele>
        <time>2025-10-05T11:42:18.000Z</time>
      </trkpt>
      <trkpt lat="43.78282" lon="2.11802">
        <ele>213</ele>
        <time>2025-10-05T11:42:23.000Z</time>
      </trkpt>
      <trkpt lat="43.7828" lon="2.11797">
        <ele>212</ele>
        <time>2025-10-05T11:42:28.000Z</time>
      </trkpt>
      <trkpt lat="43.78278" lon="2.1179">
        <ele>211</ele>
        <time>2025-10-05T11:42:33.000Z</time>
      </trkpt>
      <trkpt lat="43.78276" lon="2.11783">
        <ele>210</ele>
        <time>2025-10-05T11:42:38.000Z</time>
      </trkpt>
      <trkpt lat="43.78273" lon="2.11774">
        <ele>213</ele>
        <time>2025-10-05T11:42:43.000Z</time>
      </trkpt>
      <trkpt lat="43.78271" lon="2.11764">
        <ele>213</ele>
        <time>2025-10-05T11:42:48.000Z</time>
      </trkpt>
      <trkpt lat="43.7827" lon="2.11754">
        <ele>213</ele>
        <time>2025-10-05T11:42:53.000Z</time>
      </trkpt>
      <trkpt lat="43.78268" lon="2.11745">
        <ele>215</ele>
        <time>2025-10-05T11:42:58.000Z</time>
      </trkpt>
      <trkpt lat="43.78266" lon="2.11739">
        <ele>216</ele>
        <time>2025-10-05T11:43:03.000Z</time>
      </trkpt>
      <trkpt lat="43.78266" lon="2.11738">
        <ele>217</ele>
        <time>2025-10-05T11:43:08.000Z</time>
      </trkpt>
      <trkpt lat="43.78264" lon="2.1173">
        <ele>218</ele>
        <time>2025-10-05T11:43:13.000Z</time>
      </trkpt>
      <trkpt lat="43.78263" lon="2.11724">
        <ele>218</ele>
        <time>2025-10-05T11:43:18.000Z</time>
      </trkpt>
      <trkpt lat="43.78263" lon="2.11724">
        <ele>218</ele>
        <time>2025-10-05T11:43:23.000Z</time>
      </trkpt>
      <trkpt lat="43.78265" lon="2.11723">
        <ele>218</ele>
        <time>2025-10-05T11:43:28.000Z</time>
      </trkpt>
      <trkpt lat="43.78266" lon="2.1172">
        <ele>217</ele>
        <time>2025-10-05T11:43:33.000Z</time>
      </trkpt>
      <trkpt lat="43.78268" lon="2.11716">
        <ele>218</ele>
        <time>2025-10-05T11:43:38.000Z</time>
      </trkpt>
      <trkpt lat="43.78268" lon="2.11716">
        <ele>218</ele>
        <time>2025-10-05T11:43:43.000Z</time>
      </trkpt>
      <trkpt lat="43.78269" lon="2.11714">
        <ele>219</ele>
        <time>2025-10-05T11:43:48.000Z</time>
      </trkpt>
      <trkpt lat="43.78272" lon="2.11708">
        <ele>219</ele>
        <time>2025-10-05T11:43:53.000Z</time>
      </trkpt>
      <trkpt lat="43.78273" lon="2.11699">
        <ele>218</ele>
        <time>2025-10-05T11:43:58.000Z</time>
      </trkpt>
      <trkpt lat="43.78275" lon="2.11691">
        <ele>216</ele>
        <time>2025-10-05T11:44:03.000Z</time>
      </trkpt>
      <trkpt lat="43.78277" lon="2.11683">
        <ele>216</ele>
        <time>2025-10-05T11:44:08.000Z</time>
      </trkpt>
      <trkpt lat="43.78279" lon="2.11673">
        <ele>215</ele>
        <time>2025-10-05T11:44:13.000Z</time>
      </trkpt>
      <trkpt lat="43.7828" lon="2.11667">
        <ele>215</ele>
        <time>2025-10-05T11:44:18.000Z</time>
      </trkpt>
      <trkpt lat="43.78282" lon="2.1166">
        <ele>214</ele>
        <time>2025-10-05T11:44:23.000Z</time>
      </trkpt>
      <trkpt lat="43.78285" lon="2.11653">
        <ele>215</ele>
        <time>2025-10-05T11:44:28.000Z</time>
      </trkpt>
      <trkpt lat="43.78287" lon="2.11648">
        <ele>215</ele>
        <time>2025-10-05T11:44:33.000Z</time>
      </trkpt>
      <trkpt lat="43.78289" lon="2.11641">
        <ele>214</ele>
        <time>2025-10-05T11:44:38.000Z</time>
      </trkpt>
      <trkpt lat="43.78291" lon="2.11635">
        <ele>212</ele>
        <time>2025-10-05T11:44:43.000Z</time>
      </trkpt>
      <trkpt lat="43.78293" lon="2.11632">
        <ele>211</ele>
        <time>2025-10-05T11:44:48.000Z</time>
      </trkpt>
      <trkpt lat="43.78294" lon="2.11631">
        <ele>210</ele>
        <time>2025-10-05T11:44:53.000Z</time>
      </trkpt>
      <trkpt lat="43.78295" lon="2.11629">
        <ele>209</ele>
        <time>2025-10-05T11:44:58.000Z</time>
      </trkpt>
      <trkpt lat="43.78297" lon="2.11625">
        <ele>208</ele>
        <time>2025-10-05T11:45:03.000Z</time>
      </trkpt>
      <trkpt lat="43.78298" lon="2.11619">
        <ele>207</ele>
        <time>2025-10-05T11:45:08.000Z</time>
      </trkpt>
      <trkpt lat="43.78299" lon="2.11617">
        <ele>208</ele>
        <time>2025-10-05T11:45:13.000Z</time>
      </trkpt>
      <trkpt lat="43.78299" lon="2.11616">
        <ele>208</ele>
        <time>2025-10-05T11:45:18.000Z</time>
      </trkpt>
      <trkpt lat="43.783" lon="2.11616">
        <ele>208</ele>
        <time>2025-10-05T11:45:23.000Z</time>
      </trkpt>
      <trkpt lat="43.783" lon="2.11616">
        <ele>208</ele>
        <time>2025-10-05T11:45:28.000Z</time>
      </trkpt>
      <trkpt lat="43.783" lon="2.11616">
        <ele>208</ele>
        <time>2025-10-05T11:45:33.000Z</time>
      </trkpt>
      <trkpt lat="43.783" lon="2.11616">
        <ele>208</ele>
        <time>2025-10-05T11:45:38.000Z</time>
      </trkpt>
      <trkpt lat="43.783" lon="2.11618">
        <ele>208</ele>
        <time>2025-10-05T11:45:43.000Z</time>
      </trkpt>
      <trkpt lat="43.783" lon="2.11618">
        <ele>208</ele>
        <time>2025-10-05T11:45:48.000Z</time>
      </trkpt>
      <trkpt lat="43.78301" lon="2.11617">
        <ele>208</ele>
        <time>2025-10-05T11:45:53.000Z</time>
      </trkpt>
      <trkpt lat="43.78302" lon="2.11616">
        <ele>208</ele>
        <time>2025-10-05T11:45:58.000Z</time>
      </trkpt>
      <trkpt lat="43.78303" lon="2.11615">
        <ele>210</ele>
        <time>2025-10-05T11:46:03.000Z</time>
      </trkpt>
      <trkpt lat="43.78304" lon="2.11612">
        <ele>212</ele>
        <time>2025-10-05T11:46:08.000Z</time>
      </trkpt>
      <trkpt lat="43.78305" lon="2.11609">
        <ele>211</ele>
        <time>2025-10-05T11:46:13.000Z</time>
      </trkpt>
      <trkpt lat="43.78308" lon="2.11605">
        <ele>211</ele>
        <time>2025-10-05T11:46:18.000Z</time>
      </trkpt>
      <trkpt lat="43.78309" lon="2.11601">
        <ele>210</ele>
        <time>2025-10-05T11:46:23.000Z</time>
      </trkpt>
      <trkpt lat="43.78312" lon="2.11597">
        <ele>210</ele>
        <time>2025-10-05T11:46:28.000Z</time>
      </trkpt>
      <trkpt lat="43.78313" lon="2.11593">
        <ele>211</ele>
        <time>2025-10-05T11:46:33.000Z</time>
      </trkpt>
      <trkpt lat="43.78314" lon="2.11588">
        <ele>211</ele>
        <time>2025-10-05T11:46:38.000Z</time>
      </trkpt>
      <trkpt lat="43.78315" lon="2.11583">
        <ele>212</ele>
        <time>2025-10-05T11:46:43.000Z</time>
      </trkpt>
      <trkpt lat="43.78318" lon="2.11578">
        <ele>212</ele>
        <time>2025-10-05T11:46:48.000Z</time>
      </trkpt>
      <trkpt lat="43.78319" lon="2.11572">
        <ele>210</ele>
        <time>2025-10-05T11:46:53.000Z</time>
      </trkpt>
      <trkpt lat="43.7832" lon="2.11566">
        <ele>212</ele>
        <time>2025-10-05T11:46:58.000Z</time>
      </trkpt>
      <trkpt lat="43.7832" lon="2.1156">
        <ele>211</ele>
        <time>2025-10-05T11:47:03.000Z</time>
      </trkpt>
      <trkpt lat="43.78321" lon="2.11554">
        <ele>211</ele>
        <time>2025-10-05T11:47:08.000Z</time>
      </trkpt>
      <trkpt lat="43.7832" lon="2.11549">
        <ele>212</ele>
        <time>2025-10-05T11:47:13.000Z</time>
      </trkpt>
      <trkpt lat="43.78321" lon="2.11542">
        <ele>214</ele>
        <time>2025-10-05T11:47:18.000Z</time>
      </trkpt>
      <trkpt lat="43.7832" lon="2.11533">
        <ele>215</ele>
        <time>2025-10-05T11:47:23.000Z</time>
      </trkpt>
      <trkpt lat="43.78319" lon="2.11527">
        <ele>216</ele>
        <time>2025-10-05T11:47:28.000Z</time>
      </trkpt>
      <trkpt lat="43.78317" lon="2.11521">
        <ele>215</ele>
        <time>2025-10-05T11:47:33.000Z</time>
      </trkpt>
      <trkpt lat="43.78315" lon="2.11515">
        <ele>215</ele>
        <time>2025-10-05T11:47:38.000Z</time>
      </trkpt>
      <trkpt lat="43.78313" lon="2.11507">
        <ele>215</ele>
        <time>2025-10-05T11:47:43.000Z</time>
      </trkpt>
      <trkpt lat="43.78312" lon="2.115">
        <ele>215</ele>
        <time>2025-10-05T11:47:48.000Z</time>
      </trkpt>
      <trkpt lat="43.7831" lon="2.11492">
        <ele>215</ele>
        <time>2025-10-05T11:47:53.000Z</time>
      </trkpt>
      <trkpt lat="43.78307" lon="2.11486">
        <ele>214</ele>
        <time>2025-10-05T11:47:58.000Z</time>
      </trkpt>
      <trkpt lat="43.78305" lon="2.11481">
        <ele>212</ele>
        <time>2025-10-05T11:48:03.000Z</time>
      </trkpt>
      <trkpt lat="43.78305" lon="2.11473">
        <ele>212</ele>
        <time>2025-10-05T11:48:08.000Z</time>
      </trkpt>
      <trkpt lat="43.78303" lon="2.11464">
        <ele>211</ele>
        <time>2025-10-05T11:48:13.000Z</time>
      </trkpt>
      <trkpt lat="43.78303" lon="2.11455">
        <ele>211</ele>
        <time>2025-10-05T11:48:18.000Z</time>
      </trkpt>
      <trkpt lat="43.78303" lon="2.11446">
        <ele>211</ele>
        <time>2025-10-05T11:48:23.000Z</time>
      </trkpt>
      <trkpt lat="43.78304" lon="2.11439">
        <ele>210</ele>
        <time>2025-10-05T11:48:28.000Z</time>
      </trkpt>
      <trkpt lat="43.78305" lon="2.11431">
        <ele>210</ele>
        <time>2025-10-05T11:48:33.000Z</time>
      </trkpt>
      <trkpt lat="43.78307" lon="2.11425">
        <ele>211</ele>
        <time>2025-10-05T11:48:38.000Z</time>
      </trkpt>
      <trkpt lat="43.78309" lon="2.1142">
        <ele>210</ele>
        <time>2025-10-05T11:48:43.000Z</time>
      </trkpt>
      <trkpt lat="43.78312" lon="2.11413">
        <ele>211</ele>
        <time>2025-10-05T11:48:48.000Z</time>
      </trkpt>
      <trkpt lat="43.78315" lon="2.11407">
        <ele>212</ele>
        <time>2025-10-05T11:48:53.000Z</time>
      </trkpt>
      <trkpt lat="43.78319" lon="2.114">
        <ele>211</ele>
        <time>2025-10-05T11:48:58.000Z</time>
      </trkpt>
      <trkpt lat="43.78323" lon="2.11393">
        <ele>211</ele>
        <time>2025-10-05T11:49:03.000Z</time>
      </trkpt>
      <trkpt lat="43.78326" lon="2.11386">
        <ele>212</ele>
        <time>2025-10-05T11:49:08.000Z</time>
      </trkpt>
      <trkpt lat="43.78329" lon="2.1138">
        <ele>211</ele>
        <time>2025-10-05T11:49:13.000Z</time>
      </trkpt>
      <trkpt lat="43.78332" lon="2.11374">
        <ele>210</ele>
        <time>2025-10-05T11:49:18.000Z</time>
      </trkpt>
      <trkpt lat="43.78336" lon="2.11367">
        <ele>210</ele>
        <time>2025-10-05T11:49:23.000Z</time>
      </trkpt>
      <trkpt lat="43.7834" lon="2.11361">
        <ele>210</ele>
        <time>2025-10-05T11:49:28.000Z</time>
      </trkpt>
      <trkpt lat="43.78343" lon="2.11354">
        <ele>209</ele>
        <time>2025-10-05T11:49:33.000Z</time>
      </trkpt>
      <trkpt lat="43.78346" lon="2.11349">
        <ele>208</ele>
        <time>2025-10-05T11:49:38.000Z</time>
      </trkpt>
      <trkpt lat="43.78349" lon="2.11342">
        <ele>207</ele>
        <time>2025-10-05T11:49:43.000Z</time>
      </trkpt>
      <trkpt lat="43.78353" lon="2.11336">
        <ele>207</ele>
        <time>2025-10-05T11:49:48.000Z</time>
      </trkpt>
      <trkpt lat="43.78357" lon="2.11328">
        <ele>208</ele>
        <time>2025-10-05T11:49:53.000Z</time>
      </trkpt>
      <trkpt lat="43.78362" lon="2.1132">
        <ele>207</ele>
        <time>2025-10-05T11:49:58.000Z</time>
      </trkpt>
      <trkpt lat="43.78365" lon="2.11313">
        <ele>207</ele>
        <time>2025-10-05T11:50:03.000Z</time>
      </trkpt>
      <trkpt lat="43.78366" lon="2.11306">
        <ele>207</ele>
        <time>2025-10-05T11:50:08.000Z</time>
      </trkpt>
      <trkpt lat="43.78367" lon="2.11299">
        <ele>205</ele>
        <time>2025-10-05T11:50:13.000Z</time>
      </trkpt>
      <trkpt lat="43.7837" lon="2.11292">
        <ele>204</ele>
        <time>2025-10-05T11:50:18.000Z</time>
      </trkpt>
      <trkpt lat="43.78373" lon="2.11287">
        <ele>205</ele>
        <time>2025-10-05T11:50:23.000Z</time>
      </trkpt>
      <trkpt lat="43.78377" lon="2.1128">
        <ele>205</ele>
        <time>2025-10-05T11:50:28.000Z</time>
      </trkpt>
      <trkpt lat="43.7838" lon="2.11274">
        <ele>205</ele>
        <time>2025-10-05T11:50:33.000Z</time>
      </trkpt>
      <trkpt lat="43.78385" lon="2.11265">
        <ele>204</ele>
        <time>2025-10-05T11:50:38.000Z</time>
      </trkpt>
      <trkpt lat="43.7839" lon="2.11258">
        <ele>205</ele>
        <time>2025-10-05T11:50:43.000Z</time>
      </trkpt>
      <trkpt lat="43.78394" lon="2.1125">
        <ele>204</ele>
        <time>2025-10-05T11:50:48.000Z</time>
      </trkpt>
      <trkpt lat="43.78397" lon="2.11244">
        <ele>206</ele>
        <time>2025-10-05T11:50:53.000Z</time>
      </trkpt>
      <trkpt lat="43.784" lon="2.11237">
        <ele>206</ele>
        <time>2025-10-05T11:50:58.000Z</time>
      </trkpt>
      <trkpt lat="43.78402" lon="2.11231">
        <ele>206</ele>
        <time>2025-10-05T11:51:03.000Z</time>
      </trkpt>
      <trkpt lat="43.78405" lon="2.11223">
        <ele>206</ele>
        <time>2025-10-05T11:51:08.000Z</time>
      </trkpt>
      <trkpt lat="43.78408" lon="2.11218">
        <ele>206</ele>
        <time>2025-10-05T11:51:13.000Z</time>
      </trkpt>
      <trkpt lat="43.78411" lon="2.11211">
        <ele>207</ele>
        <time>2025-10-05T11:51:18.000Z</time>
      </trkpt>
      <trkpt lat="43.78415" lon="2.11203">
        <ele>208</ele>
        <time>2025-10-05T11:51:23.000Z</time>
      </trkpt>
      <trkpt lat="43.78419" lon="2.11194">
        <ele>208</ele>
        <time>2025-10-05T11:51:28.000Z</time>
      </trkpt>
      <trkpt lat="43.78422" lon="2.11188">
        <ele>208</ele>
        <time>2025-10-05T11:51:33.000Z</time>
      </trkpt>
      <trkpt lat="43.78424" lon="2.11182">
        <ele>208</ele>
        <time>2025-10-05T11:51:38.000Z</time>
      </trkpt>
      <trkpt lat="43.78429" lon="2.11177">
        <ele>208</ele>
        <time>2025-10-05T11:51:43.000Z</time>
      </trkpt>
      <trkpt lat="43.78432" lon="2.11171">
        <ele>208</ele>
        <time>2025-10-05T11:51:48.000Z</time>
      </trkpt>
      <trkpt lat="43.78436" lon="2.11164">
        <ele>208</ele>
        <time>2025-10-05T11:51:53.000Z</time>
      </trkpt>
      <trkpt lat="43.7844" lon="2.11158">
        <ele>208</ele>
        <time>2025-10-05T11:51:58.000Z</time>
      </trkpt>
      <trkpt lat="43.78445" lon="2.11153">
        <ele>209</ele>
        <time>2025-10-05T11:52:03.000Z</time>
      </trkpt>
      <trkpt lat="43.78448" lon="2.11146">
        <ele>210</ele>
        <time>2025-10-05T11:52:08.000Z</time>
      </trkpt>
      <trkpt lat="43.78453" lon="2.11137">
        <ele>209</ele>
        <time>2025-10-05T11:52:13.000Z</time>
      </trkpt>
      <trkpt lat="43.78457" lon="2.11128">
        <ele>209</ele>
        <time>2025-10-05T11:52:18.000Z</time>
      </trkpt>
      <trkpt lat="43.7846" lon="2.11119">
        <ele>207</ele>
        <time>2025-10-05T11:52:23.000Z</time>
      </trkpt>
      <trkpt lat="43.78462" lon="2.11111">
        <ele>208</ele>
        <time>2025-10-05T11:52:28.000Z</time>
      </trkpt>
      <trkpt lat="43.78464" lon="2.11104">
        <ele>207</ele>
        <time>2025-10-05T11:52:33.000Z</time>
      </trkpt>
      <trkpt lat="43.78467" lon="2.11096">
        <ele>207</ele>
        <time>2025-10-05T11:52:38.000Z</time>
      </trkpt>
      <trkpt lat="43.7847" lon="2.1109">
        <ele>207</ele>
        <time>2025-10-05T11:52:43.000Z</time>
      </trkpt>
      <trkpt lat="43.78471" lon="2.11083">
        <ele>208</ele>
        <time>2025-10-05T11:52:48.000Z</time>
      </trkpt>
      <trkpt lat="43.78474" lon="2.11075">
        <ele>208</ele>
        <time>2025-10-05T11:52:53.000Z</time>
      </trkpt>
      <trkpt lat="43.78476" lon="2.11065">
        <ele>208</ele>
        <time>2025-10-05T11:52:58.000Z</time>
      </trkpt>
      <trkpt lat="43.78478" lon="2.11057">
        <ele>208</ele>
        <time>2025-10-05T11:53:03.000Z</time>
      </trkpt>
      <trkpt lat="43.78481" lon="2.11049">
        <ele>208</ele>
        <time>2025-10-05T11:53:08.000Z</time>
      </trkpt>
      <trkpt lat="43.78484" lon="2.1104">
        <ele>208</ele>
        <time>2025-10-05T11:53:13.000Z</time>
      </trkpt>
      <trkpt lat="43.78486" lon="2.1103">
        <ele>209</ele>
        <time>2025-10-05T11:53:18.000Z</time>
      </trkpt>
      <trkpt lat="43.78487" lon="2.11023">
        <ele>208</ele>
        <time>2025-10-05T11:53:23.000Z</time>
      </trkpt>
      <trkpt lat="43.78488" lon="2.11016">
        <ele>208</ele>
        <time>2025-10-05T11:53:28.000Z</time>
      </trkpt>
      <trkpt lat="43.78488" lon="2.11007">
        <ele>208</ele>
        <time>2025-10-05T11:53:33.000Z</time>
      </trkpt>
      <trkpt lat="43.78489" lon="2.10998">
        <ele>209</ele>
        <time>2025-10-05T11:53:38.000Z</time>
      </trkpt>
      <trkpt lat="43.7849" lon="2.10989">
        <ele>209</ele>
        <time>2025-10-05T11:53:43.000Z</time>
      </trkpt>
      <trkpt lat="43.7849" lon="2.1098">
        <ele>209</ele>
        <time>2025-10-05T11:53:48.000Z</time>
      </trkpt>
      <trkpt lat="43.7849" lon="2.10973">
        <ele>208</ele>
        <time>2025-10-05T11:53:53.000Z</time>
      </trkpt>
      <trkpt lat="43.7849" lon="2.10965">
        <ele>208</ele>
        <time>2025-10-05T11:53:58.000Z</time>
      </trkpt>
      <trkpt lat="43.7849" lon="2.10956">
        <ele>208</ele>
        <time>2025-10-05T11:54:03.000Z</time>
      </trkpt>
      <trkpt lat="43.7849" lon="2.10947">
        <ele>209</ele>
        <time>2025-10-05T11:54:08.000Z</time>
      </trkpt>
      <trkpt lat="43.78489" lon="2.10939">
        <ele>209</ele>
        <time>2025-10-05T11:54:13.000Z</time>
      </trkpt>
      <trkpt lat="43.78491" lon="2.10929">
        <ele>208</ele>
        <time>2025-10-05T11:54:18.000Z</time>
      </trkpt>
      <trkpt lat="43.78493" lon="2.10919">
        <ele>209</ele>
        <time>2025-10-05T11:54:23.000Z</time>
      </trkpt>
      <trkpt lat="43.78493" lon="2.1091">
        <ele>208</ele>
        <time>2025-10-05T11:54:28.000Z</time>
      </trkpt>
      <trkpt lat="43.78495" lon="2.109">
        <ele>209</ele>
        <time>2025-10-05T11:54:33.000Z</time>
      </trkpt>
      <trkpt lat="43.78495" lon="2.10892">
        <ele>210</ele>
        <time>2025-10-05T11:54:38.000Z</time>
      </trkpt>
      <trkpt lat="43.78496" lon="2.10886">
        <ele>210</ele>
        <time>2025-10-05T11:54:43.000Z</time>
      </trkpt>
      <trkpt lat="43.78497" lon="2.10881">
        <ele>211</ele>
        <time>2025-10-05T11:54:48.000Z</time>
      </trkpt>
      <trkpt lat="43.78499" lon="2.10873">
        <ele>212</ele>
        <time>2025-10-05T11:54:53.000Z</time>
      </trkpt>
      <trkpt lat="43.78503" lon="2.10866">
        <ele>212</ele>
        <time>2025-10-05T11:54:58.000Z</time>
      </trkpt>
      <trkpt lat="43.78505" lon="2.10861">
        <ele>212</ele>
        <time>2025-10-05T11:55:03.000Z</time>
      </trkpt>
      <trkpt lat="43.78509" lon="2.10854">
        <ele>211</ele>
        <time>2025-10-05T11:55:08.000Z</time>
      </trkpt>
      <trkpt lat="43.78513" lon="2.10847">
        <ele>211</ele>
        <time>2025-10-05T11:55:13.000Z</time>
      </trkpt>
      <trkpt lat="43.78516" lon="2.10839">
        <ele>211</ele>
        <time>2025-10-05T11:55:18.000Z</time>
      </trkpt>
      <trkpt lat="43.78519" lon="2.10832">
        <ele>212</ele>
        <time>2025-10-05T11:55:23.000Z</time>
      </trkpt>
      <trkpt lat="43.78522" lon="2.10828">
        <ele>211</ele>
        <time>2025-10-05T11:55:28.000Z</time>
      </trkpt>
      <trkpt lat="43.78526" lon="2.10822">
        <ele>211</ele>
        <time>2025-10-05T11:55:33.000Z</time>
      </trkpt>
      <trkpt lat="43.78528" lon="2.10817">
        <ele>211</ele>
        <time>2025-10-05T11:55:38.000Z</time>
      </trkpt>
      <trkpt lat="43.78531" lon="2.10809">
        <ele>212</ele>
        <time>2025-10-05T11:55:43.000Z</time>
      </trkpt>
      <trkpt lat="43.78535" lon="2.10801">
        <ele>213</ele>
        <time>2025-10-05T11:55:48.000Z</time>
      </trkpt>
      <trkpt lat="43.78539" lon="2.10794">
        <ele>213</ele>
        <time>2025-10-05T11:55:53.000Z</time>
      </trkpt>
      <trkpt lat="43.78542" lon="2.10788">
        <ele>214</ele>
        <time>2025-10-05T11:55:58.000Z</time>
      </trkpt>
      <trkpt lat="43.78546" lon="2.10782">
        <ele>215</ele>
        <time>2025-10-05T11:56:03.000Z</time>
      </trkpt>
      <trkpt lat="43.78548" lon="2.10776">
        <ele>213</ele>
        <time>2025-10-05T11:56:08.000Z</time>
      </trkpt>
      <trkpt lat="43.78548" lon="2.10768">
        <ele>213</ele>
        <time>2025-10-05T11:56:13.000Z</time>
      </trkpt>
      <trkpt lat="43.78552" lon="2.10758">
        <ele>211</ele>
        <time>2025-10-05T11:56:18.000Z</time>
      </trkpt>
      <trkpt lat="43.78553" lon="2.1075">
        <ele>211</ele>
        <time>2025-10-05T11:56:23.000Z</time>
      </trkpt>
      <trkpt lat="43.78553" lon="2.10741">
        <ele>211</ele>
        <time>2025-10-05T11:56:28.000Z</time>
      </trkpt>
      <trkpt lat="43.78555" lon="2.10733">
        <ele>212</ele>
        <time>2025-10-05T11:56:33.000Z</time>
      </trkpt>
      <trkpt lat="43.78555" lon="2.10725">
        <ele>212</ele>
        <time>2025-10-05T11:56:38.000Z</time>
      </trkpt>
      <trkpt lat="43.78555" lon="2.10715">
        <ele>211</ele>
        <time>2025-10-05T11:56:43.000Z</time>
      </trkpt>
      <trkpt lat="43.78555" lon="2.10707">
        <ele>211</ele>
        <time>2025-10-05T11:56:48.000Z</time>
      </trkpt>
      <trkpt lat="43.78555" lon="2.10698">
        <ele>211</ele>
        <time>2025-10-05T11:56:53.000Z</time>
      </trkpt>
      <trkpt lat="43.78555" lon="2.1069">
        <ele>211</ele>
        <time>2025-10-05T11:56:58.000Z</time>
      </trkpt>
      <trkpt lat="43.78555" lon="2.10682">
        <ele>210</ele>
        <time>2025-10-05T11:57:03.000Z</time>
      </trkpt>
      <trkpt lat="43.78554" lon="2.10674">
        <ele>209</ele>
        <time>2025-10-05T11:57:08.000Z</time>
      </trkpt>
      <trkpt lat="43.78553" lon="2.1067">
        <ele>211</ele>
        <time>2025-10-05T11:57:13.000Z</time>
      </trkpt>
      <trkpt lat="43.78553" lon="2.10664">
        <ele>210</ele>
        <time>2025-10-05T11:57:18.000Z</time>
      </trkpt>
      <trkpt lat="43.78551" lon="2.10659">
        <ele>210</ele>
        <time>2025-10-05T11:57:23.000Z</time>
      </trkpt>
      <trkpt lat="43.78548" lon="2.10652">
        <ele>209</ele>
        <time>2025-10-05T11:57:28.000Z</time>
      </trkpt>
      <trkpt lat="43.78548" lon="2.10643">
        <ele>207</ele>
        <time>2025-10-05T11:57:33.000Z</time>
      </trkpt>
      <trkpt lat="43.78547" lon="2.10638">
        <ele>206</ele>
        <time>2025-10-05T11:57:38.000Z</time>
      </trkpt>
      <trkpt lat="43.78544" lon="2.10631">
        <ele>205</ele>
        <time>2025-10-05T11:57:43.000Z</time>
      </trkpt>
      <trkpt lat="43.78543" lon="2.10626">
        <ele>204</ele>
        <time>2025-10-05T11:57:48.000Z</time>
      </trkpt>
      <trkpt lat="43.78539" lon="2.10619">
        <ele>203</ele>
        <time>2025-10-05T11:57:53.000Z</time>
      </trkpt>
      <trkpt lat="43.78536" lon="2.10611">
        <ele>203</ele>
        <time>2025-10-05T11:57:58.000Z</time>
      </trkpt>
      <trkpt lat="43.78533" lon="2.10602">
        <ele>203</ele>
        <time>2025-10-05T11:58:03.000Z</time>
      </trkpt>
      <trkpt lat="43.7853" lon="2.10595">
        <ele>203</ele>
        <time>2025-10-05T11:58:08.000Z</time>
      </trkpt>
      <trkpt lat="43.78526" lon="2.10589">
        <ele>203</ele>
        <time>2025-10-05T11:58:13.000Z</time>
      </trkpt>
      <trkpt lat="43.78523" lon="2.10583">
        <ele>203</ele>
        <time>2025-10-05T11:58:18.000Z</time>
      </trkpt>
      <trkpt lat="43.78519" lon="2.10576">
        <ele>203</ele>
        <time>2025-10-05T11:58:23.000Z</time>
      </trkpt>
      <trkpt lat="43.78518" lon="2.10571">
        <ele>204</ele>
        <time>2025-10-05T11:58:28.000Z</time>
      </trkpt>
      <trkpt lat="43.78516" lon="2.10563">
        <ele>205</ele>
        <time>2025-10-05T11:58:33.000Z</time>
      </trkpt>
      <trkpt lat="43.78513" lon="2.10558">
        <ele>206</ele>
        <time>2025-10-05T11:58:38.000Z</time>
      </trkpt>
      <trkpt lat="43.78509" lon="2.10551">
        <ele>205</ele>
        <time>2025-10-05T11:58:43.000Z</time>
      </trkpt>
      <trkpt lat="43.78505" lon="2.10545">
        <ele>205</ele>
        <time>2025-10-05T11:58:48.000Z</time>
      </trkpt>
      <trkpt lat="43.78502" lon="2.10538">
        <ele>206</ele>
        <time>2025-10-05T11:58:53.000Z</time>
      </trkpt>
      <trkpt lat="43.78498" lon="2.1053">
        <ele>207</ele>
        <time>2025-10-05T11:58:58.000Z</time>
      </trkpt>
      <trkpt lat="43.78492" lon="2.10518">
        <ele>213</ele>
        <time>2025-10-05T11:59:03.000Z</time>
      </trkpt>
      <trkpt lat="43.78489" lon="2.10508">
        <ele>216</ele>
        <time>2025-10-05T11:59:08.000Z</time>
      </trkpt>
      <trkpt lat="43.78486" lon="2.10498">
        <ele>219</ele>
        <time>2025-10-05T11:59:13.000Z</time>
      </trkpt>
      <trkpt lat="43.78484" lon="2.1049">
        <ele>220</ele>
        <time>2025-10-05T11:59:18.000Z</time>
      </trkpt>
      <trkpt lat="43.78482" lon="2.10482">
        <ele>219</ele>
        <time>2025-10-05T11:59:23.000Z</time>
      </trkpt>
      <trkpt lat="43.7848" lon="2.10472">
        <ele>221</ele>
        <time>2025-10-05T11:59:28.000Z</time>
      </trkpt>
      <trkpt lat="43.7848" lon="2.10463">
        <ele>222</ele>
        <time>2025-10-05T11:59:33.000Z</time>
      </trkpt>
      <trkpt lat="43.78479" lon="2.10454">
        <ele>223</ele>
        <time>2025-10-05T11:59:38.000Z</time>
      </trkpt>
      <trkpt lat="43.78479" lon="2.10446">
        <ele>223</ele>
        <time>2025-10-05T11:59:43.000Z</time>
      </trkpt>
      <trkpt lat="43.78478" lon="2.10437">
        <ele>224</ele>
        <time>2025-10-05T11:59:48.000Z</time>
      </trkpt>
      <trkpt lat="43.78478" lon="2.1043">
        <ele>224</ele>
        <time>2025-10-05T11:59:53.000Z</time>
      </trkpt>
      <trkpt lat="43.78478" lon="2.10422">
        <ele>225</ele>
        <time>2025-10-05T11:59:58.000Z</time>
      </trkpt>
      <trkpt lat="43.78478" lon="2.10414">
        <ele>224</ele>
        <time>2025-10-05T12:00:03.000Z</time>
      </trkpt>
      <trkpt lat="43.78479" lon="2.10405">
        <ele>224</ele>
        <time>2025-10-05T12:00:08.000Z</time>
      </trkpt>
      <trkpt lat="43.78478" lon="2.10395">
        <ele>225</ele>
        <time>2025-10-05T12:00:13.000Z</time>
      </trkpt>
      <trkpt lat="43.78479" lon="2.10386">
        <ele>225</ele>
        <time>2025-10-05T12:00:18.000Z</time>
      </trkpt>
      <trkpt lat="43.7848" lon="2.10379">
        <ele>225</ele>
        <time>2025-10-05T12:00:23.000Z</time>
      </trkpt>
      <trkpt lat="43.7848" lon="2.10373">
        <ele>224</ele>
        <time>2025-10-05T12:00:28.000Z</time>
      </trkpt>
      <trkpt lat="43.78481" lon="2.10364">
        <ele>222</ele>
        <time>2025-10-05T12:00:33.000Z</time>
      </trkpt>
      <trkpt lat="43.78481" lon="2.10357">
        <ele>220</ele>
        <time>2025-10-05T12:00:38.000Z</time>
      </trkpt>
      <trkpt lat="43.7848" lon="2.1035">
        <ele>220</ele>
        <time>2025-10-05T12:00:43.000Z</time>
      </trkpt>
      <trkpt lat="43.7848" lon="2.10345">
        <ele>219</ele>
        <time>2025-10-05T12:00:48.000Z</time>
      </trkpt>
      <trkpt lat="43.78481" lon="2.10334">
        <ele>219</ele>
        <time>2025-10-05T12:00:53.000Z</time>
      </trkpt>
      <trkpt lat="43.78481" lon="2.10326">
        <ele>220</ele>
        <time>2025-10-05T12:00:58.000Z</time>
      </trkpt>
      <trkpt lat="43.78482" lon="2.10326">
        <ele>218</ele>
        <time>2025-10-05T12:01:03.000Z</time>
      </trkpt>
      <trkpt lat="43.78482" lon="2.1032">
        <ele>217</ele>
        <time>2025-10-05T12:01:08.000Z</time>
      </trkpt>
      <trkpt lat="43.78481" lon="2.10311">
        <ele>216</ele>
        <time>2025-10-05T12:01:13.000Z</time>
      </trkpt>
      <trkpt lat="43.78482" lon="2.10301">
        <ele>215</ele>
        <time>2025-10-05T12:01:18.000Z</time>
      </trkpt>
      <trkpt lat="43.78482" lon="2.10291">
        <ele>213</ele>
        <time>2025-10-05T12:01:23.000Z</time>
      </trkpt>
      <trkpt lat="43.78483" lon="2.1028">
        <ele>213</ele>
        <time>2025-10-05T12:01:28.000Z</time>
      </trkpt>
      <trkpt lat="43.78483" lon="2.1027">
        <ele>213</ele>
        <time>2025-10-05T12:01:33.000Z</time>
      </trkpt>
      <trkpt lat="43.78483" lon="2.10262">
        <ele>212</ele>
        <time>2025-10-05T12:01:38.000Z</time>
      </trkpt>
      <trkpt lat="43.78483" lon="2.10254">
        <ele>211</ele>
        <time>2025-10-05T12:01:43.000Z</time>
      </trkpt>
      <trkpt lat="43.78484" lon="2.10246">
        <ele>211</ele>
        <time>2025-10-05T12:01:48.000Z</time>
      </trkpt>
      <trkpt lat="43.78486" lon="2.10237">
        <ele>212</ele>
        <time>2025-10-05T12:01:53.000Z</time>
      </trkpt>
      <trkpt lat="43.78487" lon="2.10231">
        <ele>213</ele>
        <time>2025-10-05T12:01:58.000Z</time>
      </trkpt>
      <trkpt lat="43.7849" lon="2.10223">
        <ele>212</ele>
        <time>2025-10-05T12:02:03.000Z</time>
      </trkpt>
      <trkpt lat="43.78493" lon="2.10215">
        <ele>212</ele>
        <time>2025-10-05T12:02:08.000Z</time>
      </trkpt>
      <trkpt lat="43.78496" lon="2.10208">
        <ele>211</ele>
        <time>2025-10-05T12:02:13.000Z</time>
      </trkpt>
      <trkpt lat="43.78497" lon="2.10201">
        <ele>212</ele>
        <time>2025-10-05T12:02:18.000Z</time>
      </trkpt>
      <trkpt lat="43.78499" lon="2.10194">
        <ele>212</ele>
        <time>2025-10-05T12:02:23.000Z</time>
      </trkpt>
      <trkpt lat="43.78501" lon="2.10187">
        <ele>212</ele>
        <time>2025-10-05T12:02:28.000Z</time>
      </trkpt>
      <trkpt lat="43.78501" lon="2.10179">
        <ele>212</ele>
        <time>2025-10-05T12:02:33.000Z</time>
      </trkpt>
      <trkpt lat="43.78502" lon="2.10171">
        <ele>211</ele>
        <time>2025-10-05T12:02:38.000Z</time>
      </trkpt>
      <trkpt lat="43.78503" lon="2.10164">
        <ele>210</ele>
        <time>2025-10-05T12:02:43.000Z</time>
      </trkpt>
      <trkpt lat="43.78505" lon="2.10158">
        <ele>209</ele>
        <time>2025-10-05T12:02:48.000Z</time>
      </trkpt>
      <trkpt lat="43.78507" lon="2.10152">
        <ele>208</ele>
        <time>2025-10-05T12:02:53.000Z</time>
      </trkpt>
      <trkpt lat="43.78509" lon="2.10145">
        <ele>209</ele>
        <time>2025-10-05T12:02:58.000Z</time>
      </trkpt>
      <trkpt lat="43.78511" lon="2.10138">
        <ele>209</ele>
        <time>2025-10-05T12:03:03.000Z</time>
      </trkpt>
      <trkpt lat="43.78514" lon="2.10132">
        <ele>209</ele>
        <time>2025-10-05T12:03:08.000Z</time>
      </trkpt>
      <trkpt lat="43.78515" lon="2.10124">
        <ele>208</ele>
        <time>2025-10-05T12:03:13.000Z</time>
      </trkpt>
      <trkpt lat="43.78518" lon="2.10116">
        <ele>207</ele>
        <time>2025-10-05T12:03:18.000Z</time>
      </trkpt>
      <trkpt lat="43.78525" lon="2.10104">
        <ele>210</ele>
        <time>2025-10-05T12:03:23.000Z</time>
      </trkpt>
      <trkpt lat="43.7853" lon="2.10095">
        <ele>211</ele>
        <time>2025-10-05T12:03:28.000Z</time>
      </trkpt>
      <trkpt lat="43.78533" lon="2.10084">
        <ele>213</ele>
        <time>2025-10-05T12:03:33.000Z</time>
      </trkpt>
      <trkpt lat="43.78535" lon="2.10076">
        <ele>215</ele>
        <time>2025-10-05T12:03:38.000Z</time>
      </trkpt>
      <trkpt lat="43.78538" lon="2.10067">
        <ele>216</ele>
        <time>2025-10-05T12:03:43.000Z</time>
      </trkpt>
      <trkpt lat="43.7854" lon="2.10057">
        <ele>217</ele>
        <time>2025-10-05T12:03:48.000Z</time>
      </trkpt>
      <trkpt lat="43.78541" lon="2.10049">
        <ele>218</ele>
        <time>2025-10-05T12:03:53.000Z</time>
      </trkpt>
      <trkpt lat="43.78544" lon="2.10043">
        <ele>217</ele>
        <time>2025-10-05T12:03:58.000Z</time>
      </trkpt>
      <trkpt lat="43.78546" lon="2.10036">
        <ele>219</ele>
        <time>2025-10-05T12:04:03.000Z</time>
      </trkpt>
      <trkpt lat="43.78547" lon="2.10029">
        <ele>219</ele>
        <time>2025-10-05T12:04:08.000Z</time>
      </trkpt>
      <trkpt lat="43.7855" lon="2.1002">
        <ele>219</ele>
        <time>2025-10-05T12:04:13.000Z</time>
      </trkpt>
      <trkpt lat="43.78552" lon="2.10012">
        <ele>220</ele>
        <time>2025-10-05T12:04:18.000Z</time>
      </trkpt>
      <trkpt lat="43.78554" lon="2.10003">
        <ele>220</ele>
        <time>2025-10-05T12:04:23.000Z</time>
      </trkpt>
      <trkpt lat="43.78556" lon="2.09996">
        <ele>221</ele>
        <time>2025-10-05T12:04:28.000Z</time>
      </trkpt>
      <trkpt lat="43.78557" lon="2.09989">
        <ele>222</ele>
        <time>2025-10-05T12:04:33.000Z</time>
      </trkpt>
      <trkpt lat="43.7856" lon="2.09982">
        <ele>222</ele>
        <time>2025-10-05T12:04:38.000Z</time>
      </trkpt>
      <trkpt lat="43.78564" lon="2.09977">
        <ele>223</ele>
        <time>2025-10-05T12:04:43.000Z</time>
      </trkpt>
      <trkpt lat="43.78567" lon="2.09968">
        <ele>222</ele>
        <time>2025-10-05T12:04:48.000Z</time>
      </trkpt>
      <trkpt lat="43.7857" lon="2.09959">
        <ele>224</ele>
        <time>2025-10-05T12:04:53.000Z</time>
      </trkpt>
      <trkpt lat="43.78572" lon="2.09952">
        <ele>224</ele>
        <time>2025-10-05T12:04:58.000Z</time>
      </trkpt>
      <trkpt lat="43.78573" lon="2.09945">
        <ele>224</ele>
        <time>2025-10-05T12:05:03.000Z</time>
      </trkpt>
      <trkpt lat="43.78575" lon="2.09938">
        <ele>223</ele>
        <time>2025-10-05T12:05:08.000Z</time>
      </trkpt>
      <trkpt lat="43.78577" lon="2.0993">
        <ele>222</ele>
        <time>2025-10-05T12:05:13.000Z</time>
      </trkpt>
      <trkpt lat="43.78578" lon="2.09923">
        <ele>223</ele>
        <time>2025-10-05T12:05:18.000Z</time>
      </trkpt>
      <trkpt lat="43.7858" lon="2.09914">
        <ele>223</ele>
        <time>2025-10-05T12:05:23.000Z</time>
      </trkpt>
      <trkpt lat="43.78581" lon="2.09907">
        <ele>224</ele>
        <time>2025-10-05T12:05:28.000Z</time>
      </trkpt>
      <trkpt lat="43.78583" lon="2.09899">
        <ele>223</ele>
        <time>2025-10-05T12:05:33.000Z</time>
      </trkpt>
      <trkpt lat="43.78583" lon="2.09892">
        <ele>223</ele>
        <time>2025-10-05T12:05:38.000Z</time>
      </trkpt>
      <trkpt lat="43.78584" lon="2.09884">
        <ele>224</ele>
        <time>2025-10-05T12:05:43.000Z</time>
      </trkpt>
      <trkpt lat="43.78586" lon="2.09876">
        <ele>224</ele>
        <time>2025-10-05T12:05:48.000Z</time>
      </trkpt>
      <trkpt lat="43.78587" lon="2.09868">
        <ele>224</ele>
        <time>2025-10-05T12:05:53.000Z</time>
      </trkpt>
      <trkpt lat="43.78587" lon="2.0986">
        <ele>224</ele>
        <time>2025-10-05T12:05:58.000Z</time>
      </trkpt>
      <trkpt lat="43.78588" lon="2.09852">
        <ele>225</ele>
        <time>2025-10-05T12:06:03.000Z</time>
      </trkpt>
      <trkpt lat="43.7859" lon="2.09844">
        <ele>224</ele>
        <time>2025-10-05T12:06:08.000Z</time>
      </trkpt>
      <trkpt lat="43.78592" lon="2.09837">
        <ele>224</ele>
        <time>2025-10-05T12:06:13.000Z</time>
      </trkpt>
      <trkpt lat="43.78593" lon="2.09829">
        <ele>223</ele>
        <time>2025-10-05T12:06:18.000Z</time>
      </trkpt>
      <trkpt lat="43.78594" lon="2.09821">
        <ele>224</ele>
        <time>2025-10-05T12:06:23.000Z</time>
      </trkpt>
      <trkpt lat="43.78596" lon="2.09813">
        <ele>225</ele>
        <time>2025-10-05T12:06:28.000Z</time>
      </trkpt>
      <trkpt lat="43.78598" lon="2.09806">
        <ele>226</ele>
        <time>2025-10-05T12:06:33.000Z</time>
      </trkpt>
      <trkpt lat="43.78603" lon="2.09803">
        <ele>227</ele>
        <time>2025-10-05T12:06:38.000Z</time>
      </trkpt>
      <trkpt lat="43.78606" lon="2.09802">
        <ele>228</ele>
        <time>2025-10-05T12:06:43.000Z</time>
      </trkpt>
      <trkpt lat="43.78606" lon="2.09802">
        <ele>228</ele>
        <time>2025-10-05T12:06:48.000Z</time>
      </trkpt>
      <trkpt lat="43.78606" lon="2.09802">
        <ele>228</ele>
        <time>2025-10-05T12:06:53.000Z</time>
      </trkpt>
      <trkpt lat="43.78606" lon="2.09802">
        <ele>228</ele>
        <time>2025-10-05T12:06:58.000Z</time>
      </trkpt>
      <trkpt lat="43.78606" lon="2.09802">
        <ele>228</ele>
        <time>2025-10-05T12:07:03.000Z</time>
      </trkpt>
      <trkpt lat="43.78606" lon="2.09802">
        <ele>228</ele>
        <time>2025-10-05T12:07:08.000Z</time>
      </trkpt>
      <trkpt lat="43.78606" lon="2.09802">
        <ele>228</ele>
        <time>2025-10-05T12:07:13.000Z</time>
      </trkpt>
      <trkpt lat="43.78606" lon="2.09802">
        <ele>228</ele>
        <time>2025-10-05T12:07:18.000Z</time>
      </trkpt>
      <trkpt lat="43.7861" lon="2.09803">
        <ele>227</ele>
        <time>2025-10-05T12:07:23.000Z</time>
      </trkpt>
      <trkpt lat="43.78614" lon="2.09808">
        <ele>227</ele>
        <time>2025-10-05T12:07:28.000Z</time>
      </trkpt>
      <trkpt lat="43.78619" lon="2.09812">
        <ele>227</ele>
        <time>2025-10-05T12:07:33.000Z</time>
      </trkpt>
      <trkpt lat="43.78623" lon="2.09814">
        <ele>226</ele>
        <time>2025-10-05T12:07:38.000Z</time>
      </trkpt>
      <trkpt lat="43.78628" lon="2.09817">
        <ele>228</ele>
        <time>2025-10-05T12:07:43.000Z</time>
      </trkpt>
      <trkpt lat="43.78634" lon="2.09818">
        <ele>229</ele>
        <time>2025-10-05T12:07:48.000Z</time>
      </trkpt>
      <trkpt lat="43.78639" lon="2.09819">
        <ele>229</ele>
        <time>2025-10-05T12:07:53.000Z</time>
      </trkpt>
      <trkpt lat="43.78645" lon="2.09819">
        <ele>229</ele>
        <time>2025-10-05T12:07:58.000Z</time>
      </trkpt>
      <trkpt lat="43.78651" lon="2.09817">
        <ele>228</ele>
        <time>2025-10-05T12:08:03.000Z</time>
      </trkpt>
      <trkpt lat="43.78658" lon="2.09812">
        <ele>229</ele>
        <time>2025-10-05T12:08:08.000Z</time>
      </trkpt>
      <trkpt lat="43.78662" lon="2.09807">
        <ele>229</ele>
        <time>2025-10-05T12:08:13.000Z</time>
      </trkpt>
      <trkpt lat="43.78667" lon="2.09802">
        <ele>230</ele>
        <time>2025-10-05T12:08:18.000Z</time>
      </trkpt>
      <trkpt lat="43.78672" lon="2.09796">
        <ele>230</ele>
        <time>2025-10-05T12:08:23.000Z</time>
      </trkpt>
      <trkpt lat="43.78676" lon="2.0979">
        <ele>230</ele>
        <time>2025-10-05T12:08:28.000Z</time>
      </trkpt>
      <trkpt lat="43.7868" lon="2.09785">
        <ele>230</ele>
        <time>2025-10-05T12:08:33.000Z</time>
      </trkpt>
      <trkpt lat="43.78685" lon="2.09779">
        <ele>230</ele>
        <time>2025-10-05T12:08:38.000Z</time>
      </trkpt>
      <trkpt lat="43.7869" lon="2.09774">
        <ele>230</ele>
        <time>2025-10-05T12:08:43.000Z</time>
      </trkpt>
      <trkpt lat="43.78694" lon="2.09769">
        <ele>229</ele>
        <time>2025-10-05T12:08:48.000Z</time>
      </trkpt>
      <trkpt lat="43.78697" lon="2.09765">
        <ele>229</ele>
        <time>2025-10-05T12:08:53.000Z</time>
      </trkpt>
      <trkpt lat="43.78701" lon="2.0976">
        <ele>229</ele>
        <time>2025-10-05T12:08:58.000Z</time>
      </trkpt>
      <trkpt lat="43.78706" lon="2.09756">
        <ele>229</ele>
        <time>2025-10-05T12:09:03.000Z</time>
      </trkpt>
      <trkpt lat="43.78712" lon="2.0975">
        <ele>228</ele>
        <time>2025-10-05T12:09:08.000Z</time>
      </trkpt>
      <trkpt lat="43.78717" lon="2.09746">
        <ele>229</ele>
        <time>2025-10-05T12:09:13.000Z</time>
      </trkpt>
      <trkpt lat="43.7872" lon="2.09742">
        <ele>229</ele>
        <time>2025-10-05T12:09:18.000Z</time>
      </trkpt>
      <trkpt lat="43.78725" lon="2.09737">
        <ele>229</ele>
        <time>2025-10-05T12:09:23.000Z</time>
      </trkpt>
      <trkpt lat="43.78731" lon="2.09732">
        <ele>229</ele>
        <time>2025-10-05T12:09:28.000Z</time>
      </trkpt>
      <trkpt lat="43.78735" lon="2.09726">
        <ele>229</ele>
        <time>2025-10-05T12:09:33.000Z</time>
      </trkpt>
      <trkpt lat="43.7874" lon="2.09722">
        <ele>228</ele>
        <time>2025-10-05T12:09:38.000Z</time>
      </trkpt>
      <trkpt lat="43.78744" lon="2.09718">
        <ele>228</ele>
        <time>2025-10-05T12:09:43.000Z</time>
      </trkpt>
      <trkpt lat="43.78747" lon="2.09716">
        <ele>227</ele>
        <time>2025-10-05T12:09:48.000Z</time>
      </trkpt>
      <trkpt lat="43.78752" lon="2.09712">
        <ele>228</ele>
        <time>2025-10-05T12:09:53.000Z</time>
      </trkpt>
      <trkpt lat="43.78757" lon="2.09707">
        <ele>227</ele>
        <time>2025-10-05T12:09:58.000Z</time>
      </trkpt>
      <trkpt lat="43.78763" lon="2.09703">
        <ele>226</ele>
        <time>2025-10-05T12:10:03.000Z</time>
      </trkpt>
      <trkpt lat="43.78767" lon="2.09699">
        <ele>226</ele>
        <time>2025-10-05T12:10:08.000Z</time>
      </trkpt>
      <trkpt lat="43.78771" lon="2.09695">
        <ele>226</ele>
        <time>2025-10-05T12:10:13.000Z</time>
      </trkpt>
      <trkpt lat="43.78775" lon="2.0969">
        <ele>225</ele>
        <time>2025-10-05T12:10:18.000Z</time>
      </trkpt>
      <trkpt lat="43.78779" lon="2.09685">
        <ele>225</ele>
        <time>2025-10-05T12:10:23.000Z</time>
      </trkpt>
      <trkpt lat="43.78784" lon="2.0968">
        <ele>225</ele>
        <time>2025-10-05T12:10:28.000Z</time>
      </trkpt>
      <trkpt lat="43.78788" lon="2.09675">
        <ele>225</ele>
        <time>2025-10-05T12:10:33.000Z</time>
      </trkpt>
      <trkpt lat="43.78792" lon="2.09671">
        <ele>225</ele>
        <time>2025-10-05T12:10:38.000Z</time>
      </trkpt>
      <trkpt lat="43.78797" lon="2.09667">
        <ele>225</ele>
        <time>2025-10-05T12:10:43.000Z</time>
      </trkpt>
      <trkpt lat="43.78802" lon="2.09663">
        <ele>224</ele>
        <time>2025-10-05T12:10:48.000Z</time>
      </trkpt>
      <trkpt lat="43.7881" lon="2.09654">
        <ele>228</ele>
        <time>2025-10-05T12:10:53.000Z</time>
      </trkpt>
      <trkpt lat="43.78817" lon="2.09648">
        <ele>229</ele>
        <time>2025-10-05T12:10:58.000Z</time>
      </trkpt>
      <trkpt lat="43.78822" lon="2.09643">
        <ele>229</ele>
        <time>2025-10-05T12:11:03.000Z</time>
      </trkpt>
      <trkpt lat="43.78827" lon="2.09638">
        <ele>231</ele>
        <time>2025-10-05T12:11:08.000Z</time>
      </trkpt>
      <trkpt lat="43.78833" lon="2.09632">
        <ele>230</ele>
        <time>2025-10-05T12:11:13.000Z</time>
      </trkpt>
      <trkpt lat="43.78838" lon="2.09627">
        <ele>232</ele>
        <time>2025-10-05T12:11:18.000Z</time>
      </trkpt>
      <trkpt lat="43.78843" lon="2.09622">
        <ele>233</ele>
        <time>2025-10-05T12:11:23.000Z</time>
      </trkpt>
      <trkpt lat="43.78847" lon="2.09618">
        <ele>233</ele>
        <time>2025-10-05T12:11:28.000Z</time>
      </trkpt>
      <trkpt lat="43.78852" lon="2.09613">
        <ele>231</ele>
        <time>2025-10-05T12:11:33.000Z</time>
      </trkpt>
      <trkpt lat="43.78857" lon="2.09608">
        <ele>231</ele>
        <time>2025-10-05T12:11:38.000Z</time>
      </trkpt>
      <trkpt lat="43.78863" lon="2.09604">
        <ele>232</ele>
        <time>2025-10-05T12:11:43.000Z</time>
      </trkpt>
      <trkpt lat="43.78869" lon="2.09598">
        <ele>233</ele>
        <time>2025-10-05T12:11:48.000Z</time>
      </trkpt>
      <trkpt lat="43.78875" lon="2.09593">
        <ele>234</ele>
        <time>2025-10-05T12:11:53.000Z</time>
      </trkpt>
      <trkpt lat="43.7888" lon="2.09588">
        <ele>233</ele>
        <time>2025-10-05T12:11:58.000Z</time>
      </trkpt>
      <trkpt lat="43.78884" lon="2.09584">
        <ele>232</ele>
        <time>2025-10-05T12:12:03.000Z</time>
      </trkpt>
      <trkpt lat="43.78889" lon="2.0958">
        <ele>234</ele>
        <time>2025-10-05T12:12:08.000Z</time>
      </trkpt>
      <trkpt lat="43.78893" lon="2.09576">
        <ele>234</ele>
        <time>2025-10-05T12:12:13.000Z</time>
      </trkpt>
      <trkpt lat="43.789" lon="2.0957">
        <ele>235</ele>
        <time>2025-10-05T12:12:18.000Z</time>
      </trkpt>
      <trkpt lat="43.78905" lon="2.09564">
        <ele>235</ele>
        <time>2025-10-05T12:12:23.000Z</time>
      </trkpt>
      <trkpt lat="43.7891" lon="2.0956">
        <ele>236</ele>
        <time>2025-10-05T12:12:28.000Z</time>
      </trkpt>
      <trkpt lat="43.78916" lon="2.09555">
        <ele>236</ele>
        <time>2025-10-05T12:12:33.000Z</time>
      </trkpt>
      <trkpt lat="43.78922" lon="2.0955">
        <ele>236</ele>
        <time>2025-10-05T12:12:38.000Z</time>
      </trkpt>
      <trkpt lat="43.78927" lon="2.09544">
        <ele>235</ele>
        <time>2025-10-05T12:12:43.000Z</time>
      </trkpt>
      <trkpt lat="43.78932" lon="2.0954">
        <ele>236</ele>
        <time>2025-10-05T12:12:48.000Z</time>
      </trkpt>
      <trkpt lat="43.78937" lon="2.09535">
        <ele>236</ele>
        <time>2025-10-05T12:12:53.000Z</time>
      </trkpt>
      <trkpt lat="43.78941" lon="2.0953">
        <ele>236</ele>
        <time>2025-10-05T12:12:58.000Z</time>
      </trkpt>
      <trkpt lat="43.78946" lon="2.09524">
        <ele>236</ele>
        <time>2025-10-05T12:13:03.000Z</time>
      </trkpt>
      <trkpt lat="43.78951" lon="2.09518">
        <ele>236</ele>
        <time>2025-10-05T12:13:08.000Z</time>
      </trkpt>
      <trkpt lat="43.78956" lon="2.09513">
        <ele>235</ele>
        <time>2025-10-05T12:13:13.000Z</time>
      </trkpt>
      <trkpt lat="43.7896" lon="2.09508">
        <ele>236</ele>
        <time>2025-10-05T12:13:18.000Z</time>
      </trkpt>
      <trkpt lat="43.78964" lon="2.09503">
        <ele>237</ele>
        <time>2025-10-05T12:13:23.000Z</time>
      </trkpt>
      <trkpt lat="43.78969" lon="2.09497">
        <ele>237</ele>
        <time>2025-10-05T12:13:28.000Z</time>
      </trkpt>
      <trkpt lat="43.78974" lon="2.09494">
        <ele>237</ele>
        <time>2025-10-05T12:13:33.000Z</time>
      </trkpt>
      <trkpt lat="43.7898" lon="2.0949">
        <ele>237</ele>
        <time>2025-10-05T12:13:38.000Z</time>
      </trkpt>
      <trkpt lat="43.78985" lon="2.09486">
        <ele>236</ele>
        <time>2025-10-05T12:13:43.000Z</time>
      </trkpt>
      <trkpt lat="43.7899" lon="2.09482">
        <ele>236</ele>
        <time>2025-10-05T12:13:48.000Z</time>
      </trkpt>
      <trkpt lat="43.78995" lon="2.09478">
        <ele>235</ele>
        <time>2025-10-05T12:13:53.000Z</time>
      </trkpt>
      <trkpt lat="43.79001" lon="2.09475">
        <ele>235</ele>
        <time>2025-10-05T12:13:58.000Z</time>
      </trkpt>
      <trkpt lat="43.79005" lon="2.09472">
        <ele>234</ele>
        <time>2025-10-05T12:14:03.000Z</time>
      </trkpt>
      <trkpt lat="43.7901" lon="2.09468">
        <ele>234</ele>
        <time>2025-10-05T12:14:08.000Z</time>
      </trkpt>
      <trkpt lat="43.79014" lon="2.09464">
        <ele>235</ele>
        <time>2025-10-05T12:14:13.000Z</time>
      </trkpt>
      <trkpt lat="43.79019" lon="2.09462">
        <ele>234</ele>
        <time>2025-10-05T12:14:18.000Z</time>
      </trkpt>
      <trkpt lat="43.79024" lon="2.09458">
        <ele>233</ele>
        <time>2025-10-05T12:14:23.000Z</time>
      </trkpt>
      <trkpt lat="43.79029" lon="2.09452">
        <ele>233</ele>
        <time>2025-10-05T12:14:28.000Z</time>
      </trkpt>
      <trkpt lat="43.79034" lon="2.09448">
        <ele>233</ele>
        <time>2025-10-05T12:14:33.000Z</time>
      </trkpt>
      <trkpt lat="43.79039" lon="2.09442">
        <ele>234</ele>
        <time>2025-10-05T12:14:38.000Z</time>
      </trkpt>
      <trkpt lat="43.79045" lon="2.09437">
        <ele>236</ele>
        <time>2025-10-05T12:14:43.000Z</time>
      </trkpt>
      <trkpt lat="43.79048" lon="2.09431">
        <ele>237</ele>
        <time>2025-10-05T12:14:48.000Z</time>
      </trkpt>
      <trkpt lat="43.79052" lon="2.09424">
        <ele>238</ele>
        <time>2025-10-05T12:14:53.000Z</time>
      </trkpt>
      <trkpt lat="43.79058" lon="2.09419">
        <ele>238</ele>
        <time>2025-10-05T12:14:58.000Z</time>
      </trkpt>
      <trkpt lat="43.79061" lon="2.09413">
        <ele>239</ele>
        <time>2025-10-05T12:15:03.000Z</time>
      </trkpt>
      <trkpt lat="43.79066" lon="2.09409">
        <ele>239</ele>
        <time>2025-10-05T12:15:08.000Z</time>
      </trkpt>
      <trkpt lat="43.7907" lon="2.09405">
        <ele>240</ele>
        <time>2025-10-05T12:15:13.000Z</time>
      </trkpt>
      <trkpt lat="43.79075" lon="2.09401">
        <ele>241</ele>
        <time>2025-10-05T12:15:18.000Z</time>
      </trkpt>
      <trkpt lat="43.7908" lon="2.09398">
        <ele>240</ele>
        <time>2025-10-05T12:15:23.000Z</time>
      </trkpt>
      <trkpt lat="43.79085" lon="2.09393">
        <ele>240</ele>
        <time>2025-10-05T12:15:28.000Z</time>
      </trkpt>
      <trkpt lat="43.79089" lon="2.09388">
        <ele>240</ele>
        <time>2025-10-05T12:15:33.000Z</time>
      </trkpt>
      <trkpt lat="43.79094" lon="2.09386">
        <ele>240</ele>
        <time>2025-10-05T12:15:38.000Z</time>
      </trkpt>
      <trkpt lat="43.79099" lon="2.09383">
        <ele>239</ele>
        <time>2025-10-05T12:15:43.000Z</time>
      </trkpt>
      <trkpt lat="43.79099" lon="2.09384">
        <ele>240</ele>
        <time>2025-10-05T12:15:48.000Z</time>
      </trkpt>
      <trkpt lat="43.79099" lon="2.09384">
        <ele>240</ele>
        <time>2025-10-05T12:15:53.000Z</time>
      </trkpt>
      <trkpt lat="43.79099" lon="2.09384">
        <ele>240</ele>
        <time>2025-10-05T12:15:58.000Z</time>
      </trkpt>
      <trkpt lat="43.791" lon="2.09384">
        <ele>240</ele>
        <time>2025-10-05T12:16:03.000Z</time>
      </trkpt>
      <trkpt lat="43.79102" lon="2.09381">
        <ele>242</ele>
        <time>2025-10-05T12:16:08.000Z</time>
      </trkpt>
      <trkpt lat="43.79107" lon="2.09378">
        <ele>243</ele>
        <time>2025-10-05T12:16:13.000Z</time>
      </trkpt>
      <trkpt lat="43.79111" lon="2.09374">
        <ele>243</ele>
        <time>2025-10-05T12:16:18.000Z</time>
      </trkpt>
      <trkpt lat="43.79117" lon="2.09371">
        <ele>245</ele>
        <time>2025-10-05T12:16:23.000Z</time>
      </trkpt>
      <trkpt lat="43.79122" lon="2.09368">
        <ele>244</ele>
        <time>2025-10-05T12:16:28.000Z</time>
      </trkpt>
      <trkpt lat="43.79126" lon="2.09366">
        <ele>244</ele>
        <time>2025-10-05T12:16:33.000Z</time>
      </trkpt>
      <trkpt lat="43.79129" lon="2.09364">
        <ele>244</ele>
        <time>2025-10-05T12:16:38.000Z</time>
      </trkpt>
      <trkpt lat="43.79133" lon="2.09362">
        <ele>243</ele>
        <time>2025-10-05T12:16:43.000Z</time>
      </trkpt>
      <trkpt lat="43.79137" lon="2.09362">
        <ele>244</ele>
        <time>2025-10-05T12:16:48.000Z</time>
      </trkpt>
      <trkpt lat="43.79141" lon="2.09361">
        <ele>244</ele>
        <time>2025-10-05T12:16:53.000Z</time>
      </trkpt>
      <trkpt lat="43.79145" lon="2.09359">
        <ele>243</ele>
        <time>2025-10-05T12:16:58.000Z</time>
      </trkpt>
      <trkpt lat="43.7915" lon="2.09357">
        <ele>245</ele>
        <time>2025-10-05T12:17:03.000Z</time>
      </trkpt>
      <trkpt lat="43.79154" lon="2.09355">
        <ele>246</ele>
        <time>2025-10-05T12:17:08.000Z</time>
      </trkpt>
      <trkpt lat="43.79157" lon="2.09353">
        <ele>247</ele>
        <time>2025-10-05T12:17:13.000Z</time>
      </trkpt>
      <trkpt lat="43.79158" lon="2.09352">
        <ele>247</ele>
        <time>2025-10-05T12:17:18.000Z</time>
      </trkpt>
      <trkpt lat="43.79163" lon="2.0935">
        <ele>246</ele>
        <time>2025-10-05T12:17:23.000Z</time>
      </trkpt>
      <trkpt lat="43.79166" lon="2.09348">
        <ele>246</ele>
        <time>2025-10-05T12:17:28.000Z</time>
      </trkpt>
      <trkpt lat="43.7917" lon="2.09348">
        <ele>244</ele>
        <time>2025-10-05T12:17:33.000Z</time>
      </trkpt>
      <trkpt lat="43.79176" lon="2.09346">
        <ele>244</ele>
        <time>2025-10-05T12:17:38.000Z</time>
      </trkpt>
      <trkpt lat="43.79181" lon="2.09345">
        <ele>243</ele>
        <time>2025-10-05T12:17:43.000Z</time>
      </trkpt>
      <trkpt lat="43.79186" lon="2.09343">
        <ele>244</ele>
        <time>2025-10-05T12:17:48.000Z</time>
      </trkpt>
      <trkpt lat="43.79191" lon="2.09341">
        <ele>242</ele>
        <time>2025-10-05T12:17:53.000Z</time>
      </trkpt>
      <trkpt lat="43.79195" lon="2.0934">
        <ele>241</ele>
        <time>2025-10-05T12:17:58.000Z</time>
      </trkpt>
      <trkpt lat="43.792" lon="2.0934">
        <ele>242</ele>
        <time>2025-10-05T12:18:03.000Z</time>
      </trkpt>
      <trkpt lat="43.79205" lon="2.09341">
        <ele>241</ele>
        <time>2025-10-05T12:18:08.000Z</time>
      </trkpt>
      <trkpt lat="43.7921" lon="2.09342">
        <ele>240</ele>
        <time>2025-10-05T12:18:13.000Z</time>
      </trkpt>
      <trkpt lat="43.79215" lon="2.09342">
        <ele>242</ele>
        <time>2025-10-05T12:18:18.000Z</time>
      </trkpt>
      <trkpt lat="43.7922" lon="2.09344">
        <ele>242</ele>
        <time>2025-10-05T12:18:23.000Z</time>
      </trkpt>
      <trkpt lat="43.79226" lon="2.09346">
        <ele>243</ele>
        <time>2025-10-05T12:18:28.000Z</time>
      </trkpt>
      <trkpt lat="43.7923" lon="2.09348">
        <ele>242</ele>
        <time>2025-10-05T12:18:33.000Z</time>
      </trkpt>
      <trkpt lat="43.79235" lon="2.0935">
        <ele>242</ele>
        <time>2025-10-05T12:18:38.000Z</time>
      </trkpt>
      <trkpt lat="43.79241" lon="2.09351">
        <ele>243</ele>
        <time>2025-10-05T12:18:43.000Z</time>
      </trkpt>
      <trkpt lat="43.79247" lon="2.09352">
        <ele>244</ele>
        <time>2025-10-05T12:18:48.000Z</time>
      </trkpt>
      <trkpt lat="43.79252" lon="2.09352">
        <ele>243</ele>
        <time>2025-10-05T12:18:53.000Z</time>
      </trkpt>
      <trkpt lat="43.79255" lon="2.09352">
        <ele>242</ele>
        <time>2025-10-05T12:18:58.000Z</time>
      </trkpt>
      <trkpt lat="43.7926" lon="2.09352">
        <ele>240</ele>
        <time>2025-10-05T12:19:03.000Z</time>
      </trkpt>
      <trkpt lat="43.79265" lon="2.09353">
        <ele>239</ele>
        <time>2025-10-05T12:19:08.000Z</time>
      </trkpt>
      <trkpt lat="43.7927" lon="2.09354">
        <ele>240</ele>
        <time>2025-10-05T12:19:13.000Z</time>
      </trkpt>
      <trkpt lat="43.79275" lon="2.09354">
        <ele>240</ele>
        <time>2025-10-05T12:19:18.000Z</time>
      </trkpt>
      <trkpt lat="43.7928" lon="2.09355">
        <ele>241</ele>
        <time>2025-10-05T12:19:23.000Z</time>
      </trkpt>
      <trkpt lat="43.79287" lon="2.09356">
        <ele>243</ele>
        <time>2025-10-05T12:19:28.000Z</time>
      </trkpt>
      <trkpt lat="43.79295" lon="2.09357">
        <ele>245</ele>
        <time>2025-10-05T12:19:33.000Z</time>
      </trkpt>
      <trkpt lat="43.79298" lon="2.09357">
        <ele>244</ele>
        <time>2025-10-05T12:19:38.000Z</time>
      </trkpt>
      <trkpt lat="43.79304" lon="2.09359">
        <ele>244</ele>
        <time>2025-10-05T12:19:43.000Z</time>
      </trkpt>
      <trkpt lat="43.7931" lon="2.09364">
        <ele>244</ele>
        <time>2025-10-05T12:19:48.000Z</time>
      </trkpt>
      <trkpt lat="43.79314" lon="2.09367">
        <ele>243</ele>
        <time>2025-10-05T12:19:53.000Z</time>
      </trkpt>
      <trkpt lat="43.79321" lon="2.0937">
        <ele>245</ele>
        <time>2025-10-05T12:19:58.000Z</time>
      </trkpt>
      <trkpt lat="43.79327" lon="2.09373">
        <ele>246</ele>
        <time>2025-10-05T12:20:03.000Z</time>
      </trkpt>
      <trkpt lat="43.79333" lon="2.09377">
        <ele>248</ele>
        <time>2025-10-05T12:20:08.000Z</time>
      </trkpt>
      <trkpt lat="43.79339" lon="2.0938">
        <ele>249</ele>
        <time>2025-10-05T12:20:13.000Z</time>
      </trkpt>
      <trkpt lat="43.79344" lon="2.09383">
        <ele>248</ele>
        <time>2025-10-05T12:20:18.000Z</time>
      </trkpt>
      <trkpt lat="43.79349" lon="2.09387">
        <ele>249</ele>
        <time>2025-10-05T12:20:23.000Z</time>
      </trkpt>
      <trkpt lat="43.79354" lon="2.09389">
        <ele>252</ele>
        <time>2025-10-05T12:20:28.000Z</time>
      </trkpt>
      <trkpt lat="43.7936" lon="2.09393">
        <ele>253</ele>
        <time>2025-10-05T12:20:33.000Z</time>
      </trkpt>
      <trkpt lat="43.79365" lon="2.09396">
        <ele>253</ele>
        <time>2025-10-05T12:20:38.000Z</time>
      </trkpt>
      <trkpt lat="43.7937" lon="2.09398">
        <ele>253</ele>
        <time>2025-10-05T12:20:43.000Z</time>
      </trkpt>
      <trkpt lat="43.79374" lon="2.09399">
        <ele>253</ele>
        <time>2025-10-05T12:20:48.000Z</time>
      </trkpt>
      <trkpt lat="43.79378" lon="2.09399">
        <ele>254</ele>
        <time>2025-10-05T12:20:53.000Z</time>
      </trkpt>
      <trkpt lat="43.79384" lon="2.09398">
        <ele>253</ele>
        <time>2025-10-05T12:20:58.000Z</time>
      </trkpt>
      <trkpt lat="43.7939" lon="2.09397">
        <ele>253</ele>
        <time>2025-10-05T12:21:03.000Z</time>
      </trkpt>
      <trkpt lat="43.79394" lon="2.09396">
        <ele>253</ele>
        <time>2025-10-05T12:21:08.000Z</time>
      </trkpt>
      <trkpt lat="43.79398" lon="2.09394">
        <ele>252</ele>
        <time>2025-10-05T12:21:13.000Z</time>
      </trkpt>
      <trkpt lat="43.79401" lon="2.09393">
        <ele>252</ele>
        <time>2025-10-05T12:21:18.000Z</time>
      </trkpt>
      <trkpt lat="43.79404" lon="2.09389">
        <ele>252</ele>
        <time>2025-10-05T12:21:23.000Z</time>
      </trkpt>
      <trkpt lat="43.79406" lon="2.09387">
        <ele>252</ele>
        <time>2025-10-05T12:21:28.000Z</time>
      </trkpt>
      <trkpt lat="43.7941" lon="2.09385">
        <ele>250</ele>
        <time>2025-10-05T12:21:33.000Z</time>
      </trkpt>
      <trkpt lat="43.79413" lon="2.09383">
        <ele>250</ele>
        <time>2025-10-05T12:21:38.000Z</time>
      </trkpt>
      <trkpt lat="43.79418" lon="2.09381">
        <ele>248</ele>
        <time>2025-10-05T12:21:43.000Z</time>
      </trkpt>
      <trkpt lat="43.79422" lon="2.09378">
        <ele>249</ele>
        <time>2025-10-05T12:21:48.000Z</time>
      </trkpt>
      <trkpt lat="43.79425" lon="2.09375">
        <ele>248</ele>
        <time>2025-10-05T12:21:53.000Z</time>
      </trkpt>
      <trkpt lat="43.79426" lon="2.09367">
        <ele>248</ele>
        <time>2025-10-05T12:21:58.000Z</time>
      </trkpt>
      <trkpt lat="43.79428" lon="2.09364">
        <ele>250</ele>
        <time>2025-10-05T12:22:03.000Z</time>
      </trkpt>
      <trkpt lat="43.79433" lon="2.09362">
        <ele>249</ele>
        <time>2025-10-05T12:22:08.000Z</time>
      </trkpt>
      <trkpt lat="43.79438" lon="2.09358">
        <ele>248</ele>
        <time>2025-10-05T12:22:13.000Z</time>
      </trkpt>
      <trkpt lat="43.79441" lon="2.09356">
        <ele>247</ele>
        <time>2025-10-05T12:22:18.000Z</time>
      </trkpt>
      <trkpt lat="43.79446" lon="2.09353">
        <ele>247</ele>
        <time>2025-10-05T12:22:23.000Z</time>
      </trkpt>
      <trkpt lat="43.79451" lon="2.0935">
        <ele>247</ele>
        <time>2025-10-05T12:22:28.000Z</time>
      </trkpt>
      <trkpt lat="43.79457" lon="2.09348">
        <ele>247</ele>
        <time>2025-10-05T12:22:33.000Z</time>
      </trkpt>
      <trkpt lat="43.79462" lon="2.09345">
        <ele>246</ele>
        <time>2025-10-05T12:22:38.000Z</time>
      </trkpt>
      <trkpt lat="43.79467" lon="2.09342">
        <ele>247</ele>
        <time>2025-10-05T12:22:43.000Z</time>
      </trkpt>
      <trkpt lat="43.79473" lon="2.09339">
        <ele>246</ele>
        <time>2025-10-05T12:22:48.000Z</time>
      </trkpt>
      <trkpt lat="43.79478" lon="2.09335">
        <ele>246</ele>
        <time>2025-10-05T12:22:53.000Z</time>
      </trkpt>
      <trkpt lat="43.79483" lon="2.09332">
        <ele>246</ele>
        <time>2025-10-05T12:22:58.000Z</time>
      </trkpt>
      <trkpt lat="43.79486" lon="2.09326">
        <ele>246</ele>
        <time>2025-10-05T12:23:03.000Z</time>
      </trkpt>
      <trkpt lat="43.79489" lon="2.0932">
        <ele>247</ele>
        <time>2025-10-05T12:23:08.000Z</time>
      </trkpt>
      <trkpt lat="43.79496" lon="2.0931">
        <ele>250</ele>
        <time>2025-10-05T12:23:13.000Z</time>
      </trkpt>
      <trkpt lat="43.79502" lon="2.09304">
        <ele>253</ele>
        <time>2025-10-05T12:23:18.000Z</time>
      </trkpt>
      <trkpt lat="43.79506" lon="2.09294">
        <ele>258</ele>
        <time>2025-10-05T12:23:23.000Z</time>
      </trkpt>
      <trkpt lat="43.79511" lon="2.0929">
        <ele>259</ele>
        <time>2025-10-05T12:23:28.000Z</time>
      </trkpt>
      <trkpt lat="43.79514" lon="2.09285">
        <ele>260</ele>
        <time>2025-10-05T12:23:33.000Z</time>
      </trkpt>
      <trkpt lat="43.79518" lon="2.09282">
        <ele>260</ele>
        <time>2025-10-05T12:23:38.000Z</time>
      </trkpt>
      <trkpt lat="43.79522" lon="2.09278">
        <ele>261</ele>
        <time>2025-10-05T12:23:43.000Z</time>
      </trkpt>
      <trkpt lat="43.79525" lon="2.09271">
        <ele>262</ele>
        <time>2025-10-05T12:23:48.000Z</time>
      </trkpt>
      <trkpt lat="43.79528" lon="2.09267">
        <ele>262</ele>
        <time>2025-10-05T12:23:53.000Z</time>
      </trkpt>
      <trkpt lat="43.79533" lon="2.09266">
        <ele>263</ele>
        <time>2025-10-05T12:23:58.000Z</time>
      </trkpt>
      <trkpt lat="43.79537" lon="2.09262">
        <ele>262</ele>
        <time>2025-10-05T12:24:03.000Z</time>
      </trkpt>
      <trkpt lat="43.79543" lon="2.09259">
        <ele>262</ele>
        <time>2025-10-05T12:24:08.000Z</time>
      </trkpt>
      <trkpt lat="43.79547" lon="2.09256">
        <ele>263</ele>
        <time>2025-10-05T12:24:13.000Z</time>
      </trkpt>
      <trkpt lat="43.79549" lon="2.09256">
        <ele>264</ele>
        <time>2025-10-05T12:24:18.000Z</time>
      </trkpt>
      <trkpt lat="43.7955" lon="2.09254">
        <ele>263</ele>
        <time>2025-10-05T12:24:23.000Z</time>
      </trkpt>
      <trkpt lat="43.79551" lon="2.09255">
        <ele>263</ele>
        <time>2025-10-05T12:24:28.000Z</time>
      </trkpt>
      <trkpt lat="43.79551" lon="2.09254">
        <ele>265</ele>
        <time>2025-10-05T12:24:33.000Z</time>
      </trkpt>
      <trkpt lat="43.7955" lon="2.09255">
        <ele>264</ele>
        <time>2025-10-05T12:24:38.000Z</time>
      </trkpt>
      <trkpt lat="43.7955" lon="2.09255">
        <ele>264</ele>
        <time>2025-10-05T12:24:43.000Z</time>
      </trkpt>
      <trkpt lat="43.7955" lon="2.09255">
        <ele>264</ele>
        <time>2025-10-05T12:24:48.000Z</time>
      </trkpt>
      <trkpt lat="43.79551" lon="2.09256">
        <ele>263</ele>
        <time>2025-10-05T12:24:53.000Z</time>
      </trkpt>
      <trkpt lat="43.79552" lon="2.09257">
        <ele>262</ele>
        <time>2025-10-05T12:24:58.000Z</time>
      </trkpt>
      <trkpt lat="43.79552" lon="2.09257">
        <ele>262</ele>
        <time>2025-10-05T12:25:03.000Z</time>
      </trkpt>
      <trkpt lat="43.79552" lon="2.09257">
        <ele>263</ele>
        <time>2025-10-05T12:25:08.000Z</time>
      </trkpt>
      <trkpt lat="43.79552" lon="2.09257">
        <ele>263</ele>
        <time>2025-10-05T12:25:13.000Z</time>
      </trkpt>
      <trkpt lat="43.79552" lon="2.09257">
        <ele>262</ele>
        <time>2025-10-05T12:25:18.000Z</time>
      </trkpt>
      <trkpt lat="43.79553" lon="2.09256">
        <ele>262</ele>
        <time>2025-10-05T12:25:23.000Z</time>
      </trkpt>
      <trkpt lat="43.79553" lon="2.09255">
        <ele>262</ele>
        <time>2025-10-05T12:25:28.000Z</time>
      </trkpt>
      <trkpt lat="43.79553" lon="2.09255">
        <ele>262</ele>
        <time>2025-10-05T12:25:33.000Z</time>
      </trkpt>
      <trkpt lat="43.79553" lon="2.09255">
        <ele>262</ele>
        <time>2025-10-05T12:25:38.000Z</time>
      </trkpt>
      <trkpt lat="43.79553" lon="2.09255">
        <ele>262</ele>
        <time>2025-10-05T12:25:43.000Z</time>
      </trkpt>
      <trkpt lat="43.79553" lon="2.09255">
        <ele>262</ele>
        <time>2025-10-05T12:25:48.000Z</time>
      </trkpt>
      <trkpt lat="43.79553" lon="2.09255">
        <ele>262</ele>
        <time>2025-10-05T12:25:53.000Z</time>
      </trkpt>
      <trkpt lat="43.79554" lon="2.09257">
        <ele>263</ele>
        <time>2025-10-05T12:25:58.000Z</time>
      </trkpt>
      <trkpt lat="43.79554" lon="2.09257">
        <ele>262</ele>
        <time>2025-10-05T12:26:03.000Z</time>
      </trkpt>
      <trkpt lat="43.79553" lon="2.09258">
        <ele>264</ele>
        <time>2025-10-05T12:26:08.000Z</time>
      </trkpt>
      <trkpt lat="43.79553" lon="2.09258">
        <ele>264</ele>
        <time>2025-10-05T12:26:13.000Z</time>
      </trkpt>
      <trkpt lat="43.79554" lon="2.09258">
        <ele>263</ele>
        <time>2025-10-05T12:26:18.000Z</time>
      </trkpt>
      <trkpt lat="43.79553" lon="2.09257">
        <ele>264</ele>
        <time>2025-10-05T12:26:23.000Z</time>
      </trkpt>
      <trkpt lat="43.79558" lon="2.09254">
        <ele>264</ele>
        <time>2025-10-05T12:26:28.000Z</time>
      </trkpt>
      <trkpt lat="43.7956" lon="2.09251">
        <ele>265</ele>
        <time>2025-10-05T12:26:33.000Z</time>
      </trkpt>
      <trkpt lat="43.79566" lon="2.09249">
        <ele>264</ele>
        <time>2025-10-05T12:26:38.000Z</time>
      </trkpt>
      <trkpt lat="43.7957" lon="2.09246">
        <ele>264</ele>
        <time>2025-10-05T12:26:43.000Z</time>
      </trkpt>
      <trkpt lat="43.79573" lon="2.09242">
        <ele>266</ele>
        <time>2025-10-05T12:26:48.000Z</time>
      </trkpt>
      <trkpt lat="43.79577" lon="2.09237">
        <ele>265</ele>
        <time>2025-10-05T12:26:53.000Z</time>
      </trkpt>
      <trkpt lat="43.79581" lon="2.09234">
        <ele>264</ele>
        <time>2025-10-05T12:26:58.000Z</time>
      </trkpt>
      <trkpt lat="43.79585" lon="2.09229">
        <ele>264</ele>
        <time>2025-10-05T12:27:03.000Z</time>
      </trkpt>
      <trkpt lat="43.79589" lon="2.09225">
        <ele>264</ele>
        <time>2025-10-05T12:27:08.000Z</time>
      </trkpt>
      <trkpt lat="43.79595" lon="2.09222">
        <ele>264</ele>
        <time>2025-10-05T12:27:13.000Z</time>
      </trkpt>
      <trkpt lat="43.79601" lon="2.0922">
        <ele>262</ele>
        <time>2025-10-05T12:27:18.000Z</time>
      </trkpt>
      <trkpt lat="43.79607" lon="2.09215">
        <ele>263</ele>
        <time>2025-10-05T12:27:23.000Z</time>
      </trkpt>
      <trkpt lat="43.79612" lon="2.09211">
        <ele>264</ele>
        <time>2025-10-05T12:27:28.000Z</time>
      </trkpt>
      <trkpt lat="43.79616" lon="2.09209">
        <ele>264</ele>
        <time>2025-10-05T12:27:33.000Z</time>
      </trkpt>
      <trkpt lat="43.79621" lon="2.09205">
        <ele>264</ele>
        <time>2025-10-05T12:27:38.000Z</time>
      </trkpt>
      <trkpt lat="43.79625" lon="2.092">
        <ele>264</ele>
        <time>2025-10-05T12:27:43.000Z</time>
      </trkpt>
      <trkpt lat="43.79629" lon="2.09197">
        <ele>264</ele>
        <time>2025-10-05T12:27:48.000Z</time>
      </trkpt>
      <trkpt lat="43.79634" lon="2.09191">
        <ele>264</ele>
        <time>2025-10-05T12:27:53.000Z</time>
      </trkpt>
      <trkpt lat="43.79639" lon="2.09186">
        <ele>267</ele>
        <time>2025-10-05T12:27:58.000Z</time>
      </trkpt>
      <trkpt lat="43.79643" lon="2.09183">
        <ele>267</ele>
        <time>2025-10-05T12:28:03.000Z</time>
      </trkpt>
      <trkpt lat="43.79648" lon="2.0918">
        <ele>267</ele>
        <time>2025-10-05T12:28:08.000Z</time>
      </trkpt>
      <trkpt lat="43.79652" lon="2.09178">
        <ele>268</ele>
        <time>2025-10-05T12:28:13.000Z</time>
      </trkpt>
      <trkpt lat="43.79656" lon="2.09173">
        <ele>268</ele>
        <time>2025-10-05T12:28:18.000Z</time>
      </trkpt>
      <trkpt lat="43.7966" lon="2.09169">
        <ele>269</ele>
        <time>2025-10-05T12:28:23.000Z</time>
      </trkpt>
      <trkpt lat="43.79664" lon="2.09164">
        <ele>270</ele>
        <time>2025-10-05T12:28:28.000Z</time>
      </trkpt>
      <trkpt lat="43.79668" lon="2.0916">
        <ele>271</ele>
        <time>2025-10-05T12:28:33.000Z</time>
      </trkpt>
      <trkpt lat="43.7967" lon="2.09154">
        <ele>272</ele>
        <time>2025-10-05T12:28:38.000Z</time>
      </trkpt>
      <trkpt lat="43.79674" lon="2.0915">
        <ele>271</ele>
        <time>2025-10-05T12:28:43.000Z</time>
      </trkpt>
      <trkpt lat="43.79678" lon="2.09144">
        <ele>271</ele>
        <time>2025-10-05T12:28:48.000Z</time>
      </trkpt>
      <trkpt lat="43.79682" lon="2.0914">
        <ele>272</ele>
        <time>2025-10-05T12:28:53.000Z</time>
      </trkpt>
      <trkpt lat="43.79685" lon="2.09136">
        <ele>273</ele>
        <time>2025-10-05T12:28:58.000Z</time>
      </trkpt>
      <trkpt lat="43.79689" lon="2.09131">
        <ele>273</ele>
        <time>2025-10-05T12:29:03.000Z</time>
      </trkpt>
      <trkpt lat="43.79692" lon="2.09128">
        <ele>275</ele>
        <time>2025-10-05T12:29:08.000Z</time>
      </trkpt>
      <trkpt lat="43.79694" lon="2.09124">
        <ele>275</ele>
        <time>2025-10-05T12:29:13.000Z</time>
      </trkpt>
      <trkpt lat="43.79697" lon="2.09121">
        <ele>277</ele>
        <time>2025-10-05T12:29:18.000Z</time>
      </trkpt>
      <trkpt lat="43.79701" lon="2.09117">
        <ele>277</ele>
        <time>2025-10-05T12:29:23.000Z</time>
      </trkpt>
      <trkpt lat="43.79704" lon="2.09113">
        <ele>279</ele>
        <time>2025-10-05T12:29:28.000Z</time>
      </trkpt>
      <trkpt lat="43.79707" lon="2.0911">
        <ele>279</ele>
        <time>2025-10-05T12:29:33.000Z</time>
      </trkpt>
      <trkpt lat="43.79709" lon="2.09106">
        <ele>279</ele>
        <time>2025-10-05T12:29:38.000Z</time>
      </trkpt>
      <trkpt lat="43.79712" lon="2.09101">
        <ele>279</ele>
        <time>2025-10-05T12:29:43.000Z</time>
      </trkpt>
      <trkpt lat="43.79716" lon="2.09097">
        <ele>278</ele>
        <time>2025-10-05T12:29:48.000Z</time>
      </trkpt>
      <trkpt lat="43.79719" lon="2.09092">
        <ele>278</ele>
        <time>2025-10-05T12:29:53.000Z</time>
      </trkpt>
      <trkpt lat="43.79723" lon="2.09088">
        <ele>280</ele>
        <time>2025-10-05T12:29:58.000Z</time>
      </trkpt>
      <trkpt lat="43.79726" lon="2.09084">
        <ele>281</ele>
        <time>2025-10-05T12:30:03.000Z</time>
      </trkpt>
      <trkpt lat="43.79729" lon="2.0908">
        <ele>280</ele>
        <time>2025-10-05T12:30:08.000Z</time>
      </trkpt>
      <trkpt lat="43.7973" lon="2.09078">
        <ele>281</ele>
        <time>2025-10-05T12:30:13.000Z</time>
      </trkpt>
      <trkpt lat="43.7973" lon="2.09078">
        <ele>281</ele>
        <time>2025-10-05T12:30:18.000Z</time>
      </trkpt>
      <trkpt lat="43.79731" lon="2.09074">
        <ele>281</ele>
        <time>2025-10-05T12:30:23.000Z</time>
      </trkpt>
      <trkpt lat="43.79733" lon="2.09068">
        <ele>282</ele>
        <time>2025-10-05T12:30:28.000Z</time>
      </trkpt>
      <trkpt lat="43.79735" lon="2.09063">
        <ele>282</ele>
        <time>2025-10-05T12:30:33.000Z</time>
      </trkpt>
      <trkpt lat="43.79738" lon="2.09057">
        <ele>284</ele>
        <time>2025-10-05T12:30:38.000Z</time>
      </trkpt>
      <trkpt lat="43.79741" lon="2.09052">
        <ele>285</ele>
        <time>2025-10-05T12:30:43.000Z</time>
      </trkpt>
      <trkpt lat="43.79744" lon="2.09047">
        <ele>287</ele>
        <time>2025-10-05T12:30:48.000Z</time>
      </trkpt>
      <trkpt lat="43.79746" lon="2.0904">
        <ele>286</ele>
        <time>2025-10-05T12:30:53.000Z</time>
      </trkpt>
      <trkpt lat="43.79749" lon="2.09034">
        <ele>287</ele>
        <time>2025-10-05T12:30:58.000Z</time>
      </trkpt>
      <trkpt lat="43.79751" lon="2.09029">
        <ele>287</ele>
        <time>2025-10-05T12:31:03.000Z</time>
      </trkpt>
      <trkpt lat="43.79752" lon="2.09025">
        <ele>287</ele>
        <time>2025-10-05T12:31:08.000Z</time>
      </trkpt>
      <trkpt lat="43.79752" lon="2.09018">
        <ele>287</ele>
        <time>2025-10-05T12:31:13.000Z</time>
      </trkpt>
      <trkpt lat="43.79755" lon="2.09013">
        <ele>288</ele>
        <time>2025-10-05T12:31:18.000Z</time>
      </trkpt>
      <trkpt lat="43.79757" lon="2.09007">
        <ele>289</ele>
        <time>2025-10-05T12:31:23.000Z</time>
      </trkpt>
      <trkpt lat="43.79759" lon="2.09001">
        <ele>290</ele>
        <time>2025-10-05T12:31:28.000Z</time>
      </trkpt>
      <trkpt lat="43.79761" lon="2.08996">
        <ele>289</ele>
        <time>2025-10-05T12:31:33.000Z</time>
      </trkpt>
      <trkpt lat="43.79764" lon="2.08992">
        <ele>290</ele>
        <time>2025-10-05T12:31:38.000Z</time>
      </trkpt>
      <trkpt lat="43.79767" lon="2.08988">
        <ele>292</ele>
        <time>2025-10-05T12:31:43.000Z</time>
      </trkpt>
      <trkpt lat="43.79771" lon="2.08984">
        <ele>291</ele>
        <time>2025-10-05T12:31:48.000Z</time>
      </trkpt>
      <trkpt lat="43.79775" lon="2.08983">
        <ele>293</ele>
        <time>2025-10-05T12:31:53.000Z</time>
      </trkpt>
      <trkpt lat="43.79775" lon="2.08984">
        <ele>293</ele>
        <time>2025-10-05T12:31:58.000Z</time>
      </trkpt>
      <trkpt lat="43.79775" lon="2.08984">
        <ele>293</ele>
        <time>2025-10-05T12:32:03.000Z</time>
      </trkpt>
      <trkpt lat="43.79775" lon="2.08984">
        <ele>293</ele>
        <time>2025-10-05T12:32:08.000Z</time>
      </trkpt>
      <trkpt lat="43.79775" lon="2.08985">
        <ele>294</ele>
        <time>2025-10-05T12:32:13.000Z</time>
      </trkpt>
      <trkpt lat="43.79775" lon="2.08985">
        <ele>294</ele>
        <time>2025-10-05T12:32:18.000Z</time>
      </trkpt>
      <trkpt lat="43.79775" lon="2.08985">
        <ele>294</ele>
        <time>2025-10-05T12:32:23.000Z</time>
      </trkpt>
      <trkpt lat="43.79775" lon="2.08985">
        <ele>294</ele>
        <time>2025-10-05T12:32:28.000Z</time>
      </trkpt>
      <trkpt lat="43.79775" lon="2.08985">
        <ele>293</ele>
        <time>2025-10-05T12:32:33.000Z</time>
      </trkpt>
      <trkpt lat="43.7978" lon="2.08985">
        <ele>294</ele>
        <time>2025-10-05T12:32:38.000Z</time>
      </trkpt>
      <trkpt lat="43.79783" lon="2.08983">
        <ele>295</ele>
        <time>2025-10-05T12:32:43.000Z</time>
      </trkpt>
      <trkpt lat="43.79787" lon="2.08978">
        <ele>296</ele>
        <time>2025-10-05T12:32:48.000Z</time>
      </trkpt>
      <trkpt lat="43.7979" lon="2.08972">
        <ele>297</ele>
        <time>2025-10-05T12:32:53.000Z</time>
      </trkpt>
      <trkpt lat="43.79793" lon="2.08967">
        <ele>297</ele>
        <time>2025-10-05T12:32:58.000Z</time>
      </trkpt>
      <trkpt lat="43.79795" lon="2.08961">
        <ele>297</ele>
        <time>2025-10-05T12:33:03.000Z</time>
      </trkpt>
      <trkpt lat="43.79798" lon="2.08953">
        <ele>297</ele>
        <time>2025-10-05T12:33:08.000Z</time>
      </trkpt>
      <trkpt lat="43.79801" lon="2.08946">
        <ele>297</ele>
        <time>2025-10-05T12:33:13.000Z</time>
      </trkpt>
      <trkpt lat="43.79804" lon="2.08941">
        <ele>297</ele>
        <time>2025-10-05T12:33:18.000Z</time>
      </trkpt>
      <trkpt lat="43.79807" lon="2.08934">
        <ele>297</ele>
        <time>2025-10-05T12:33:23.000Z</time>
      </trkpt>
      <trkpt lat="43.79811" lon="2.08928">
        <ele>297</ele>
        <time>2025-10-05T12:33:28.000Z</time>
      </trkpt>
      <trkpt lat="43.79813" lon="2.08921">
        <ele>298</ele>
        <time>2025-10-05T12:33:33.000Z</time>
      </trkpt>
      <trkpt lat="43.79816" lon="2.08916">
        <ele>298</ele>
        <time>2025-10-05T12:33:38.000Z</time>
      </trkpt>
      <trkpt lat="43.79819" lon="2.0891">
        <ele>298</ele>
        <time>2025-10-05T12:33:43.000Z</time>
      </trkpt>
      <trkpt lat="43.79823" lon="2.08903">
        <ele>298</ele>
        <time>2025-10-05T12:33:48.000Z</time>
      </trkpt>
      <trkpt lat="43.79826" lon="2.08897">
        <ele>298</ele>
        <time>2025-10-05T12:33:53.000Z</time>
      </trkpt>
      <trkpt lat="43.7983" lon="2.0889">
        <ele>298</ele>
        <time>2025-10-05T12:33:58.000Z</time>
      </trkpt>
      <trkpt lat="43.79834" lon="2.08887">
        <ele>297</ele>
        <time>2025-10-05T12:34:03.000Z</time>
      </trkpt>
      <trkpt lat="43.79839" lon="2.08882">
        <ele>296</ele>
        <time>2025-10-05T12:34:08.000Z</time>
      </trkpt>
      <trkpt lat="43.79844" lon="2.08877">
        <ele>298</ele>
        <time>2025-10-05T12:34:13.000Z</time>
      </trkpt>
      <trkpt lat="43.79847" lon="2.08872">
        <ele>298</ele>
        <time>2025-10-05T12:34:18.000Z</time>
      </trkpt>
      <trkpt lat="43.79852" lon="2.08868">
        <ele>297</ele>
        <time>2025-10-05T12:34:23.000Z</time>
      </trkpt>
      <trkpt lat="43.79858" lon="2.08863">
        <ele>297</ele>
        <time>2025-10-05T12:34:28.000Z</time>
      </trkpt>
      <trkpt lat="43.79862" lon="2.08858">
        <ele>296</ele>
        <time>2025-10-05T12:34:33.000Z</time>
      </trkpt>
      <trkpt lat="43.79866" lon="2.08853">
        <ele>294</ele>
        <time>2025-10-05T12:34:38.000Z</time>
      </trkpt>
      <trkpt lat="43.79871" lon="2.08851">
        <ele>295</ele>
        <time>2025-10-05T12:34:43.000Z</time>
      </trkpt>
      <trkpt lat="43.79875" lon="2.08846">
        <ele>296</ele>
        <time>2025-10-05T12:34:48.000Z</time>
      </trkpt>
      <trkpt lat="43.7988" lon="2.08841">
        <ele>297</ele>
        <time>2025-10-05T12:34:53.000Z</time>
      </trkpt>
      <trkpt lat="43.79885" lon="2.08836">
        <ele>297</ele>
        <time>2025-10-05T12:34:58.000Z</time>
      </trkpt>
      <trkpt lat="43.79889" lon="2.08831">
        <ele>297</ele>
        <time>2025-10-05T12:35:03.000Z</time>
      </trkpt>
      <trkpt lat="43.79894" lon="2.08826">
        <ele>297</ele>
        <time>2025-10-05T12:35:08.000Z</time>
      </trkpt>
      <trkpt lat="43.79898" lon="2.08821">
        <ele>297</ele>
        <time>2025-10-05T12:35:13.000Z</time>
      </trkpt>
      <trkpt lat="43.79902" lon="2.08817">
        <ele>295</ele>
        <time>2025-10-05T12:35:18.000Z</time>
      </trkpt>
      <trkpt lat="43.79906" lon="2.08813">
        <ele>296</ele>
        <time>2025-10-05T12:35:23.000Z</time>
      </trkpt>
      <trkpt lat="43.79911" lon="2.08808">
        <ele>296</ele>
        <time>2025-10-05T12:35:28.000Z</time>
      </trkpt>
      <trkpt lat="43.79916" lon="2.08804">
        <ele>296</ele>
        <time>2025-10-05T12:35:33.000Z</time>
      </trkpt>
      <trkpt lat="43.79921" lon="2.08797">
        <ele>295</ele>
        <time>2025-10-05T12:35:38.000Z</time>
      </trkpt>
      <trkpt lat="43.79924" lon="2.08791">
        <ele>296</ele>
        <time>2025-10-05T12:35:43.000Z</time>
      </trkpt>
      <trkpt lat="43.79928" lon="2.08786">
        <ele>295</ele>
        <time>2025-10-05T12:35:48.000Z</time>
      </trkpt>
      <trkpt lat="43.79932" lon="2.0878">
        <ele>295</ele>
        <time>2025-10-05T12:35:53.000Z</time>
      </trkpt>
      <trkpt lat="43.79935" lon="2.08773">
        <ele>297</ele>
        <time>2025-10-05T12:35:58.000Z</time>
      </trkpt>
      <trkpt lat="43.79938" lon="2.08767">
        <ele>298</ele>
        <time>2025-10-05T12:36:03.000Z</time>
      </trkpt>
      <trkpt lat="43.79941" lon="2.08761">
        <ele>297</ele>
        <time>2025-10-05T12:36:08.000Z</time>
      </trkpt>
      <trkpt lat="43.79944" lon="2.08754">
        <ele>296</ele>
        <time>2025-10-05T12:36:13.000Z</time>
      </trkpt>
      <trkpt lat="43.79947" lon="2.08746">
        <ele>295</ele>
        <time>2025-10-05T12:36:18.000Z</time>
      </trkpt>
      <trkpt lat="43.79948" lon="2.08739">
        <ele>296</ele>
        <time>2025-10-05T12:36:23.000Z</time>
      </trkpt>
      <trkpt lat="43.79951" lon="2.08731">
        <ele>295</ele>
        <time>2025-10-05T12:36:28.000Z</time>
      </trkpt>
      <trkpt lat="43.79953" lon="2.08724">
        <ele>295</ele>
        <time>2025-10-05T12:36:33.000Z</time>
      </trkpt>
      <trkpt lat="43.79955" lon="2.08717">
        <ele>294</ele>
        <time>2025-10-05T12:36:38.000Z</time>
      </trkpt>
      <trkpt lat="43.79958" lon="2.0871">
        <ele>294</ele>
        <time>2025-10-05T12:36:43.000Z</time>
      </trkpt>
      <trkpt lat="43.79961" lon="2.08703">
        <ele>294</ele>
        <time>2025-10-05T12:36:48.000Z</time>
      </trkpt>
      <trkpt lat="43.79964" lon="2.08697">
        <ele>295</ele>
        <time>2025-10-05T12:36:53.000Z</time>
      </trkpt>
      <trkpt lat="43.79967" lon="2.0869">
        <ele>295</ele>
        <time>2025-10-05T12:36:58.000Z</time>
      </trkpt>
      <trkpt lat="43.79973" lon="2.08686">
        <ele>295</ele>
        <time>2025-10-05T12:37:03.000Z</time>
      </trkpt>
      <trkpt lat="43.79976" lon="2.08681">
        <ele>292</ele>
        <time>2025-10-05T12:37:08.000Z</time>
      </trkpt>
      <trkpt lat="43.79981" lon="2.08675">
        <ele>291</ele>
        <time>2025-10-05T12:37:13.000Z</time>
      </trkpt>
      <trkpt lat="43.79985" lon="2.0867">
        <ele>290</ele>
        <time>2025-10-05T12:37:18.000Z</time>
      </trkpt>
      <trkpt lat="43.79989" lon="2.08663">
        <ele>290</ele>
        <time>2025-10-05T12:37:23.000Z</time>
      </trkpt>
      <trkpt lat="43.79993" lon="2.08657">
        <ele>291</ele>
        <time>2025-10-05T12:37:28.000Z</time>
      </trkpt>
      <trkpt lat="43.79998" lon="2.0865">
        <ele>291</ele>
        <time>2025-10-05T12:37:33.000Z</time>
      </trkpt>
      <trkpt lat="43.80002" lon="2.08644">
        <ele>291</ele>
        <time>2025-10-05T12:37:38.000Z</time>
      </trkpt>
      <trkpt lat="43.80007" lon="2.08638">
        <ele>290</ele>
        <time>2025-10-05T12:37:43.000Z</time>
      </trkpt>
      <trkpt lat="43.80012" lon="2.08633">
        <ele>290</ele>
        <time>2025-10-05T12:37:48.000Z</time>
      </trkpt>
      <trkpt lat="43.80017" lon="2.08629">
        <ele>289</ele>
        <time>2025-10-05T12:37:53.000Z</time>
      </trkpt>
      <trkpt lat="43.80021" lon="2.08624">
        <ele>288</ele>
        <time>2025-10-05T12:37:58.000Z</time>
      </trkpt>
      <trkpt lat="43.80026" lon="2.08618">
        <ele>288</ele>
        <time>2025-10-05T12:38:03.000Z</time>
      </trkpt>
      <trkpt lat="43.80029" lon="2.08611">
        <ele>288</ele>
        <time>2025-10-05T12:38:08.000Z</time>
      </trkpt>
      <trkpt lat="43.80033" lon="2.08607">
        <ele>289</ele>
        <time>2025-10-05T12:38:13.000Z</time>
      </trkpt>
      <trkpt lat="43.80037" lon="2.08602">
        <ele>290</ele>
        <time>2025-10-05T12:38:18.000Z</time>
      </trkpt>
      <trkpt lat="43.8004" lon="2.08596">
        <ele>290</ele>
        <time>2025-10-05T12:38:23.000Z</time>
      </trkpt>
      <trkpt lat="43.80045" lon="2.08589">
        <ele>289</ele>
        <time>2025-10-05T12:38:28.000Z</time>
      </trkpt>
      <trkpt lat="43.8005" lon="2.08584">
        <ele>290</ele>
        <time>2025-10-05T12:38:33.000Z</time>
      </trkpt>
      <trkpt lat="43.80053" lon="2.08579">
        <ele>289</ele>
        <time>2025-10-05T12:38:38.000Z</time>
      </trkpt>
      <trkpt lat="43.80057" lon="2.08572">
        <ele>288</ele>
        <time>2025-10-05T12:38:43.000Z</time>
      </trkpt>
      <trkpt lat="43.80061" lon="2.08566">
        <ele>288</ele>
        <time>2025-10-05T12:38:48.000Z</time>
      </trkpt>
      <trkpt lat="43.80066" lon="2.08559">
        <ele>289</ele>
        <time>2025-10-05T12:38:53.000Z</time>
      </trkpt>
      <trkpt lat="43.8007" lon="2.08553">
        <ele>289</ele>
        <time>2025-10-05T12:38:58.000Z</time>
      </trkpt>
      <trkpt lat="43.80074" lon="2.08547">
        <ele>289</ele>
        <time>2025-10-05T12:39:03.000Z</time>
      </trkpt>
      <trkpt lat="43.80079" lon="2.08543">
        <ele>290</ele>
        <time>2025-10-05T12:39:08.000Z</time>
      </trkpt>
      <trkpt lat="43.80084" lon="2.0854">
        <ele>290</ele>
        <time>2025-10-05T12:39:13.000Z</time>
      </trkpt>
      <trkpt lat="43.80089" lon="2.08536">
        <ele>290</ele>
        <time>2025-10-05T12:39:18.000Z</time>
      </trkpt>
      <trkpt lat="43.80092" lon="2.0853">
        <ele>291</ele>
        <time>2025-10-05T12:39:23.000Z</time>
      </trkpt>
      <trkpt lat="43.80097" lon="2.08525">
        <ele>290</ele>
        <time>2025-10-05T12:39:28.000Z</time>
      </trkpt>
      <trkpt lat="43.80101" lon="2.0852">
        <ele>291</ele>
        <time>2025-10-05T12:39:33.000Z</time>
      </trkpt>
      <trkpt lat="43.80106" lon="2.08514">
        <ele>290</ele>
        <time>2025-10-05T12:39:38.000Z</time>
      </trkpt>
      <trkpt lat="43.80111" lon="2.08508">
        <ele>290</ele>
        <time>2025-10-05T12:39:43.000Z</time>
      </trkpt>
      <trkpt lat="43.80115" lon="2.08503">
        <ele>290</ele>
        <time>2025-10-05T12:39:48.000Z</time>
      </trkpt>
      <trkpt lat="43.80119" lon="2.08498">
        <ele>289</ele>
        <time>2025-10-05T12:39:53.000Z</time>
      </trkpt>
      <trkpt lat="43.80123" lon="2.08492">
        <ele>289</ele>
        <time>2025-10-05T12:39:58.000Z</time>
      </trkpt>
      <trkpt lat="43.80126" lon="2.08486">
        <ele>290</ele>
        <time>2025-10-05T12:40:03.000Z</time>
      </trkpt>
      <trkpt lat="43.80131" lon="2.0848">
        <ele>291</ele>
        <time>2025-10-05T12:40:08.000Z</time>
      </trkpt>
      <trkpt lat="43.80133" lon="2.08473">
        <ele>290</ele>
        <time>2025-10-05T12:40:13.000Z</time>
      </trkpt>
      <trkpt lat="43.80136" lon="2.08466">
        <ele>289</ele>
        <time>2025-10-05T12:40:18.000Z</time>
      </trkpt>
      <trkpt lat="43.8014" lon="2.08459">
        <ele>290</ele>
        <time>2025-10-05T12:40:23.000Z</time>
      </trkpt>
      <trkpt lat="43.80143" lon="2.08453">
        <ele>290</ele>
        <time>2025-10-05T12:40:28.000Z</time>
      </trkpt>
      <trkpt lat="43.80148" lon="2.08446">
        <ele>290</ele>
        <time>2025-10-05T12:40:33.000Z</time>
      </trkpt>
      <trkpt lat="43.80152" lon="2.08439">
        <ele>289</ele>
        <time>2025-10-05T12:40:38.000Z</time>
      </trkpt>
      <trkpt lat="43.80156" lon="2.08434">
        <ele>289</ele>
        <time>2025-10-05T12:40:43.000Z</time>
      </trkpt>
      <trkpt lat="43.8016" lon="2.08429">
        <ele>289</ele>
        <time>2025-10-05T12:40:48.000Z</time>
      </trkpt>
      <trkpt lat="43.80164" lon="2.08423">
        <ele>289</ele>
        <time>2025-10-05T12:40:53.000Z</time>
      </trkpt>
      <trkpt lat="43.80168" lon="2.08417">
        <ele>288</ele>
        <time>2025-10-05T12:40:58.000Z</time>
      </trkpt>
      <trkpt lat="43.80172" lon="2.08412">
        <ele>287</ele>
        <time>2025-10-05T12:41:03.000Z</time>
      </trkpt>
      <trkpt lat="43.80177" lon="2.08406">
        <ele>287</ele>
        <time>2025-10-05T12:41:08.000Z</time>
      </trkpt>
      <trkpt lat="43.80181" lon="2.08401">
        <ele>287</ele>
        <time>2025-10-05T12:41:13.000Z</time>
      </trkpt>
      <trkpt lat="43.80186" lon="2.08395">
        <ele>288</ele>
        <time>2025-10-05T12:41:18.000Z</time>
      </trkpt>
      <trkpt lat="43.80189" lon="2.08389">
        <ele>288</ele>
        <time>2025-10-05T12:41:23.000Z</time>
      </trkpt>
      <trkpt lat="43.80194" lon="2.08384">
        <ele>288</ele>
        <time>2025-10-05T12:41:28.000Z</time>
      </trkpt>
      <trkpt lat="43.80198" lon="2.08379">
        <ele>288</ele>
        <time>2025-10-05T12:41:33.000Z</time>
      </trkpt>
      <trkpt lat="43.80203" lon="2.08374">
        <ele>288</ele>
        <time>2025-10-05T12:41:38.000Z</time>
      </trkpt>
      <trkpt lat="43.80208" lon="2.08368">
        <ele>288</ele>
        <time>2025-10-05T12:41:43.000Z</time>
      </trkpt>
      <trkpt lat="43.80212" lon="2.08364">
        <ele>288</ele>
        <time>2025-10-05T12:41:48.000Z</time>
      </trkpt>
      <trkpt lat="43.80216" lon="2.08359">
        <ele>287</ele>
        <time>2025-10-05T12:41:53.000Z</time>
      </trkpt>
      <trkpt lat="43.8022" lon="2.08353">
        <ele>286</ele>
        <time>2025-10-05T12:41:58.000Z</time>
      </trkpt>
      <trkpt lat="43.80225" lon="2.08348">
        <ele>284</ele>
        <time>2025-10-05T12:42:03.000Z</time>
      </trkpt>
      <trkpt lat="43.8023" lon="2.08343">
        <ele>285</ele>
        <time>2025-10-05T12:42:08.000Z</time>
      </trkpt>
      <trkpt lat="43.80234" lon="2.0834">
        <ele>285</ele>
        <time>2025-10-05T12:42:13.000Z</time>
      </trkpt>
      <trkpt lat="43.8024" lon="2.08335">
        <ele>285</ele>
        <time>2025-10-05T12:42:18.000Z</time>
      </trkpt>
      <trkpt lat="43.80245" lon="2.0833">
        <ele>284</ele>
        <time>2025-10-05T12:42:23.000Z</time>
      </trkpt>
      <trkpt lat="43.80249" lon="2.08325">
        <ele>284</ele>
        <time>2025-10-05T12:42:28.000Z</time>
      </trkpt>
      <trkpt lat="43.80254" lon="2.08322">
        <ele>282</ele>
        <time>2025-10-05T12:42:33.000Z</time>
      </trkpt>
      <trkpt lat="43.80261" lon="2.08319">
        <ele>284</ele>
        <time>2025-10-05T12:42:38.000Z</time>
      </trkpt>
      <trkpt lat="43.80265" lon="2.08316">
        <ele>285</ele>
        <time>2025-10-05T12:42:43.000Z</time>
      </trkpt>
      <trkpt lat="43.8027" lon="2.08312">
        <ele>283</ele>
        <time>2025-10-05T12:42:48.000Z</time>
      </trkpt>
      <trkpt lat="43.80275" lon="2.08309">
        <ele>284</ele>
        <time>2025-10-05T12:42:53.000Z</time>
      </trkpt>
      <trkpt lat="43.8028" lon="2.08306">
        <ele>285</ele>
        <time>2025-10-05T12:42:58.000Z</time>
      </trkpt>
      <trkpt lat="43.80284" lon="2.08302">
        <ele>284</ele>
        <time>2025-10-05T12:43:03.000Z</time>
      </trkpt>
      <trkpt lat="43.80288" lon="2.08297">
        <ele>286</ele>
        <time>2025-10-05T12:43:08.000Z</time>
      </trkpt>
      <trkpt lat="43.80293" lon="2.08294">
        <ele>286</ele>
        <time>2025-10-05T12:43:13.000Z</time>
      </trkpt>
      <trkpt lat="43.80298" lon="2.0829">
        <ele>287</ele>
        <time>2025-10-05T12:43:18.000Z</time>
      </trkpt>
      <trkpt lat="43.80304" lon="2.08287">
        <ele>287</ele>
        <time>2025-10-05T12:43:23.000Z</time>
      </trkpt>
      <trkpt lat="43.80308" lon="2.08282">
        <ele>287</ele>
        <time>2025-10-05T12:43:28.000Z</time>
      </trkpt>
      <trkpt lat="43.80311" lon="2.0828">
        <ele>287</ele>
        <time>2025-10-05T12:43:33.000Z</time>
      </trkpt>
      <trkpt lat="43.80313" lon="2.08276">
        <ele>288</ele>
        <time>2025-10-05T12:43:38.000Z</time>
      </trkpt>
      <trkpt lat="43.80317" lon="2.08271">
        <ele>287</ele>
        <time>2025-10-05T12:43:43.000Z</time>
      </trkpt>
      <trkpt lat="43.8032" lon="2.08265">
        <ele>285</ele>
        <time>2025-10-05T12:43:48.000Z</time>
      </trkpt>
      <trkpt lat="43.80323" lon="2.08259">
        <ele>285</ele>
        <time>2025-10-05T12:43:53.000Z</time>
      </trkpt>
      <trkpt lat="43.80326" lon="2.08251">
        <ele>284</ele>
        <time>2025-10-05T12:43:58.000Z</time>
      </trkpt>
      <trkpt lat="43.8033" lon="2.08243">
        <ele>283</ele>
        <time>2025-10-05T12:44:03.000Z</time>
      </trkpt>
      <trkpt lat="43.80334" lon="2.08238">
        <ele>282</ele>
        <time>2025-10-05T12:44:08.000Z</time>
      </trkpt>
      <trkpt lat="43.80338" lon="2.08232">
        <ele>281</ele>
        <time>2025-10-05T12:44:13.000Z</time>
      </trkpt>
      <trkpt lat="43.80342" lon="2.08227">
        <ele>281</ele>
        <time>2025-10-05T12:44:18.000Z</time>
      </trkpt>
      <trkpt lat="43.80346" lon="2.08221">
        <ele>282</ele>
        <time>2025-10-05T12:44:23.000Z</time>
      </trkpt>
      <trkpt lat="43.8035" lon="2.08214">
        <ele>280</ele>
        <time>2025-10-05T12:44:28.000Z</time>
      </trkpt>
      <trkpt lat="43.80353" lon="2.08208">
        <ele>279</ele>
        <time>2025-10-05T12:44:33.000Z</time>
      </trkpt>
      <trkpt lat="43.80355" lon="2.08201">
        <ele>279</ele>
        <time>2025-10-05T12:44:38.000Z</time>
      </trkpt>
      <trkpt lat="43.80358" lon="2.08195">
        <ele>278</ele>
        <time>2025-10-05T12:44:43.000Z</time>
      </trkpt>
      <trkpt lat="43.80361" lon="2.08188">
        <ele>278</ele>
        <time>2025-10-05T12:44:48.000Z</time>
      </trkpt>
      <trkpt lat="43.80363" lon="2.08181">
        <ele>279</ele>
        <time>2025-10-05T12:44:53.000Z</time>
      </trkpt>
      <trkpt lat="43.80366" lon="2.08175">
        <ele>279</ele>
        <time>2025-10-05T12:44:58.000Z</time>
      </trkpt>
      <trkpt lat="43.80368" lon="2.08168">
        <ele>277</ele>
        <time>2025-10-05T12:45:03.000Z</time>
      </trkpt>
      <trkpt lat="43.8037" lon="2.0816">
        <ele>277</ele>
        <time>2025-10-05T12:45:08.000Z</time>
      </trkpt>
      <trkpt lat="43.80373" lon="2.08152">
        <ele>278</ele>
        <time>2025-10-05T12:45:13.000Z</time>
      </trkpt>
      <trkpt lat="43.80377" lon="2.08145">
        <ele>278</ele>
        <time>2025-10-05T12:45:18.000Z</time>
      </trkpt>
      <trkpt lat="43.80379" lon="2.08139">
        <ele>278</ele>
        <time>2025-10-05T12:45:23.000Z</time>
      </trkpt>
      <trkpt lat="43.80383" lon="2.08133">
        <ele>278</ele>
        <time>2025-10-05T12:45:28.000Z</time>
      </trkpt>
      <trkpt lat="43.80387" lon="2.08127">
        <ele>276</ele>
        <time>2025-10-05T12:45:33.000Z</time>
      </trkpt>
      <trkpt lat="43.80391" lon="2.0812">
        <ele>275</ele>
        <time>2025-10-05T12:45:38.000Z</time>
      </trkpt>
      <trkpt lat="43.80394" lon="2.08114">
        <ele>275</ele>
        <time>2025-10-05T12:45:43.000Z</time>
      </trkpt>
      <trkpt lat="43.80396" lon="2.08107">
        <ele>275</ele>
        <time>2025-10-05T12:45:48.000Z</time>
      </trkpt>
      <trkpt lat="43.80399" lon="2.08099">
        <ele>277</ele>
        <time>2025-10-05T12:45:53.000Z</time>
      </trkpt>
      <trkpt lat="43.80402" lon="2.08091">
        <ele>277</ele>
        <time>2025-10-05T12:45:58.000Z</time>
      </trkpt>
      <trkpt lat="43.80404" lon="2.08084">
        <ele>275</ele>
        <time>2025-10-05T12:46:03.000Z</time>
      </trkpt>
      <trkpt lat="43.80406" lon="2.08077">
        <ele>275</ele>
        <time>2025-10-05T12:46:08.000Z</time>
      </trkpt>
      <trkpt lat="43.80408" lon="2.08069">
        <ele>274</ele>
        <time>2025-10-05T12:46:13.000Z</time>
      </trkpt>
      <trkpt lat="43.80411" lon="2.08062">
        <ele>275</ele>
        <time>2025-10-05T12:46:18.000Z</time>
      </trkpt>
      <trkpt lat="43.80414" lon="2.08055">
        <ele>273</ele>
        <time>2025-10-05T12:46:23.000Z</time>
      </trkpt>
      <trkpt lat="43.80417" lon="2.08048">
        <ele>274</ele>
        <time>2025-10-05T12:46:28.000Z</time>
      </trkpt>
      <trkpt lat="43.8042" lon="2.0804">
        <ele>272</ele>
        <time>2025-10-05T12:46:33.000Z</time>
      </trkpt>
      <trkpt lat="43.80424" lon="2.08032">
        <ele>272</ele>
        <time>2025-10-05T12:46:38.000Z</time>
      </trkpt>
      <trkpt lat="43.80426" lon="2.08026">
        <ele>271</ele>
        <time>2025-10-05T12:46:43.000Z</time>
      </trkpt>
      <trkpt lat="43.80428" lon="2.08019">
        <ele>272</ele>
        <time>2025-10-05T12:46:48.000Z</time>
      </trkpt>
      <trkpt lat="43.80431" lon="2.08012">
        <ele>271</ele>
        <time>2025-10-05T12:46:53.000Z</time>
      </trkpt>
      <trkpt lat="43.80434" lon="2.08005">
        <ele>271</ele>
        <time>2025-10-05T12:46:58.000Z</time>
      </trkpt>
      <trkpt lat="43.80436" lon="2.07998">
        <ele>269</ele>
        <time>2025-10-05T12:47:03.000Z</time>
      </trkpt>
      <trkpt lat="43.80437" lon="2.07991">
        <ele>269</ele>
        <time>2025-10-05T12:47:08.000Z</time>
      </trkpt>
      <trkpt lat="43.80437" lon="2.07983">
        <ele>269</ele>
        <time>2025-10-05T12:47:13.000Z</time>
      </trkpt>
      <trkpt lat="43.80439" lon="2.07975">
        <ele>270</ele>
        <time>2025-10-05T12:47:18.000Z</time>
      </trkpt>
      <trkpt lat="43.80441" lon="2.07968">
        <ele>270</ele>
        <time>2025-10-05T12:47:23.000Z</time>
      </trkpt>
      <trkpt lat="43.80443" lon="2.07961">
        <ele>268</ele>
        <time>2025-10-05T12:47:28.000Z</time>
      </trkpt>
      <trkpt lat="43.80446" lon="2.07953">
        <ele>268</ele>
        <time>2025-10-05T12:47:33.000Z</time>
      </trkpt>
      <trkpt lat="43.80449" lon="2.07946">
        <ele>267</ele>
        <time>2025-10-05T12:47:38.000Z</time>
      </trkpt>
      <trkpt lat="43.80452" lon="2.07939">
        <ele>267</ele>
        <time>2025-10-05T12:47:43.000Z</time>
      </trkpt>
      <trkpt lat="43.80454" lon="2.07933">
        <ele>269</ele>
        <time>2025-10-05T12:47:48.000Z</time>
      </trkpt>
      <trkpt lat="43.80458" lon="2.07926">
        <ele>268</ele>
        <time>2025-10-05T12:47:53.000Z</time>
      </trkpt>
      <trkpt lat="43.8046" lon="2.0792">
        <ele>268</ele>
        <time>2025-10-05T12:47:58.000Z</time>
      </trkpt>
      <trkpt lat="43.80463" lon="2.07914">
        <ele>266</ele>
        <time>2025-10-05T12:48:03.000Z</time>
      </trkpt>
      <trkpt lat="43.80468" lon="2.07907">
        <ele>267</ele>
        <time>2025-10-05T12:48:08.000Z</time>
      </trkpt>
      <trkpt lat="43.80471" lon="2.07899">
        <ele>268</ele>
        <time>2025-10-05T12:48:13.000Z</time>
      </trkpt>
      <trkpt lat="43.80473" lon="2.07893">
        <ele>268</ele>
        <time>2025-10-05T12:48:18.000Z</time>
      </trkpt>
      <trkpt lat="43.80475" lon="2.07886">
        <ele>268</ele>
        <time>2025-10-05T12:48:23.000Z</time>
      </trkpt>
      <trkpt lat="43.80479" lon="2.07878">
        <ele>268</ele>
        <time>2025-10-05T12:48:28.000Z</time>
      </trkpt>
      <trkpt lat="43.80483" lon="2.07872">
        <ele>268</ele>
        <time>2025-10-05T12:48:33.000Z</time>
      </trkpt>
      <trkpt lat="43.80484" lon="2.07865">
        <ele>267</ele>
        <time>2025-10-05T12:48:38.000Z</time>
      </trkpt>
      <trkpt lat="43.80487" lon="2.07859">
        <ele>267</ele>
        <time>2025-10-05T12:48:43.000Z</time>
      </trkpt>
      <trkpt lat="43.8049" lon="2.07852">
        <ele>266</ele>
        <time>2025-10-05T12:48:48.000Z</time>
      </trkpt>
      <trkpt lat="43.80494" lon="2.07844">
        <ele>267</ele>
        <time>2025-10-05T12:48:53.000Z</time>
      </trkpt>
      <trkpt lat="43.80497" lon="2.07839">
        <ele>267</ele>
        <time>2025-10-05T12:48:58.000Z</time>
      </trkpt>
      <trkpt lat="43.805" lon="2.07832">
        <ele>267</ele>
        <time>2025-10-05T12:49:03.000Z</time>
      </trkpt>
      <trkpt lat="43.80502" lon="2.07825">
        <ele>267</ele>
        <time>2025-10-05T12:49:08.000Z</time>
      </trkpt>
      <trkpt lat="43.80505" lon="2.07818">
        <ele>269</ele>
        <time>2025-10-05T12:49:13.000Z</time>
      </trkpt>
      <trkpt lat="43.80507" lon="2.07812">
        <ele>269</ele>
        <time>2025-10-05T12:49:18.000Z</time>
      </trkpt>
      <trkpt lat="43.8051" lon="2.07805">
        <ele>270</ele>
        <time>2025-10-05T12:49:23.000Z</time>
      </trkpt>
      <trkpt lat="43.80512" lon="2.07802">
        <ele>268</ele>
        <time>2025-10-05T12:49:28.000Z</time>
      </trkpt>
      <trkpt lat="43.80512" lon="2.07802">
        <ele>268</ele>
        <time>2025-10-05T12:49:33.000Z</time>
      </trkpt>
      <trkpt lat="43.80512" lon="2.07802">
        <ele>267</ele>
        <time>2025-10-05T12:49:38.000Z</time>
      </trkpt>
      <trkpt lat="43.80514" lon="2.07798">
        <ele>267</ele>
        <time>2025-10-05T12:49:43.000Z</time>
      </trkpt>
      <trkpt lat="43.80516" lon="2.0779">
        <ele>269</ele>
        <time>2025-10-05T12:49:48.000Z</time>
      </trkpt>
      <trkpt lat="43.80519" lon="2.07782">
        <ele>269</ele>
        <time>2025-10-05T12:49:53.000Z</time>
      </trkpt>
      <trkpt lat="43.80523" lon="2.07776">
        <ele>269</ele>
        <time>2025-10-05T12:49:58.000Z</time>
      </trkpt>
      <trkpt lat="43.80525" lon="2.07768">
        <ele>269</ele>
        <time>2025-10-05T12:50:03.000Z</time>
      </trkpt>
      <trkpt lat="43.80528" lon="2.07762">
        <ele>269</ele>
        <time>2025-10-05T12:50:08.000Z</time>
      </trkpt>
      <trkpt lat="43.80531" lon="2.07756">
        <ele>267</ele>
        <time>2025-10-05T12:50:13.000Z</time>
      </trkpt>
      <trkpt lat="43.80535" lon="2.0775">
        <ele>266</ele>
        <time>2025-10-05T12:50:18.000Z</time>
      </trkpt>
      <trkpt lat="43.80538" lon="2.07743">
        <ele>266</ele>
        <time>2025-10-05T12:50:23.000Z</time>
      </trkpt>
      <trkpt lat="43.80543" lon="2.07736">
        <ele>266</ele>
        <time>2025-10-05T12:50:28.000Z</time>
      </trkpt>
      <trkpt lat="43.80546" lon="2.0773">
        <ele>265</ele>
        <time>2025-10-05T12:50:33.000Z</time>
      </trkpt>
      <trkpt lat="43.8055" lon="2.07723">
        <ele>264</ele>
        <time>2025-10-05T12:50:38.000Z</time>
      </trkpt>
      <trkpt lat="43.80553" lon="2.07717">
        <ele>263</ele>
        <time>2025-10-05T12:50:43.000Z</time>
      </trkpt>
      <trkpt lat="43.80558" lon="2.07711">
        <ele>261</ele>
        <time>2025-10-05T12:50:48.000Z</time>
      </trkpt>
      <trkpt lat="43.80563" lon="2.07705">
        <ele>261</ele>
        <time>2025-10-05T12:50:53.000Z</time>
      </trkpt>
      <trkpt lat="43.80568" lon="2.077">
        <ele>261</ele>
        <time>2025-10-05T12:50:58.000Z</time>
      </trkpt>
      <trkpt lat="43.80572" lon="2.07695">
        <ele>260</ele>
        <time>2025-10-05T12:51:03.000Z</time>
      </trkpt>
      <trkpt lat="43.80576" lon="2.0769">
        <ele>259</ele>
        <time>2025-10-05T12:51:08.000Z</time>
      </trkpt>
      <trkpt lat="43.80581" lon="2.07685">
        <ele>259</ele>
        <time>2025-10-05T12:51:13.000Z</time>
      </trkpt>
      <trkpt lat="43.80584" lon="2.07679">
        <ele>258</ele>
        <time>2025-10-05T12:51:18.000Z</time>
      </trkpt>
      <trkpt lat="43.80588" lon="2.07673">
        <ele>258</ele>
        <time>2025-10-05T12:51:23.000Z</time>
      </trkpt>
      <trkpt lat="43.80591" lon="2.07666">
        <ele>258</ele>
        <time>2025-10-05T12:51:28.000Z</time>
      </trkpt>
      <trkpt lat="43.80595" lon="2.07661">
        <ele>257</ele>
        <time>2025-10-05T12:51:33.000Z</time>
      </trkpt>
      <trkpt lat="43.80599" lon="2.0766">
        <ele>255</ele>
        <time>2025-10-05T12:51:38.000Z</time>
      </trkpt>
      <trkpt lat="43.80603" lon="2.07658">
        <ele>253</ele>
        <time>2025-10-05T12:51:43.000Z</time>
      </trkpt>
      <trkpt lat="43.8061" lon="2.07654">
        <ele>255</ele>
        <time>2025-10-05T12:51:48.000Z</time>
      </trkpt>
      <trkpt lat="43.80616" lon="2.0765">
        <ele>256</ele>
        <time>2025-10-05T12:51:53.000Z</time>
      </trkpt>
      <trkpt lat="43.80622" lon="2.07644">
        <ele>256</ele>
        <time>2025-10-05T12:51:58.000Z</time>
      </trkpt>
      <trkpt lat="43.80627" lon="2.07641">
        <ele>255</ele>
        <time>2025-10-05T12:52:03.000Z</time>
      </trkpt>
      <trkpt lat="43.80632" lon="2.07637">
        <ele>255</ele>
        <time>2025-10-05T12:52:08.000Z</time>
      </trkpt>
      <trkpt lat="43.80637" lon="2.07632">
        <ele>255</ele>
        <time>2025-10-05T12:52:13.000Z</time>
      </trkpt>
      <trkpt lat="43.80642" lon="2.07629">
        <ele>254</ele>
        <time>2025-10-05T12:52:18.000Z</time>
      </trkpt>
      <trkpt lat="43.80647" lon="2.07625">
        <ele>254</ele>
        <time>2025-10-05T12:52:23.000Z</time>
      </trkpt>
      <trkpt lat="43.80651" lon="2.07621">
        <ele>254</ele>
        <time>2025-10-05T12:52:28.000Z</time>
      </trkpt>
      <trkpt lat="43.80656" lon="2.07618">
        <ele>257</ele>
        <time>2025-10-05T12:52:33.000Z</time>
      </trkpt>
      <trkpt lat="43.80661" lon="2.07613">
        <ele>255</ele>
        <time>2025-10-05T12:52:38.000Z</time>
      </trkpt>
      <trkpt lat="43.80667" lon="2.07609">
        <ele>255</ele>
        <time>2025-10-05T12:52:43.000Z</time>
      </trkpt>
      <trkpt lat="43.80672" lon="2.07607">
        <ele>254</ele>
        <time>2025-10-05T12:52:48.000Z</time>
      </trkpt>
      <trkpt lat="43.80678" lon="2.07602">
        <ele>255</ele>
        <time>2025-10-05T12:52:53.000Z</time>
      </trkpt>
      <trkpt lat="43.80683" lon="2.07599">
        <ele>254</ele>
        <time>2025-10-05T12:52:58.000Z</time>
      </trkpt>
      <trkpt lat="43.80689" lon="2.07595">
        <ele>254</ele>
        <time>2025-10-05T12:53:03.000Z</time>
      </trkpt>
      <trkpt lat="43.80695" lon="2.07592">
        <ele>254</ele>
        <time>2025-10-05T12:53:08.000Z</time>
      </trkpt>
      <trkpt lat="43.807" lon="2.07586">
        <ele>253</ele>
        <time>2025-10-05T12:53:13.000Z</time>
      </trkpt>
      <trkpt lat="43.80706" lon="2.07582">
        <ele>255</ele>
        <time>2025-10-05T12:53:18.000Z</time>
      </trkpt>
      <trkpt lat="43.80712" lon="2.07579">
        <ele>254</ele>
        <time>2025-10-05T12:53:23.000Z</time>
      </trkpt>
      <trkpt lat="43.80716" lon="2.07575">
        <ele>254</ele>
        <time>2025-10-05T12:53:28.000Z</time>
      </trkpt>
      <trkpt lat="43.80721" lon="2.07571">
        <ele>254</ele>
        <time>2025-10-05T12:53:33.000Z</time>
      </trkpt>
      <trkpt lat="43.80726" lon="2.07567">
        <ele>254</ele>
        <time>2025-10-05T12:53:38.000Z</time>
      </trkpt>
      <trkpt lat="43.8073" lon="2.07564">
        <ele>256</ele>
        <time>2025-10-05T12:53:43.000Z</time>
      </trkpt>
      <trkpt lat="43.80736" lon="2.0756">
        <ele>256</ele>
        <time>2025-10-05T12:53:48.000Z</time>
      </trkpt>
      <trkpt lat="43.8074" lon="2.07557">
        <ele>254</ele>
        <time>2025-10-05T12:53:53.000Z</time>
      </trkpt>
      <trkpt lat="43.80746" lon="2.07552">
        <ele>254</ele>
        <time>2025-10-05T12:53:58.000Z</time>
      </trkpt>
      <trkpt lat="43.80751" lon="2.07547">
        <ele>253</ele>
        <time>2025-10-05T12:54:03.000Z</time>
      </trkpt>
      <trkpt lat="43.80756" lon="2.07544">
        <ele>252</ele>
        <time>2025-10-05T12:54:08.000Z</time>
      </trkpt>
      <trkpt lat="43.8076" lon="2.0754">
        <ele>251</ele>
        <time>2025-10-05T12:54:13.000Z</time>
      </trkpt>
      <trkpt lat="43.80764" lon="2.07536">
        <ele>251</ele>
        <time>2025-10-05T12:54:18.000Z</time>
      </trkpt>
      <trkpt lat="43.80768" lon="2.07531">
        <ele>252</ele>
        <time>2025-10-05T12:54:23.000Z</time>
      </trkpt>
      <trkpt lat="43.80773" lon="2.07526">
        <ele>253</ele>
        <time>2025-10-05T12:54:28.000Z</time>
      </trkpt>
      <trkpt lat="43.80778" lon="2.07522">
        <ele>254</ele>
        <time>2025-10-05T12:54:33.000Z</time>
      </trkpt>
      <trkpt lat="43.80784" lon="2.07516">
        <ele>253</ele>
        <time>2025-10-05T12:54:38.000Z</time>
      </trkpt>
      <trkpt lat="43.8079" lon="2.07512">
        <ele>252</ele>
        <time>2025-10-05T12:54:43.000Z</time>
      </trkpt>
      <trkpt lat="43.80795" lon="2.07507">
        <ele>252</ele>
        <time>2025-10-05T12:54:48.000Z</time>
      </trkpt>
      <trkpt lat="43.808" lon="2.07502">
        <ele>252</ele>
        <time>2025-10-05T12:54:53.000Z</time>
      </trkpt>
      <trkpt lat="43.80805" lon="2.07498">
        <ele>254</ele>
        <time>2025-10-05T12:54:58.000Z</time>
      </trkpt>
      <trkpt lat="43.8081" lon="2.07494">
        <ele>254</ele>
        <time>2025-10-05T12:55:03.000Z</time>
      </trkpt>
      <trkpt lat="43.80816" lon="2.07491">
        <ele>254</ele>
        <time>2025-10-05T12:55:08.000Z</time>
      </trkpt>
      <trkpt lat="43.80821" lon="2.07487">
        <ele>253</ele>
        <time>2025-10-05T12:55:13.000Z</time>
      </trkpt>
      <trkpt lat="43.80826" lon="2.07483">
        <ele>251</ele>
        <time>2025-10-05T12:55:18.000Z</time>
      </trkpt>
      <trkpt lat="43.80831" lon="2.07479">
        <ele>250</ele>
        <time>2025-10-05T12:55:23.000Z</time>
      </trkpt>
      <trkpt lat="43.80835" lon="2.07474">
        <ele>249</ele>
        <time>2025-10-05T12:55:28.000Z</time>
      </trkpt>
      <trkpt lat="43.8084" lon="2.0747">
        <ele>249</ele>
        <time>2025-10-05T12:55:33.000Z</time>
      </trkpt>
      <trkpt lat="43.80843" lon="2.07465">
        <ele>249</ele>
        <time>2025-10-05T12:55:38.000Z</time>
      </trkpt>
      <trkpt lat="43.80849" lon="2.0746">
        <ele>248</ele>
        <time>2025-10-05T12:55:43.000Z</time>
      </trkpt>
      <trkpt lat="43.80851" lon="2.07454">
        <ele>249</ele>
        <time>2025-10-05T12:55:48.000Z</time>
      </trkpt>
      <trkpt lat="43.80856" lon="2.07451">
        <ele>249</ele>
        <time>2025-10-05T12:55:53.000Z</time>
      </trkpt>
      <trkpt lat="43.80861" lon="2.07445">
        <ele>248</ele>
        <time>2025-10-05T12:55:58.000Z</time>
      </trkpt>
      <trkpt lat="43.80865" lon="2.07441">
        <ele>249</ele>
        <time>2025-10-05T12:56:03.000Z</time>
      </trkpt>
      <trkpt lat="43.80871" lon="2.07436">
        <ele>249</ele>
        <time>2025-10-05T12:56:08.000Z</time>
      </trkpt>
      <trkpt lat="43.80875" lon="2.07432">
        <ele>249</ele>
        <time>2025-10-05T12:56:13.000Z</time>
      </trkpt>
      <trkpt lat="43.8088" lon="2.07428">
        <ele>248</ele>
        <time>2025-10-05T12:56:18.000Z</time>
      </trkpt>
      <trkpt lat="43.80882" lon="2.07427">
        <ele>249</ele>
        <time>2025-10-05T12:56:23.000Z</time>
      </trkpt>
      <trkpt lat="43.80883" lon="2.07424">
        <ele>248</ele>
        <time>2025-10-05T12:56:28.000Z</time>
      </trkpt>
      <trkpt lat="43.80886" lon="2.07419">
        <ele>249</ele>
        <time>2025-10-05T12:56:33.000Z</time>
      </trkpt>
      <trkpt lat="43.8089" lon="2.07421">
        <ele>249</ele>
        <time>2025-10-05T12:56:38.000Z</time>
      </trkpt>
      <trkpt lat="43.80893" lon="2.07428">
        <ele>249</ele>
        <time>2025-10-05T12:56:43.000Z</time>
      </trkpt>
      <trkpt lat="43.80895" lon="2.07433">
        <ele>248</ele>
        <time>2025-10-05T12:56:48.000Z</time>
      </trkpt>
      <trkpt lat="43.80896" lon="2.07439">
        <ele>248</ele>
        <time>2025-10-05T12:56:53.000Z</time>
      </trkpt>
      <trkpt lat="43.80898" lon="2.07447">
        <ele>249</ele>
        <time>2025-10-05T12:56:58.000Z</time>
      </trkpt>
      <trkpt lat="43.809" lon="2.07453">
        <ele>250</ele>
        <time>2025-10-05T12:57:03.000Z</time>
      </trkpt>
      <trkpt lat="43.80903" lon="2.07461">
        <ele>249</ele>
        <time>2025-10-05T12:57:08.000Z</time>
      </trkpt>
      <trkpt lat="43.80905" lon="2.07469">
        <ele>249</ele>
        <time>2025-10-05T12:57:13.000Z</time>
      </trkpt>
      <trkpt lat="43.80907" lon="2.07475">
        <ele>248</ele>
        <time>2025-10-05T12:57:18.000Z</time>
      </trkpt>
      <trkpt lat="43.8091" lon="2.07483">
        <ele>248</ele>
        <time>2025-10-05T12:57:23.000Z</time>
      </trkpt>
      <trkpt lat="43.80913" lon="2.07491">
        <ele>247</ele>
        <time>2025-10-05T12:57:28.000Z</time>
      </trkpt>
      <trkpt lat="43.80915" lon="2.07498">
        <ele>249</ele>
        <time>2025-10-05T12:57:33.000Z</time>
      </trkpt>
      <trkpt lat="43.80917" lon="2.07505">
        <ele>250</ele>
        <time>2025-10-05T12:57:38.000Z</time>
      </trkpt>
      <trkpt lat="43.8092" lon="2.07513">
        <ele>252</ele>
        <time>2025-10-05T12:57:43.000Z</time>
      </trkpt>
      <trkpt lat="43.80922" lon="2.0752">
        <ele>252</ele>
        <time>2025-10-05T12:57:48.000Z</time>
      </trkpt>
      <trkpt lat="43.80925" lon="2.07528">
        <ele>251</ele>
        <time>2025-10-05T12:57:53.000Z</time>
      </trkpt>
      <trkpt lat="43.80927" lon="2.07537">
        <ele>250</ele>
        <time>2025-10-05T12:57:58.000Z</time>
      </trkpt>
      <trkpt lat="43.80928" lon="2.07543">
        <ele>250</ele>
        <time>2025-10-05T12:58:03.000Z</time>
      </trkpt>
      <trkpt lat="43.80931" lon="2.0755">
        <ele>249</ele>
        <time>2025-10-05T12:58:08.000Z</time>
      </trkpt>
      <trkpt lat="43.80933" lon="2.07557">
        <ele>249</ele>
        <time>2025-10-05T12:58:13.000Z</time>
      </trkpt>
      <trkpt lat="43.80935" lon="2.07565">
        <ele>249</ele>
        <time>2025-10-05T12:58:18.000Z</time>
      </trkpt>
      <trkpt lat="43.80937" lon="2.07572">
        <ele>250</ele>
        <time>2025-10-05T12:58:23.000Z</time>
      </trkpt>
      <trkpt lat="43.80939" lon="2.0758">
        <ele>251</ele>
        <time>2025-10-05T12:58:28.000Z</time>
      </trkpt>
      <trkpt lat="43.80941" lon="2.07587">
        <ele>250</ele>
        <time>2025-10-05T12:58:33.000Z</time>
      </trkpt>
      <trkpt lat="43.80943" lon="2.07596">
        <ele>250</ele>
        <time>2025-10-05T12:58:38.000Z</time>
      </trkpt>
      <trkpt lat="43.80945" lon="2.07605">
        <ele>250</ele>
        <time>2025-10-05T12:58:43.000Z</time>
      </trkpt>
      <trkpt lat="43.80946" lon="2.07613">
        <ele>250</ele>
        <time>2025-10-05T12:58:48.000Z</time>
      </trkpt>
      <trkpt lat="43.80946" lon="2.07622">
        <ele>249</ele>
        <time>2025-10-05T12:58:53.000Z</time>
      </trkpt>
      <trkpt lat="43.80946" lon="2.0763">
        <ele>248</ele>
        <time>2025-10-05T12:58:58.000Z</time>
      </trkpt>
      <trkpt lat="43.80944" lon="2.07637">
        <ele>249</ele>
        <time>2025-10-05T12:59:03.000Z</time>
      </trkpt>
      <trkpt lat="43.80942" lon="2.07645">
        <ele>250</ele>
        <time>2025-10-05T12:59:08.000Z</time>
      </trkpt>
      <trkpt lat="43.80941" lon="2.07654">
        <ele>248</ele>
        <time>2025-10-05T12:59:13.000Z</time>
      </trkpt>
      <trkpt lat="43.80941" lon="2.07661">
        <ele>248</ele>
        <time>2025-10-05T12:59:18.000Z</time>
      </trkpt>
      <trkpt lat="43.80941" lon="2.07667">
        <ele>248</ele>
        <time>2025-10-05T12:59:23.000Z</time>
      </trkpt>
      <trkpt lat="43.80941" lon="2.07676">
        <ele>248</ele>
        <time>2025-10-05T12:59:28.000Z</time>
      </trkpt>
      <trkpt lat="43.80941" lon="2.07684">
        <ele>247</ele>
        <time>2025-10-05T12:59:33.000Z</time>
      </trkpt>
      <trkpt lat="43.80943" lon="2.07691">
        <ele>247</ele>
        <time>2025-10-05T12:59:38.000Z</time>
      </trkpt>
      <trkpt lat="43.80946" lon="2.07699">
        <ele>247</ele>
        <time>2025-10-05T12:59:43.000Z</time>
      </trkpt>
      <trkpt lat="43.80948" lon="2.07706">
        <ele>248</ele>
        <time>2025-10-05T12:59:48.000Z</time>
      </trkpt>
      <trkpt lat="43.80951" lon="2.07713">
        <ele>248</ele>
        <time>2025-10-05T12:59:53.000Z</time>
      </trkpt>
      <trkpt lat="43.80954" lon="2.07723">
        <ele>248</ele>
        <time>2025-10-05T12:59:58.000Z</time>
      </trkpt>
      <trkpt lat="43.80957" lon="2.07729">
        <ele>248</ele>
        <time>2025-10-05T13:00:03.000Z</time>
      </trkpt>
      <trkpt lat="43.8096" lon="2.07737">
        <ele>247</ele>
        <time>2025-10-05T13:00:08.000Z</time>
      </trkpt>
      <trkpt lat="43.80961" lon="2.07745">
        <ele>248</ele>
        <time>2025-10-05T13:00:13.000Z</time>
      </trkpt>
      <trkpt lat="43.80963" lon="2.07753">
        <ele>248</ele>
        <time>2025-10-05T13:00:18.000Z</time>
      </trkpt>
      <trkpt lat="43.80963" lon="2.07762">
        <ele>249</ele>
        <time>2025-10-05T13:00:23.000Z</time>
      </trkpt>
      <trkpt lat="43.80962" lon="2.0777">
        <ele>248</ele>
        <time>2025-10-05T13:00:28.000Z</time>
      </trkpt>
      <trkpt lat="43.80959" lon="2.07779">
        <ele>247</ele>
        <time>2025-10-05T13:00:33.000Z</time>
      </trkpt>
      <trkpt lat="43.80957" lon="2.07786">
        <ele>246</ele>
        <time>2025-10-05T13:00:38.000Z</time>
      </trkpt>
      <trkpt lat="43.80956" lon="2.07792">
        <ele>245</ele>
        <time>2025-10-05T13:00:43.000Z</time>
      </trkpt>
      <trkpt lat="43.80955" lon="2.07791">
        <ele>244</ele>
        <time>2025-10-05T13:00:48.000Z</time>
      </trkpt>
      <trkpt lat="43.80955" lon="2.07791">
        <ele>243</ele>
        <time>2025-10-05T13:00:53.000Z</time>
      </trkpt>
      <trkpt lat="43.8095" lon="2.07793">
        <ele>244</ele>
        <time>2025-10-05T13:00:58.000Z</time>
      </trkpt>
      <trkpt lat="43.80946" lon="2.07795">
        <ele>243</ele>
        <time>2025-10-05T13:01:03.000Z</time>
      </trkpt>
      <trkpt lat="43.80943" lon="2.07801">
        <ele>244</ele>
        <time>2025-10-05T13:01:08.000Z</time>
      </trkpt>
      <trkpt lat="43.80937" lon="2.07805">
        <ele>244</ele>
        <time>2025-10-05T13:01:13.000Z</time>
      </trkpt>
      <trkpt lat="43.80934" lon="2.07807">
        <ele>244</ele>
        <time>2025-10-05T13:01:18.000Z</time>
      </trkpt>
      <trkpt lat="43.80929" lon="2.0781">
        <ele>245</ele>
        <time>2025-10-05T13:01:23.000Z</time>
      </trkpt>
      <trkpt lat="43.80925" lon="2.07811">
        <ele>244</ele>
        <time>2025-10-05T13:01:28.000Z</time>
      </trkpt>
      <trkpt lat="43.80923" lon="2.07814">
        <ele>245</ele>
        <time>2025-10-05T13:01:33.000Z</time>
      </trkpt>
      <trkpt lat="43.80918" lon="2.07817">
        <ele>244</ele>
        <time>2025-10-05T13:01:38.000Z</time>
      </trkpt>
      <trkpt lat="43.80913" lon="2.0782">
        <ele>245</ele>
        <time>2025-10-05T13:01:43.000Z</time>
      </trkpt>
      <trkpt lat="43.80908" lon="2.07824">
        <ele>245</ele>
        <time>2025-10-05T13:01:48.000Z</time>
      </trkpt>
      <trkpt lat="43.80904" lon="2.07828">
        <ele>246</ele>
        <time>2025-10-05T13:01:53.000Z</time>
      </trkpt>
      <trkpt lat="43.809" lon="2.07833">
        <ele>249</ele>
        <time>2025-10-05T13:01:58.000Z</time>
      </trkpt>
      <trkpt lat="43.80896" lon="2.07835">
        <ele>249</ele>
        <time>2025-10-05T13:02:03.000Z</time>
      </trkpt>
      <trkpt lat="43.80893" lon="2.07839">
        <ele>248</ele>
        <time>2025-10-05T13:02:08.000Z</time>
      </trkpt>
      <trkpt lat="43.80888" lon="2.07844">
        <ele>248</ele>
        <time>2025-10-05T13:02:13.000Z</time>
      </trkpt>
      <trkpt lat="43.80883" lon="2.07846">
        <ele>248</ele>
        <time>2025-10-05T13:02:18.000Z</time>
      </trkpt>
      <trkpt lat="43.80879" lon="2.0785">
        <ele>249</ele>
        <time>2025-10-05T13:02:23.000Z</time>
      </trkpt>
      <trkpt lat="43.80875" lon="2.07854">
        <ele>248</ele>
        <time>2025-10-05T13:02:28.000Z</time>
      </trkpt>
      <trkpt lat="43.8087" lon="2.07859">
        <ele>247</ele>
        <time>2025-10-05T13:02:33.000Z</time>
      </trkpt>
      <trkpt lat="43.80864" lon="2.07864">
        <ele>249</ele>
        <time>2025-10-05T13:02:38.000Z</time>
      </trkpt>
      <trkpt lat="43.8086" lon="2.07868">
        <ele>249</ele>
        <time>2025-10-05T13:02:43.000Z</time>
      </trkpt>
      <trkpt lat="43.80855" lon="2.07873">
        <ele>250</ele>
        <time>2025-10-05T13:02:48.000Z</time>
      </trkpt>
      <trkpt lat="43.80852" lon="2.07877">
        <ele>251</ele>
        <time>2025-10-05T13:02:53.000Z</time>
      </trkpt>
      <trkpt lat="43.80848" lon="2.07882">
        <ele>253</ele>
        <time>2025-10-05T13:02:58.000Z</time>
      </trkpt>
      <trkpt lat="43.80845" lon="2.07886">
        <ele>252</ele>
        <time>2025-10-05T13:03:03.000Z</time>
      </trkpt>
      <trkpt lat="43.80841" lon="2.07892">
        <ele>252</ele>
        <time>2025-10-05T13:03:08.000Z</time>
      </trkpt>
      <trkpt lat="43.80836" lon="2.07897">
        <ele>251</ele>
        <time>2025-10-05T13:03:13.000Z</time>
      </trkpt>
      <trkpt lat="43.80832" lon="2.07903">
        <ele>252</ele>
        <time>2025-10-05T13:03:18.000Z</time>
      </trkpt>
      <trkpt lat="43.80829" lon="2.07908">
        <ele>251</ele>
        <time>2025-10-05T13:03:23.000Z</time>
      </trkpt>
      <trkpt lat="43.80826" lon="2.07913">
        <ele>252</ele>
        <time>2025-10-05T13:03:28.000Z</time>
      </trkpt>
      <trkpt lat="43.80823" lon="2.07918">
        <ele>251</ele>
        <time>2025-10-05T13:03:33.000Z</time>
      </trkpt>
      <trkpt lat="43.8082" lon="2.07925">
        <ele>250</ele>
        <time>2025-10-05T13:03:38.000Z</time>
      </trkpt>
      <trkpt lat="43.80816" lon="2.07931">
        <ele>249</ele>
        <time>2025-10-05T13:03:43.000Z</time>
      </trkpt>
      <trkpt lat="43.80814" lon="2.07938">
        <ele>249</ele>
        <time>2025-10-05T13:03:48.000Z</time>
      </trkpt>
      <trkpt lat="43.8081" lon="2.07946">
        <ele>248</ele>
        <time>2025-10-05T13:03:53.000Z</time>
      </trkpt>
      <trkpt lat="43.80807" lon="2.07949">
        <ele>249</ele>
        <time>2025-10-05T13:03:58.000Z</time>
      </trkpt>
      <trkpt lat="43.80804" lon="2.07956">
        <ele>250</ele>
        <time>2025-10-05T13:04:03.000Z</time>
      </trkpt>
      <trkpt lat="43.80801" lon="2.07961">
        <ele>250</ele>
        <time>2025-10-05T13:04:08.000Z</time>
      </trkpt>
      <trkpt lat="43.80799" lon="2.07965">
        <ele>250</ele>
        <time>2025-10-05T13:04:13.000Z</time>
      </trkpt>
      <trkpt lat="43.80798" lon="2.07968">
        <ele>249</ele>
        <time>2025-10-05T13:04:18.000Z</time>
      </trkpt>
      <trkpt lat="43.80793" lon="2.07974">
        <ele>248</ele>
        <time>2025-10-05T13:04:23.000Z</time>
      </trkpt>
      <trkpt lat="43.80787" lon="2.07981">
        <ele>249</ele>
        <time>2025-10-05T13:04:28.000Z</time>
      </trkpt>
      <trkpt lat="43.80783" lon="2.07987">
        <ele>248</ele>
        <time>2025-10-05T13:04:33.000Z</time>
      </trkpt>
      <trkpt lat="43.80778" lon="2.07992">
        <ele>248</ele>
        <time>2025-10-05T13:04:38.000Z</time>
      </trkpt>
      <trkpt lat="43.80775" lon="2.07998">
        <ele>249</ele>
        <time>2025-10-05T13:04:43.000Z</time>
      </trkpt>
      <trkpt lat="43.80771" lon="2.08004">
        <ele>250</ele>
        <time>2025-10-05T13:04:48.000Z</time>
      </trkpt>
      <trkpt lat="43.80767" lon="2.0801">
        <ele>251</ele>
        <time>2025-10-05T13:04:53.000Z</time>
      </trkpt>
      <trkpt lat="43.80763" lon="2.08013">
        <ele>249</ele>
        <time>2025-10-05T13:04:58.000Z</time>
      </trkpt>
      <trkpt lat="43.80758" lon="2.08018">
        <ele>248</ele>
        <time>2025-10-05T13:05:03.000Z</time>
      </trkpt>
      <trkpt lat="43.80753" lon="2.08024">
        <ele>249</ele>
        <time>2025-10-05T13:05:08.000Z</time>
      </trkpt>
      <trkpt lat="43.80749" lon="2.08029">
        <ele>248</ele>
        <time>2025-10-05T13:05:13.000Z</time>
      </trkpt>
      <trkpt lat="43.80746" lon="2.08034">
        <ele>247</ele>
        <time>2025-10-05T13:05:18.000Z</time>
      </trkpt>
      <trkpt lat="43.80743" lon="2.08041">
        <ele>247</ele>
        <time>2025-10-05T13:05:23.000Z</time>
      </trkpt>
      <trkpt lat="43.8074" lon="2.08048">
        <ele>247</ele>
        <time>2025-10-05T13:05:28.000Z</time>
      </trkpt>
      <trkpt lat="43.80738" lon="2.08053">
        <ele>248</ele>
        <time>2025-10-05T13:05:33.000Z</time>
      </trkpt>
      <trkpt lat="43.80736" lon="2.08059">
        <ele>249</ele>
        <time>2025-10-05T13:05:38.000Z</time>
      </trkpt>
      <trkpt lat="43.80732" lon="2.08065">
        <ele>248</ele>
        <time>2025-10-05T13:05:43.000Z</time>
      </trkpt>
      <trkpt lat="43.80729" lon="2.08071">
        <ele>250</ele>
        <time>2025-10-05T13:05:48.000Z</time>
      </trkpt>
      <trkpt lat="43.80726" lon="2.08077">
        <ele>250</ele>
        <time>2025-10-05T13:05:53.000Z</time>
      </trkpt>
      <trkpt lat="43.80724" lon="2.08083">
        <ele>249</ele>
        <time>2025-10-05T13:05:58.000Z</time>
      </trkpt>
      <trkpt lat="43.80722" lon="2.0809">
        <ele>250</ele>
        <time>2025-10-05T13:06:03.000Z</time>
      </trkpt>
      <trkpt lat="43.8072" lon="2.08097">
        <ele>249</ele>
        <time>2025-10-05T13:06:08.000Z</time>
      </trkpt>
      <trkpt lat="43.80719" lon="2.08105">
        <ele>248</ele>
        <time>2025-10-05T13:06:13.000Z</time>
      </trkpt>
      <trkpt lat="43.80717" lon="2.08111">
        <ele>249</ele>
        <time>2025-10-05T13:06:18.000Z</time>
      </trkpt>
      <trkpt lat="43.80714" lon="2.08117">
        <ele>250</ele>
        <time>2025-10-05T13:06:23.000Z</time>
      </trkpt>
      <trkpt lat="43.80712" lon="2.08123">
        <ele>250</ele>
        <time>2025-10-05T13:06:28.000Z</time>
      </trkpt>
      <trkpt lat="43.8071" lon="2.0813">
        <ele>248</ele>
        <time>2025-10-05T13:06:33.000Z</time>
      </trkpt>
      <trkpt lat="43.80707" lon="2.08137">
        <ele>249</ele>
        <time>2025-10-05T13:06:38.000Z</time>
      </trkpt>
      <trkpt lat="43.80705" lon="2.08144">
        <ele>247</ele>
        <time>2025-10-05T13:06:43.000Z</time>
      </trkpt>
      <trkpt lat="43.80702" lon="2.08151">
        <ele>246</ele>
        <time>2025-10-05T13:06:48.000Z</time>
      </trkpt>
      <trkpt lat="43.80701" lon="2.08157">
        <ele>246</ele>
        <time>2025-10-05T13:06:53.000Z</time>
      </trkpt>
      <trkpt lat="43.80699" lon="2.08166">
        <ele>246</ele>
        <time>2025-10-05T13:06:58.000Z</time>
      </trkpt>
      <trkpt lat="43.80697" lon="2.08166">
        <ele>247</ele>
        <time>2025-10-05T13:07:03.000Z</time>
      </trkpt>
      <trkpt lat="43.80697" lon="2.08166">
        <ele>247</ele>
        <time>2025-10-05T13:07:08.000Z</time>
      </trkpt>
      <trkpt lat="43.80696" lon="2.08167">
        <ele>246</ele>
        <time>2025-10-05T13:07:13.000Z</time>
      </trkpt>
      <trkpt lat="43.80696" lon="2.08167">
        <ele>246</ele>
        <time>2025-10-05T13:07:18.000Z</time>
      </trkpt>
      <trkpt lat="43.80695" lon="2.08168">
        <ele>246</ele>
        <time>2025-10-05T13:07:23.000Z</time>
      </trkpt>
      <trkpt lat="43.80692" lon="2.08172">
        <ele>244</ele>
        <time>2025-10-05T13:07:28.000Z</time>
      </trkpt>
      <trkpt lat="43.8069" lon="2.08177">
        <ele>244</ele>
        <time>2025-10-05T13:07:33.000Z</time>
      </trkpt>
      <trkpt lat="43.80689" lon="2.0818">
        <ele>244</ele>
        <time>2025-10-05T13:07:38.000Z</time>
      </trkpt>
      <trkpt lat="43.80689" lon="2.0818">
        <ele>244</ele>
        <time>2025-10-05T13:07:43.000Z</time>
      </trkpt>
      <trkpt lat="43.80691" lon="2.08187">
        <ele>244</ele>
        <time>2025-10-05T13:07:48.000Z</time>
      </trkpt>
      <trkpt lat="43.80689" lon="2.08194">
        <ele>244</ele>
        <time>2025-10-05T13:07:53.000Z</time>
      </trkpt>
      <trkpt lat="43.80688" lon="2.08201">
        <ele>245</ele>
        <time>2025-10-05T13:07:58.000Z</time>
      </trkpt>
      <trkpt lat="43.80688" lon="2.08208">
        <ele>244</ele>
        <time>2025-10-05T13:08:03.000Z</time>
      </trkpt>
      <trkpt lat="43.80686" lon="2.08215">
        <ele>244</ele>
        <time>2025-10-05T13:08:08.000Z</time>
      </trkpt>
      <trkpt lat="43.80685" lon="2.0822">
        <ele>244</ele>
        <time>2025-10-05T13:08:13.000Z</time>
      </trkpt>
      <trkpt lat="43.80684" lon="2.08222">
        <ele>246</ele>
        <time>2025-10-05T13:08:18.000Z</time>
      </trkpt>
      <trkpt lat="43.80684" lon="2.08224">
        <ele>246</ele>
        <time>2025-10-05T13:08:23.000Z</time>
      </trkpt>
      <trkpt lat="43.80683" lon="2.08228">
        <ele>245</ele>
        <time>2025-10-05T13:08:28.000Z</time>
      </trkpt>
      <trkpt lat="43.80682" lon="2.08234">
        <ele>246</ele>
        <time>2025-10-05T13:08:33.000Z</time>
      </trkpt>
      <trkpt lat="43.80678" lon="2.08238">
        <ele>245</ele>
        <time>2025-10-05T13:08:38.000Z</time>
      </trkpt>
      <trkpt lat="43.80675" lon="2.08242">
        <ele>245</ele>
        <time>2025-10-05T13:08:43.000Z</time>
      </trkpt>
      <trkpt lat="43.80671" lon="2.08246">
        <ele>246</ele>
        <time>2025-10-05T13:08:48.000Z</time>
      </trkpt>
      <trkpt lat="43.80666" lon="2.08249">
        <ele>246</ele>
        <time>2025-10-05T13:08:53.000Z</time>
      </trkpt>
      <trkpt lat="43.8066" lon="2.0825">
        <ele>246</ele>
        <time>2025-10-05T13:08:58.000Z</time>
      </trkpt>
      <trkpt lat="43.80657" lon="2.08252">
        <ele>248</ele>
        <time>2025-10-05T13:09:03.000Z</time>
      </trkpt>
      <trkpt lat="43.80651" lon="2.08254">
        <ele>247</ele>
        <time>2025-10-05T13:09:08.000Z</time>
      </trkpt>
      <trkpt lat="43.80649" lon="2.08253">
        <ele>247</ele>
        <time>2025-10-05T13:09:13.000Z</time>
      </trkpt>
      <trkpt lat="43.80648" lon="2.08254">
        <ele>248</ele>
        <time>2025-10-05T13:09:18.000Z</time>
      </trkpt>
      <trkpt lat="43.80645" lon="2.08255">
        <ele>248</ele>
        <time>2025-10-05T13:09:23.000Z</time>
      </trkpt>
      <trkpt lat="43.80642" lon="2.08257">
        <ele>247</ele>
        <time>2025-10-05T13:09:28.000Z</time>
      </trkpt>
      <trkpt lat="43.80639" lon="2.0826">
        <ele>247</ele>
        <time>2025-10-05T13:09:33.000Z</time>
      </trkpt>
      <trkpt lat="43.80637" lon="2.08265">
        <ele>246</ele>
        <time>2025-10-05T13:09:38.000Z</time>
      </trkpt>
      <trkpt lat="43.80633" lon="2.08273">
        <ele>247</ele>
        <time>2025-10-05T13:09:43.000Z</time>
      </trkpt>
      <trkpt lat="43.8063" lon="2.0828">
        <ele>246</ele>
        <time>2025-10-05T13:09:48.000Z</time>
      </trkpt>
      <trkpt lat="43.80627" lon="2.08282">
        <ele>247</ele>
        <time>2025-10-05T13:09:53.000Z</time>
      </trkpt>
      <trkpt lat="43.80627" lon="2.08282">
        <ele>247</ele>
        <time>2025-10-05T13:09:58.000Z</time>
      </trkpt>
      <trkpt lat="43.80627" lon="2.08281">
        <ele>247</ele>
        <time>2025-10-05T13:10:03.000Z</time>
      </trkpt>
      <trkpt lat="43.80627" lon="2.08284">
        <ele>247</ele>
        <time>2025-10-05T13:10:08.000Z</time>
      </trkpt>
      <trkpt lat="43.80624" lon="2.08291">
        <ele>246</ele>
        <time>2025-10-05T13:10:13.000Z</time>
      </trkpt>
      <trkpt lat="43.8062" lon="2.08298">
        <ele>246</ele>
        <time>2025-10-05T13:10:18.000Z</time>
      </trkpt>
      <trkpt lat="43.80616" lon="2.08305">
        <ele>248</ele>
        <time>2025-10-05T13:10:23.000Z</time>
      </trkpt>
      <trkpt lat="43.80613" lon="2.08312">
        <ele>248</ele>
        <time>2025-10-05T13:10:28.000Z</time>
      </trkpt>
      <trkpt lat="43.80609" lon="2.08318">
        <ele>249</ele>
        <time>2025-10-05T13:10:33.000Z</time>
      </trkpt>
      <trkpt lat="43.80606" lon="2.08322">
        <ele>250</ele>
        <time>2025-10-05T13:10:38.000Z</time>
      </trkpt>
      <trkpt lat="43.80602" lon="2.08328">
        <ele>251</ele>
        <time>2025-10-05T13:10:43.000Z</time>
      </trkpt>
      <trkpt lat="43.80598" lon="2.08332">
        <ele>249</ele>
        <time>2025-10-05T13:10:48.000Z</time>
      </trkpt>
      <trkpt lat="43.80598" lon="2.08334">
        <ele>251</ele>
        <time>2025-10-05T13:10:53.000Z</time>
      </trkpt>
      <trkpt lat="43.80595" lon="2.0834">
        <ele>252</ele>
        <time>2025-10-05T13:10:58.000Z</time>
      </trkpt>
      <trkpt lat="43.80592" lon="2.08347">
        <ele>252</ele>
        <time>2025-10-05T13:11:03.000Z</time>
      </trkpt>
      <trkpt lat="43.8059" lon="2.08352">
        <ele>251</ele>
        <time>2025-10-05T13:11:08.000Z</time>
      </trkpt>
      <trkpt lat="43.80587" lon="2.08358">
        <ele>250</ele>
        <time>2025-10-05T13:11:13.000Z</time>
      </trkpt>
      <trkpt lat="43.80585" lon="2.08363">
        <ele>249</ele>
        <time>2025-10-05T13:11:18.000Z</time>
      </trkpt>
      <trkpt lat="43.80582" lon="2.0837">
        <ele>248</ele>
        <time>2025-10-05T13:11:23.000Z</time>
      </trkpt>
      <trkpt lat="43.80581" lon="2.08377">
        <ele>247</ele>
        <time>2025-10-05T13:11:28.000Z</time>
      </trkpt>
      <trkpt lat="43.8058" lon="2.08386">
        <ele>247</ele>
        <time>2025-10-05T13:11:33.000Z</time>
      </trkpt>
      <trkpt lat="43.80582" lon="2.08394">
        <ele>248</ele>
        <time>2025-10-05T13:11:38.000Z</time>
      </trkpt>
      <trkpt lat="43.80586" lon="2.084">
        <ele>248</ele>
        <time>2025-10-05T13:11:43.000Z</time>
      </trkpt>
      <trkpt lat="43.8059" lon="2.08404">
        <ele>247</ele>
        <time>2025-10-05T13:11:48.000Z</time>
      </trkpt>
      <trkpt lat="43.80595" lon="2.08408">
        <ele>247</ele>
        <time>2025-10-05T13:11:53.000Z</time>
      </trkpt>
      <trkpt lat="43.806" lon="2.08414">
        <ele>244</ele>
        <time>2025-10-05T13:11:58.000Z</time>
      </trkpt>
      <trkpt lat="43.80605" lon="2.08418">
        <ele>245</ele>
        <time>2025-10-05T13:12:03.000Z</time>
      </trkpt>
      <trkpt lat="43.8061" lon="2.08423">
        <ele>246</ele>
        <time>2025-10-05T13:12:08.000Z</time>
      </trkpt>
      <trkpt lat="43.80615" lon="2.08426">
        <ele>246</ele>
        <time>2025-10-05T13:12:13.000Z</time>
      </trkpt>
      <trkpt lat="43.80618" lon="2.08429">
        <ele>247</ele>
        <time>2025-10-05T13:12:18.000Z</time>
      </trkpt>
      <trkpt lat="43.80623" lon="2.08432">
        <ele>248</ele>
        <time>2025-10-05T13:12:23.000Z</time>
      </trkpt>
      <trkpt lat="43.80629" lon="2.08437">
        <ele>247</ele>
        <time>2025-10-05T13:12:28.000Z</time>
      </trkpt>
      <trkpt lat="43.80635" lon="2.0844">
        <ele>247</ele>
        <time>2025-10-05T13:12:33.000Z</time>
      </trkpt>
      <trkpt lat="43.80641" lon="2.08444">
        <ele>248</ele>
        <time>2025-10-05T13:12:38.000Z</time>
      </trkpt>
      <trkpt lat="43.80644" lon="2.08449">
        <ele>248</ele>
        <time>2025-10-05T13:12:43.000Z</time>
      </trkpt>
      <trkpt lat="43.80647" lon="2.08455">
        <ele>248</ele>
        <time>2025-10-05T13:12:48.000Z</time>
      </trkpt>
      <trkpt lat="43.80649" lon="2.0846">
        <ele>249</ele>
        <time>2025-10-05T13:12:53.000Z</time>
      </trkpt>
      <trkpt lat="43.80649" lon="2.08466">
        <ele>248</ele>
        <time>2025-10-05T13:12:58.000Z</time>
      </trkpt>
      <trkpt lat="43.80648" lon="2.08474">
        <ele>248</ele>
        <time>2025-10-05T13:13:03.000Z</time>
      </trkpt>
      <trkpt lat="43.80647" lon="2.08481">
        <ele>248</ele>
        <time>2025-10-05T13:13:08.000Z</time>
      </trkpt>
      <trkpt lat="43.80647" lon="2.08487">
        <ele>248</ele>
        <time>2025-10-05T13:13:13.000Z</time>
      </trkpt>
      <trkpt lat="43.80644" lon="2.08493">
        <ele>248</ele>
        <time>2025-10-05T13:13:18.000Z</time>
      </trkpt>
      <trkpt lat="43.80642" lon="2.085">
        <ele>248</ele>
        <time>2025-10-05T13:13:23.000Z</time>
      </trkpt>
      <trkpt lat="43.8064" lon="2.08507">
        <ele>248</ele>
        <time>2025-10-05T13:13:28.000Z</time>
      </trkpt>
      <trkpt lat="43.80637" lon="2.08513">
        <ele>249</ele>
        <time>2025-10-05T13:13:33.000Z</time>
      </trkpt>
      <trkpt lat="43.80635" lon="2.0852">
        <ele>251</ele>
        <time>2025-10-05T13:13:38.000Z</time>
      </trkpt>
      <trkpt lat="43.80632" lon="2.08527">
        <ele>249</ele>
        <time>2025-10-05T13:13:43.000Z</time>
      </trkpt>
      <trkpt lat="43.80631" lon="2.08534">
        <ele>249</ele>
        <time>2025-10-05T13:13:48.000Z</time>
      </trkpt>
      <trkpt lat="43.80629" lon="2.08541">
        <ele>250</ele>
        <time>2025-10-05T13:13:53.000Z</time>
      </trkpt>
      <trkpt lat="43.80627" lon="2.08549">
        <ele>252</ele>
        <time>2025-10-05T13:13:58.000Z</time>
      </trkpt>
      <trkpt lat="43.80626" lon="2.08555">
        <ele>252</ele>
        <time>2025-10-05T13:14:03.000Z</time>
      </trkpt>
      <trkpt lat="43.80624" lon="2.08562">
        <ele>253</ele>
        <time>2025-10-05T13:14:08.000Z</time>
      </trkpt>
      <trkpt lat="43.80621" lon="2.08568">
        <ele>253</ele>
        <time>2025-10-05T13:14:13.000Z</time>
      </trkpt>
      <trkpt lat="43.80621" lon="2.08575">
        <ele>254</ele>
        <time>2025-10-05T13:14:18.000Z</time>
      </trkpt>
      <trkpt lat="43.80619" lon="2.08582">
        <ele>255</ele>
        <time>2025-10-05T13:14:23.000Z</time>
      </trkpt>
      <trkpt lat="43.80619" lon="2.08586">
        <ele>255</ele>
        <time>2025-10-05T13:14:28.000Z</time>
      </trkpt>
      <trkpt lat="43.80619" lon="2.08593">
        <ele>256</ele>
        <time>2025-10-05T13:14:33.000Z</time>
      </trkpt>
      <trkpt lat="43.80618" lon="2.08599">
        <ele>255</ele>
        <time>2025-10-05T13:14:38.000Z</time>
      </trkpt>
      <trkpt lat="43.80617" lon="2.08603">
        <ele>255</ele>
        <time>2025-10-05T13:14:43.000Z</time>
      </trkpt>
      <trkpt lat="43.80617" lon="2.08609">
        <ele>254</ele>
        <time>2025-10-05T13:14:48.000Z</time>
      </trkpt>
      <trkpt lat="43.80616" lon="2.08614">
        <ele>254</ele>
        <time>2025-10-05T13:14:53.000Z</time>
      </trkpt>
      <trkpt lat="43.80615" lon="2.08621">
        <ele>252</ele>
        <time>2025-10-05T13:14:58.000Z</time>
      </trkpt>
      <trkpt lat="43.80615" lon="2.08627">
        <ele>253</ele>
        <time>2025-10-05T13:15:03.000Z</time>
      </trkpt>
      <trkpt lat="43.80615" lon="2.08633">
        <ele>253</ele>
        <time>2025-10-05T13:15:08.000Z</time>
      </trkpt>
      <trkpt lat="43.80614" lon="2.08641">
        <ele>252</ele>
        <time>2025-10-05T13:15:13.000Z</time>
      </trkpt>
      <trkpt lat="43.80612" lon="2.08647">
        <ele>253</ele>
        <time>2025-10-05T13:15:18.000Z</time>
      </trkpt>
      <trkpt lat="43.80611" lon="2.08653">
        <ele>255</ele>
        <time>2025-10-05T13:15:23.000Z</time>
      </trkpt>
      <trkpt lat="43.80608" lon="2.08659">
        <ele>255</ele>
        <time>2025-10-05T13:15:28.000Z</time>
      </trkpt>
      <trkpt lat="43.80606" lon="2.08663">
        <ele>258</ele>
        <time>2025-10-05T13:15:33.000Z</time>
      </trkpt>
      <trkpt lat="43.80603" lon="2.0867">
        <ele>260</ele>
        <time>2025-10-05T13:15:38.000Z</time>
      </trkpt>
      <trkpt lat="43.806" lon="2.08676">
        <ele>260</ele>
        <time>2025-10-05T13:15:43.000Z</time>
      </trkpt>
      <trkpt lat="43.80597" lon="2.08682">
        <ele>261</ele>
        <time>2025-10-05T13:15:48.000Z</time>
      </trkpt>
      <trkpt lat="43.80596" lon="2.08689">
        <ele>260</ele>
        <time>2025-10-05T13:15:53.000Z</time>
      </trkpt>
      <trkpt lat="43.80594" lon="2.08694">
        <ele>261</ele>
        <time>2025-10-05T13:15:58.000Z</time>
      </trkpt>
      <trkpt lat="43.80592" lon="2.087">
        <ele>263</ele>
        <time>2025-10-05T13:16:03.000Z</time>
      </trkpt>
      <trkpt lat="43.80589" lon="2.08707">
        <ele>262</ele>
        <time>2025-10-05T13:16:08.000Z</time>
      </trkpt>
      <trkpt lat="43.80587" lon="2.08713">
        <ele>262</ele>
        <time>2025-10-05T13:16:13.000Z</time>
      </trkpt>
      <trkpt lat="43.80584" lon="2.08718">
        <ele>263</ele>
        <time>2025-10-05T13:16:18.000Z</time>
      </trkpt>
      <trkpt lat="43.80582" lon="2.08724">
        <ele>265</ele>
        <time>2025-10-05T13:16:23.000Z</time>
      </trkpt>
      <trkpt lat="43.80581" lon="2.08729">
        <ele>265</ele>
        <time>2025-10-05T13:16:28.000Z</time>
      </trkpt>
      <trkpt lat="43.8058" lon="2.08734">
        <ele>265</ele>
        <time>2025-10-05T13:16:33.000Z</time>
      </trkpt>
      <trkpt lat="43.80577" lon="2.0874">
        <ele>265</ele>
        <time>2025-10-05T13:16:38.000Z</time>
      </trkpt>
      <trkpt lat="43.80574" lon="2.08746">
        <ele>266</ele>
        <time>2025-10-05T13:16:43.000Z</time>
      </trkpt>
      <trkpt lat="43.80572" lon="2.08754">
        <ele>267</ele>
        <time>2025-10-05T13:16:48.000Z</time>
      </trkpt>
      <trkpt lat="43.8057" lon="2.08761">
        <ele>266</ele>
        <time>2025-10-05T13:16:53.000Z</time>
      </trkpt>
      <trkpt lat="43.8057" lon="2.08768">
        <ele>268</ele>
        <time>2025-10-05T13:16:58.000Z</time>
      </trkpt>
      <trkpt lat="43.80569" lon="2.08773">
        <ele>268</ele>
        <time>2025-10-05T13:17:03.000Z</time>
      </trkpt>
      <trkpt lat="43.80567" lon="2.0878">
        <ele>268</ele>
        <time>2025-10-05T13:17:08.000Z</time>
      </trkpt>
      <trkpt lat="43.80565" lon="2.08787">
        <ele>268</ele>
        <time>2025-10-05T13:17:13.000Z</time>
      </trkpt>
      <trkpt lat="43.80564" lon="2.08793">
        <ele>269</ele>
        <time>2025-10-05T13:17:18.000Z</time>
      </trkpt>
      <trkpt lat="43.80562" lon="2.08799">
        <ele>269</ele>
        <time>2025-10-05T13:17:23.000Z</time>
      </trkpt>
      <trkpt lat="43.8056" lon="2.08806">
        <ele>270</ele>
        <time>2025-10-05T13:17:28.000Z</time>
      </trkpt>
      <trkpt lat="43.80558" lon="2.08812">
        <ele>270</ele>
        <time>2025-10-05T13:17:33.000Z</time>
      </trkpt>
      <trkpt lat="43.80557" lon="2.08818">
        <ele>271</ele>
        <time>2025-10-05T13:17:38.000Z</time>
      </trkpt>
      <trkpt lat="43.80555" lon="2.08824">
        <ele>270</ele>
        <time>2025-10-05T13:17:43.000Z</time>
      </trkpt>
      <trkpt lat="43.80553" lon="2.0883">
        <ele>269</ele>
        <time>2025-10-05T13:17:48.000Z</time>
      </trkpt>
      <trkpt lat="43.80552" lon="2.08837">
        <ele>270</ele>
        <time>2025-10-05T13:17:53.000Z</time>
      </trkpt>
      <trkpt lat="43.80552" lon="2.08844">
        <ele>270</ele>
        <time>2025-10-05T13:17:58.000Z</time>
      </trkpt>
      <trkpt lat="43.80551" lon="2.0885">
        <ele>269</ele>
        <time>2025-10-05T13:18:03.000Z</time>
      </trkpt>
      <trkpt lat="43.8055" lon="2.08856">
        <ele>270</ele>
        <time>2025-10-05T13:18:08.000Z</time>
      </trkpt>
      <trkpt lat="43.80551" lon="2.08864">
        <ele>270</ele>
        <time>2025-10-05T13:18:13.000Z</time>
      </trkpt>
      <trkpt lat="43.80552" lon="2.08872">
        <ele>270</ele>
        <time>2025-10-05T13:18:18.000Z</time>
      </trkpt>
      <trkpt lat="43.80552" lon="2.08878">
        <ele>270</ele>
        <time>2025-10-05T13:18:23.000Z</time>
      </trkpt>
      <trkpt lat="43.80553" lon="2.08887">
        <ele>271</ele>
        <time>2025-10-05T13:18:28.000Z</time>
      </trkpt>
      <trkpt lat="43.80553" lon="2.08894">
        <ele>270</ele>
        <time>2025-10-05T13:18:33.000Z</time>
      </trkpt>
      <trkpt lat="43.80554" lon="2.08901">
        <ele>271</ele>
        <time>2025-10-05T13:18:38.000Z</time>
      </trkpt>
      <trkpt lat="43.80554" lon="2.08909">
        <ele>271</ele>
        <time>2025-10-05T13:18:43.000Z</time>
      </trkpt>
      <trkpt lat="43.80554" lon="2.08916">
        <ele>273</ele>
        <time>2025-10-05T13:18:48.000Z</time>
      </trkpt>
      <trkpt lat="43.80553" lon="2.08922">
        <ele>272</ele>
        <time>2025-10-05T13:18:53.000Z</time>
      </trkpt>
      <trkpt lat="43.80554" lon="2.08929">
        <ele>273</ele>
        <time>2025-10-05T13:18:58.000Z</time>
      </trkpt>
      <trkpt lat="43.80555" lon="2.08935">
        <ele>275</ele>
        <time>2025-10-05T13:19:03.000Z</time>
      </trkpt>
      <trkpt lat="43.80555" lon="2.08941">
        <ele>275</ele>
        <time>2025-10-05T13:19:08.000Z</time>
      </trkpt>
      <trkpt lat="43.80554" lon="2.08948">
        <ele>278</ele>
        <time>2025-10-05T13:19:13.000Z</time>
      </trkpt>
      <trkpt lat="43.80553" lon="2.0895">
        <ele>277</ele>
        <time>2025-10-05T13:19:18.000Z</time>
      </trkpt>
      <trkpt lat="43.80553" lon="2.0895">
        <ele>277</ele>
        <time>2025-10-05T13:19:23.000Z</time>
      </trkpt>
      <trkpt lat="43.80553" lon="2.08951">
        <ele>277</ele>
        <time>2025-10-05T13:19:28.000Z</time>
      </trkpt>
      <trkpt lat="43.80553" lon="2.08955">
        <ele>279</ele>
        <time>2025-10-05T13:19:33.000Z</time>
      </trkpt>
      <trkpt lat="43.80552" lon="2.08961">
        <ele>279</ele>
        <time>2025-10-05T13:19:38.000Z</time>
      </trkpt>
      <trkpt lat="43.80551" lon="2.08968">
        <ele>278</ele>
        <time>2025-10-05T13:19:43.000Z</time>
      </trkpt>
      <trkpt lat="43.8055" lon="2.08973">
        <ele>277</ele>
        <time>2025-10-05T13:19:48.000Z</time>
      </trkpt>
      <trkpt lat="43.80549" lon="2.08979">
        <ele>276</ele>
        <time>2025-10-05T13:19:53.000Z</time>
      </trkpt>
      <trkpt lat="43.80547" lon="2.08986">
        <ele>277</ele>
        <time>2025-10-05T13:19:58.000Z</time>
      </trkpt>
      <trkpt lat="43.80546" lon="2.08994">
        <ele>280</ele>
        <time>2025-10-05T13:20:03.000Z</time>
      </trkpt>
      <trkpt lat="43.80546" lon="2.09001">
        <ele>278</ele>
        <time>2025-10-05T13:20:08.000Z</time>
      </trkpt>
      <trkpt lat="43.80543" lon="2.09008">
        <ele>278</ele>
        <time>2025-10-05T13:20:13.000Z</time>
      </trkpt>
      <trkpt lat="43.80542" lon="2.09015">
        <ele>277</ele>
        <time>2025-10-05T13:20:18.000Z</time>
      </trkpt>
      <trkpt lat="43.8054" lon="2.09022">
        <ele>279</ele>
        <time>2025-10-05T13:20:23.000Z</time>
      </trkpt>
      <trkpt lat="43.80537" lon="2.09031">
        <ele>280</ele>
        <time>2025-10-05T13:20:28.000Z</time>
      </trkpt>
      <trkpt lat="43.80535" lon="2.09037">
        <ele>279</ele>
        <time>2025-10-05T13:20:33.000Z</time>
      </trkpt>
      <trkpt lat="43.80532" lon="2.09043">
        <ele>278</ele>
        <time>2025-10-05T13:20:38.000Z</time>
      </trkpt>
      <trkpt lat="43.80531" lon="2.09049">
        <ele>279</ele>
        <time>2025-10-05T13:20:43.000Z</time>
      </trkpt>
      <trkpt lat="43.8053" lon="2.09055">
        <ele>279</ele>
        <time>2025-10-05T13:20:48.000Z</time>
      </trkpt>
      <trkpt lat="43.80529" lon="2.09064">
        <ele>279</ele>
        <time>2025-10-05T13:20:53.000Z</time>
      </trkpt>
      <trkpt lat="43.80528" lon="2.09071">
        <ele>279</ele>
        <time>2025-10-05T13:20:58.000Z</time>
      </trkpt>
      <trkpt lat="43.80526" lon="2.0908">
        <ele>281</ele>
        <time>2025-10-05T13:21:03.000Z</time>
      </trkpt>
      <trkpt lat="43.80524" lon="2.09089">
        <ele>279</ele>
        <time>2025-10-05T13:21:08.000Z</time>
      </trkpt>
      <trkpt lat="43.80523" lon="2.09095">
        <ele>279</ele>
        <time>2025-10-05T13:21:13.000Z</time>
      </trkpt>
      <trkpt lat="43.80522" lon="2.09102">
        <ele>279</ele>
        <time>2025-10-05T13:21:18.000Z</time>
      </trkpt>
      <trkpt lat="43.80519" lon="2.0911">
        <ele>279</ele>
        <time>2025-10-05T13:21:23.000Z</time>
      </trkpt>
      <trkpt lat="43.80517" lon="2.09117">
        <ele>279</ele>
        <time>2025-10-05T13:21:28.000Z</time>
      </trkpt>
      <trkpt lat="43.80514" lon="2.09126">
        <ele>281</ele>
        <time>2025-10-05T13:21:33.000Z</time>
      </trkpt>
      <trkpt lat="43.80513" lon="2.09134">
        <ele>281</ele>
        <time>2025-10-05T13:21:38.000Z</time>
      </trkpt>
      <trkpt lat="43.80511" lon="2.09139">
        <ele>281</ele>
        <time>2025-10-05T13:21:43.000Z</time>
      </trkpt>
      <trkpt lat="43.8051" lon="2.09146">
        <ele>280</ele>
        <time>2025-10-05T13:21:48.000Z</time>
      </trkpt>
      <trkpt lat="43.80508" lon="2.09153">
        <ele>280</ele>
        <time>2025-10-05T13:21:53.000Z</time>
      </trkpt>
      <trkpt lat="43.80506" lon="2.0916">
        <ele>279</ele>
        <time>2025-10-05T13:21:58.000Z</time>
      </trkpt>
      <trkpt lat="43.80504" lon="2.09168">
        <ele>279</ele>
        <time>2025-10-05T13:22:03.000Z</time>
      </trkpt>
      <trkpt lat="43.80503" lon="2.09175">
        <ele>279</ele>
        <time>2025-10-05T13:22:08.000Z</time>
      </trkpt>
      <trkpt lat="43.805" lon="2.09184">
        <ele>278</ele>
        <time>2025-10-05T13:22:13.000Z</time>
      </trkpt>
      <trkpt lat="43.80498" lon="2.09192">
        <ele>278</ele>
        <time>2025-10-05T13:22:18.000Z</time>
      </trkpt>
      <trkpt lat="43.80496" lon="2.09198">
        <ele>279</ele>
        <time>2025-10-05T13:22:23.000Z</time>
      </trkpt>
      <trkpt lat="43.80496" lon="2.09206">
        <ele>279</ele>
        <time>2025-10-05T13:22:28.000Z</time>
      </trkpt>
      <trkpt lat="43.80495" lon="2.09213">
        <ele>278</ele>
        <time>2025-10-05T13:22:33.000Z</time>
      </trkpt>
      <trkpt lat="43.80494" lon="2.09222">
        <ele>278</ele>
        <time>2025-10-05T13:22:38.000Z</time>
      </trkpt>
      <trkpt lat="43.80493" lon="2.09231">
        <ele>279</ele>
        <time>2025-10-05T13:22:43.000Z</time>
      </trkpt>
      <trkpt lat="43.80492" lon="2.09238">
        <ele>278</ele>
        <time>2025-10-05T13:22:48.000Z</time>
      </trkpt>
      <trkpt lat="43.80492" lon="2.09244">
        <ele>279</ele>
        <time>2025-10-05T13:22:53.000Z</time>
      </trkpt>
      <trkpt lat="43.8049" lon="2.09251">
        <ele>279</ele>
        <time>2025-10-05T13:22:58.000Z</time>
      </trkpt>
      <trkpt lat="43.80488" lon="2.0926">
        <ele>278</ele>
        <time>2025-10-05T13:23:03.000Z</time>
      </trkpt>
      <trkpt lat="43.80488" lon="2.09268">
        <ele>279</ele>
        <time>2025-10-05T13:23:08.000Z</time>
      </trkpt>
      <trkpt lat="43.80488" lon="2.09275">
        <ele>278</ele>
        <time>2025-10-05T13:23:13.000Z</time>
      </trkpt>
      <trkpt lat="43.80487" lon="2.09283">
        <ele>279</ele>
        <time>2025-10-05T13:23:18.000Z</time>
      </trkpt>
      <trkpt lat="43.80487" lon="2.09291">
        <ele>278</ele>
        <time>2025-10-05T13:23:23.000Z</time>
      </trkpt>
      <trkpt lat="43.80487" lon="2.09299">
        <ele>279</ele>
        <time>2025-10-05T13:23:28.000Z</time>
      </trkpt>
      <trkpt lat="43.80485" lon="2.09308">
        <ele>280</ele>
        <time>2025-10-05T13:23:33.000Z</time>
      </trkpt>
      <trkpt lat="43.80483" lon="2.09315">
        <ele>280</ele>
        <time>2025-10-05T13:23:38.000Z</time>
      </trkpt>
      <trkpt lat="43.80482" lon="2.09324">
        <ele>279</ele>
        <time>2025-10-05T13:23:43.000Z</time>
      </trkpt>
      <trkpt lat="43.8048" lon="2.0933">
        <ele>279</ele>
        <time>2025-10-05T13:23:48.000Z</time>
      </trkpt>
      <trkpt lat="43.80479" lon="2.09339">
        <ele>278</ele>
        <time>2025-10-05T13:23:53.000Z</time>
      </trkpt>
      <trkpt lat="43.80478" lon="2.09345">
        <ele>278</ele>
        <time>2025-10-05T13:23:58.000Z</time>
      </trkpt>
      <trkpt lat="43.80478" lon="2.09353">
        <ele>278</ele>
        <time>2025-10-05T13:24:03.000Z</time>
      </trkpt>
      <trkpt lat="43.80479" lon="2.0936">
        <ele>278</ele>
        <time>2025-10-05T13:24:08.000Z</time>
      </trkpt>
      <trkpt lat="43.80479" lon="2.09366">
        <ele>277</ele>
        <time>2025-10-05T13:24:13.000Z</time>
      </trkpt>
      <trkpt lat="43.80479" lon="2.09373">
        <ele>277</ele>
        <time>2025-10-05T13:24:18.000Z</time>
      </trkpt>
      <trkpt lat="43.80478" lon="2.09381">
        <ele>277</ele>
        <time>2025-10-05T13:24:23.000Z</time>
      </trkpt>
      <trkpt lat="43.80479" lon="2.0939">
        <ele>277</ele>
        <time>2025-10-05T13:24:28.000Z</time>
      </trkpt>
      <trkpt lat="43.80478" lon="2.09397">
        <ele>277</ele>
        <time>2025-10-05T13:24:33.000Z</time>
      </trkpt>
      <trkpt lat="43.80478" lon="2.09405">
        <ele>276</ele>
        <time>2025-10-05T13:24:38.000Z</time>
      </trkpt>
      <trkpt lat="43.80476" lon="2.09412">
        <ele>274</ele>
        <time>2025-10-05T13:24:43.000Z</time>
      </trkpt>
      <trkpt lat="43.80476" lon="2.09419">
        <ele>273</ele>
        <time>2025-10-05T13:24:48.000Z</time>
      </trkpt>
      <trkpt lat="43.80477" lon="2.09427">
        <ele>272</ele>
        <time>2025-10-05T13:24:53.000Z</time>
      </trkpt>
      <trkpt lat="43.80478" lon="2.09434">
        <ele>274</ele>
        <time>2025-10-05T13:24:58.000Z</time>
      </trkpt>
      <trkpt lat="43.8048" lon="2.09442">
        <ele>274</ele>
        <time>2025-10-05T13:25:03.000Z</time>
      </trkpt>
      <trkpt lat="43.80481" lon="2.09449">
        <ele>274</ele>
        <time>2025-10-05T13:25:08.000Z</time>
      </trkpt>
      <trkpt lat="43.80481" lon="2.09457">
        <ele>275</ele>
        <time>2025-10-05T13:25:13.000Z</time>
      </trkpt>
      <trkpt lat="43.80482" lon="2.09463">
        <ele>275</ele>
        <time>2025-10-05T13:25:18.000Z</time>
      </trkpt>
      <trkpt lat="43.80484" lon="2.0947">
        <ele>275</ele>
        <time>2025-10-05T13:25:23.000Z</time>
      </trkpt>
      <trkpt lat="43.80485" lon="2.09477">
        <ele>276</ele>
        <time>2025-10-05T13:25:28.000Z</time>
      </trkpt>
      <trkpt lat="43.80487" lon="2.09483">
        <ele>276</ele>
        <time>2025-10-05T13:25:33.000Z</time>
      </trkpt>
      <trkpt lat="43.80488" lon="2.09489">
        <ele>275</ele>
        <time>2025-10-05T13:25:38.000Z</time>
      </trkpt>
      <trkpt lat="43.80489" lon="2.09496">
        <ele>277</ele>
        <time>2025-10-05T13:25:43.000Z</time>
      </trkpt>
      <trkpt lat="43.80491" lon="2.09502">
        <ele>277</ele>
        <time>2025-10-05T13:25:48.000Z</time>
      </trkpt>
      <trkpt lat="43.80494" lon="2.09508">
        <ele>277</ele>
        <time>2025-10-05T13:25:53.000Z</time>
      </trkpt>
      <trkpt lat="43.80494" lon="2.09515">
        <ele>277</ele>
        <time>2025-10-05T13:25:58.000Z</time>
      </trkpt>
      <trkpt lat="43.80496" lon="2.09521">
        <ele>278</ele>
        <time>2025-10-05T13:26:03.000Z</time>
      </trkpt>
      <trkpt lat="43.80498" lon="2.09526">
        <ele>278</ele>
        <time>2025-10-05T13:26:08.000Z</time>
      </trkpt>
      <trkpt lat="43.805" lon="2.09532">
        <ele>279</ele>
        <time>2025-10-05T13:26:13.000Z</time>
      </trkpt>
      <trkpt lat="43.80501" lon="2.09537">
        <ele>280</ele>
        <time>2025-10-05T13:26:18.000Z</time>
      </trkpt>
      <trkpt lat="43.80502" lon="2.0954">
        <ele>281</ele>
        <time>2025-10-05T13:26:23.000Z</time>
      </trkpt>
      <trkpt lat="43.80503" lon="2.09546">
        <ele>283</ele>
        <time>2025-10-05T13:26:28.000Z</time>
      </trkpt>
      <trkpt lat="43.80504" lon="2.09551">
        <ele>284</ele>
        <time>2025-10-05T13:26:33.000Z</time>
      </trkpt>
      <trkpt lat="43.80507" lon="2.09556">
        <ele>283</ele>
        <time>2025-10-05T13:26:38.000Z</time>
      </trkpt>
      <trkpt lat="43.80509" lon="2.09563">
        <ele>283</ele>
        <time>2025-10-05T13:26:43.000Z</time>
      </trkpt>
      <trkpt lat="43.80511" lon="2.0957">
        <ele>284</ele>
        <time>2025-10-05T13:26:48.000Z</time>
      </trkpt>
      <trkpt lat="43.80514" lon="2.09577">
        <ele>284</ele>
        <time>2025-10-05T13:26:53.000Z</time>
      </trkpt>
      <trkpt lat="43.80516" lon="2.09582">
        <ele>285</ele>
        <time>2025-10-05T13:26:58.000Z</time>
      </trkpt>
      <trkpt lat="43.80517" lon="2.09587">
        <ele>285</ele>
        <time>2025-10-05T13:27:03.000Z</time>
      </trkpt>
      <trkpt lat="43.80518" lon="2.09592">
        <ele>284</ele>
        <time>2025-10-05T13:27:08.000Z</time>
      </trkpt>
      <trkpt lat="43.80518" lon="2.09592">
        <ele>285</ele>
        <time>2025-10-05T13:27:13.000Z</time>
      </trkpt>
      <trkpt lat="43.80518" lon="2.09592">
        <ele>285</ele>
        <time>2025-10-05T13:27:18.000Z</time>
      </trkpt>
      <trkpt lat="43.80518" lon="2.09592">
        <ele>285</ele>
        <time>2025-10-05T13:27:23.000Z</time>
      </trkpt>
      <trkpt lat="43.80518" lon="2.09592">
        <ele>285</ele>
        <time>2025-10-05T13:27:28.000Z</time>
      </trkpt>
      <trkpt lat="43.80519" lon="2.09595">
        <ele>285</ele>
        <time>2025-10-05T13:27:33.000Z</time>
      </trkpt>
      <trkpt lat="43.8052" lon="2.09601">
        <ele>285</ele>
        <time>2025-10-05T13:27:38.000Z</time>
      </trkpt>
      <trkpt lat="43.80521" lon="2.09604">
        <ele>286</ele>
        <time>2025-10-05T13:27:43.000Z</time>
      </trkpt>
      <trkpt lat="43.80523" lon="2.09608">
        <ele>287</ele>
        <time>2025-10-05T13:27:48.000Z</time>
      </trkpt>
      <trkpt lat="43.80525" lon="2.09614">
        <ele>290</ele>
        <time>2025-10-05T13:27:53.000Z</time>
      </trkpt>
      <trkpt lat="43.80526" lon="2.09622">
        <ele>288</ele>
        <time>2025-10-05T13:27:58.000Z</time>
      </trkpt>
      <trkpt lat="43.80528" lon="2.0963">
        <ele>290</ele>
        <time>2025-10-05T13:28:03.000Z</time>
      </trkpt>
      <trkpt lat="43.80529" lon="2.09636">
        <ele>290</ele>
        <time>2025-10-05T13:28:08.000Z</time>
      </trkpt>
      <trkpt lat="43.8053" lon="2.09644">
        <ele>291</ele>
        <time>2025-10-05T13:28:13.000Z</time>
      </trkpt>
      <trkpt lat="43.80531" lon="2.09651">
        <ele>293</ele>
        <time>2025-10-05T13:28:18.000Z</time>
      </trkpt>
      <trkpt lat="43.80529" lon="2.09659">
        <ele>294</ele>
        <time>2025-10-05T13:28:23.000Z</time>
      </trkpt>
      <trkpt lat="43.80526" lon="2.09664">
        <ele>293</ele>
        <time>2025-10-05T13:28:28.000Z</time>
      </trkpt>
      <trkpt lat="43.80523" lon="2.09671">
        <ele>293</ele>
        <time>2025-10-05T13:28:33.000Z</time>
      </trkpt>
      <trkpt lat="43.80519" lon="2.09676">
        <ele>292</ele>
        <time>2025-10-05T13:28:38.000Z</time>
      </trkpt>
      <trkpt lat="43.80517" lon="2.09681">
        <ele>293</ele>
        <time>2025-10-05T13:28:43.000Z</time>
      </trkpt>
      <trkpt lat="43.80513" lon="2.09685">
        <ele>293</ele>
        <time>2025-10-05T13:28:48.000Z</time>
      </trkpt>
      <trkpt lat="43.8051" lon="2.09691">
        <ele>292</ele>
        <time>2025-10-05T13:28:53.000Z</time>
      </trkpt>
      <trkpt lat="43.80505" lon="2.09697">
        <ele>292</ele>
        <time>2025-10-05T13:28:58.000Z</time>
      </trkpt>
      <trkpt lat="43.80502" lon="2.09703">
        <ele>291</ele>
        <time>2025-10-05T13:29:03.000Z</time>
      </trkpt>
      <trkpt lat="43.80497" lon="2.09709">
        <ele>292</ele>
        <time>2025-10-05T13:29:08.000Z</time>
      </trkpt>
      <trkpt lat="43.80493" lon="2.09713">
        <ele>293</ele>
        <time>2025-10-05T13:29:13.000Z</time>
      </trkpt>
      <trkpt lat="43.80491" lon="2.09716">
        <ele>292</ele>
        <time>2025-10-05T13:29:18.000Z</time>
      </trkpt>
      <trkpt lat="43.80486" lon="2.09721">
        <ele>293</ele>
        <time>2025-10-05T13:29:23.000Z</time>
      </trkpt>
      <trkpt lat="43.80484" lon="2.09726">
        <ele>292</ele>
        <time>2025-10-05T13:29:28.000Z</time>
      </trkpt>
      <trkpt lat="43.8048" lon="2.09732">
        <ele>292</ele>
        <time>2025-10-05T13:29:33.000Z</time>
      </trkpt>
      <trkpt lat="43.8048" lon="2.09736">
        <ele>294</ele>
        <time>2025-10-05T13:29:38.000Z</time>
      </trkpt>
      <trkpt lat="43.80477" lon="2.09742">
        <ele>295</ele>
        <time>2025-10-05T13:29:43.000Z</time>
      </trkpt>
      <trkpt lat="43.80474" lon="2.09749">
        <ele>296</ele>
        <time>2025-10-05T13:29:48.000Z</time>
      </trkpt>
      <trkpt lat="43.80471" lon="2.09753">
        <ele>294</ele>
        <time>2025-10-05T13:29:53.000Z</time>
      </trkpt>
      <trkpt lat="43.80468" lon="2.0976">
        <ele>294</ele>
        <time>2025-10-05T13:29:58.000Z</time>
      </trkpt>
      <trkpt lat="43.80465" lon="2.09767">
        <ele>294</ele>
        <time>2025-10-05T13:30:03.000Z</time>
      </trkpt>
      <trkpt lat="43.80463" lon="2.09773">
        <ele>294</ele>
        <time>2025-10-05T13:30:08.000Z</time>
      </trkpt>
      <trkpt lat="43.8046" lon="2.0978">
        <ele>294</ele>
        <time>2025-10-05T13:30:13.000Z</time>
      </trkpt>
      <trkpt lat="43.80457" lon="2.09786">
        <ele>294</ele>
        <time>2025-10-05T13:30:18.000Z</time>
      </trkpt>
      <trkpt lat="43.80455" lon="2.09793">
        <ele>295</ele>
        <time>2025-10-05T13:30:23.000Z</time>
      </trkpt>
      <trkpt lat="43.80452" lon="2.098">
        <ele>294</ele>
        <time>2025-10-05T13:30:28.000Z</time>
      </trkpt>
      <trkpt lat="43.80452" lon="2.09807">
        <ele>295</ele>
        <time>2025-10-05T13:30:33.000Z</time>
      </trkpt>
      <trkpt lat="43.8045" lon="2.09815">
        <ele>296</ele>
        <time>2025-10-05T13:30:38.000Z</time>
      </trkpt>
      <trkpt lat="43.80451" lon="2.09823">
        <ele>296</ele>
        <time>2025-10-05T13:30:43.000Z</time>
      </trkpt>
      <trkpt lat="43.80452" lon="2.09829">
        <ele>295</ele>
        <time>2025-10-05T13:30:48.000Z</time>
      </trkpt>
      <trkpt lat="43.80453" lon="2.09838">
        <ele>296</ele>
        <time>2025-10-05T13:30:53.000Z</time>
      </trkpt>
      <trkpt lat="43.80452" lon="2.09846">
        <ele>298</ele>
        <time>2025-10-05T13:30:58.000Z</time>
      </trkpt>
      <trkpt lat="43.80451" lon="2.09852">
        <ele>299</ele>
        <time>2025-10-05T13:31:03.000Z</time>
      </trkpt>
      <trkpt lat="43.80451" lon="2.09862">
        <ele>300</ele>
        <time>2025-10-05T13:31:08.000Z</time>
      </trkpt>
      <trkpt lat="43.8045" lon="2.09868">
        <ele>299</ele>
        <time>2025-10-05T13:31:13.000Z</time>
      </trkpt>
      <trkpt lat="43.8045" lon="2.09875">
        <ele>299</ele>
        <time>2025-10-05T13:31:18.000Z</time>
      </trkpt>
      <trkpt lat="43.80449" lon="2.09883">
        <ele>298</ele>
        <time>2025-10-05T13:31:23.000Z</time>
      </trkpt>
      <trkpt lat="43.80449" lon="2.0989">
        <ele>296</ele>
        <time>2025-10-05T13:31:28.000Z</time>
      </trkpt>
      <trkpt lat="43.80449" lon="2.09899">
        <ele>295</ele>
        <time>2025-10-05T13:31:33.000Z</time>
      </trkpt>
      <trkpt lat="43.80449" lon="2.09907">
        <ele>297</ele>
        <time>2025-10-05T13:31:38.000Z</time>
      </trkpt>
      <trkpt lat="43.80449" lon="2.09914">
        <ele>299</ele>
        <time>2025-10-05T13:31:43.000Z</time>
      </trkpt>
      <trkpt lat="43.80448" lon="2.09923">
        <ele>298</ele>
        <time>2025-10-05T13:31:48.000Z</time>
      </trkpt>
      <trkpt lat="43.80448" lon="2.0993">
        <ele>298</ele>
        <time>2025-10-05T13:31:53.000Z</time>
      </trkpt>
      <trkpt lat="43.80446" lon="2.09939">
        <ele>297</ele>
        <time>2025-10-05T13:31:58.000Z</time>
      </trkpt>
      <trkpt lat="43.80446" lon="2.09947">
        <ele>296</ele>
        <time>2025-10-05T13:32:03.000Z</time>
      </trkpt>
      <trkpt lat="43.80446" lon="2.09954">
        <ele>297</ele>
        <time>2025-10-05T13:32:08.000Z</time>
      </trkpt>
      <trkpt lat="43.80445" lon="2.09963">
        <ele>297</ele>
        <time>2025-10-05T13:32:13.000Z</time>
      </trkpt>
      <trkpt lat="43.80445" lon="2.09971">
        <ele>296</ele>
        <time>2025-10-05T13:32:18.000Z</time>
      </trkpt>
      <trkpt lat="43.80448" lon="2.09978">
        <ele>296</ele>
        <time>2025-10-05T13:32:23.000Z</time>
      </trkpt>
      <trkpt lat="43.80451" lon="2.09984">
        <ele>295</ele>
        <time>2025-10-05T13:32:28.000Z</time>
      </trkpt>
      <trkpt lat="43.80454" lon="2.0999">
        <ele>294</ele>
        <time>2025-10-05T13:32:33.000Z</time>
      </trkpt>
      <trkpt lat="43.80457" lon="2.09997">
        <ele>292</ele>
        <time>2025-10-05T13:32:38.000Z</time>
      </trkpt>
      <trkpt lat="43.80461" lon="2.10003">
        <ele>291</ele>
        <time>2025-10-05T13:32:43.000Z</time>
      </trkpt>
      <trkpt lat="43.80463" lon="2.10009">
        <ele>288</ele>
        <time>2025-10-05T13:32:48.000Z</time>
      </trkpt>
      <trkpt lat="43.80466" lon="2.10017">
        <ele>288</ele>
        <time>2025-10-05T13:32:53.000Z</time>
      </trkpt>
      <trkpt lat="43.80469" lon="2.10023">
        <ele>289</ele>
        <time>2025-10-05T13:32:58.000Z</time>
      </trkpt>
      <trkpt lat="43.80473" lon="2.10029">
        <ele>289</ele>
        <time>2025-10-05T13:33:03.000Z</time>
      </trkpt>
      <trkpt lat="43.80476" lon="2.10035">
        <ele>288</ele>
        <time>2025-10-05T13:33:08.000Z</time>
      </trkpt>
      <trkpt lat="43.8048" lon="2.10042">
        <ele>288</ele>
        <time>2025-10-05T13:33:13.000Z</time>
      </trkpt>
      <trkpt lat="43.80483" lon="2.10051">
        <ele>289</ele>
        <time>2025-10-05T13:33:18.000Z</time>
      </trkpt>
      <trkpt lat="43.80486" lon="2.10057">
        <ele>290</ele>
        <time>2025-10-05T13:33:23.000Z</time>
      </trkpt>
      <trkpt lat="43.80488" lon="2.10064">
        <ele>289</ele>
        <time>2025-10-05T13:33:28.000Z</time>
      </trkpt>
      <trkpt lat="43.8049" lon="2.10071">
        <ele>289</ele>
        <time>2025-10-05T13:33:33.000Z</time>
      </trkpt>
      <trkpt lat="43.80492" lon="2.10078">
        <ele>289</ele>
        <time>2025-10-05T13:33:38.000Z</time>
      </trkpt>
      <trkpt lat="43.80494" lon="2.10085">
        <ele>289</ele>
        <time>2025-10-05T13:33:43.000Z</time>
      </trkpt>
      <trkpt lat="43.80497" lon="2.10091">
        <ele>288</ele>
        <time>2025-10-05T13:33:48.000Z</time>
      </trkpt>
      <trkpt lat="43.805" lon="2.10098">
        <ele>288</ele>
        <time>2025-10-05T13:33:53.000Z</time>
      </trkpt>
      <trkpt lat="43.80503" lon="2.10104">
        <ele>287</ele>
        <time>2025-10-05T13:33:58.000Z</time>
      </trkpt>
      <trkpt lat="43.80505" lon="2.10112">
        <ele>286</ele>
        <time>2025-10-05T13:34:03.000Z</time>
      </trkpt>
      <trkpt lat="43.80508" lon="2.10118">
        <ele>284</ele>
        <time>2025-10-05T13:34:08.000Z</time>
      </trkpt>
      <trkpt lat="43.80512" lon="2.10123">
        <ele>284</ele>
        <time>2025-10-05T13:34:13.000Z</time>
      </trkpt>
      <trkpt lat="43.80514" lon="2.1013">
        <ele>285</ele>
        <time>2025-10-05T13:34:18.000Z</time>
      </trkpt>
      <trkpt lat="43.80518" lon="2.10136">
        <ele>285</ele>
        <time>2025-10-05T13:34:23.000Z</time>
      </trkpt>
      <trkpt lat="43.80521" lon="2.10143">
        <ele>284</ele>
        <time>2025-10-05T13:34:28.000Z</time>
      </trkpt>
      <trkpt lat="43.80524" lon="2.10149">
        <ele>284</ele>
        <time>2025-10-05T13:34:33.000Z</time>
      </trkpt>
      <trkpt lat="43.80527" lon="2.10154">
        <ele>284</ele>
        <time>2025-10-05T13:34:38.000Z</time>
      </trkpt>
      <trkpt lat="43.80533" lon="2.10159">
        <ele>282</ele>
        <time>2025-10-05T13:34:43.000Z</time>
      </trkpt>
      <trkpt lat="43.80537" lon="2.10166">
        <ele>283</ele>
        <time>2025-10-05T13:34:48.000Z</time>
      </trkpt>
      <trkpt lat="43.8054" lon="2.10173">
        <ele>282</ele>
        <time>2025-10-05T13:34:53.000Z</time>
      </trkpt>
      <trkpt lat="43.80543" lon="2.10179">
        <ele>281</ele>
        <time>2025-10-05T13:34:58.000Z</time>
      </trkpt>
      <trkpt lat="43.80546" lon="2.10187">
        <ele>280</ele>
        <time>2025-10-05T13:35:03.000Z</time>
      </trkpt>
      <trkpt lat="43.80549" lon="2.10195">
        <ele>281</ele>
        <time>2025-10-05T13:35:08.000Z</time>
      </trkpt>
      <trkpt lat="43.80551" lon="2.10202">
        <ele>281</ele>
        <time>2025-10-05T13:35:13.000Z</time>
      </trkpt>
      <trkpt lat="43.8055" lon="2.10211">
        <ele>282</ele>
        <time>2025-10-05T13:35:18.000Z</time>
      </trkpt>
      <trkpt lat="43.80549" lon="2.10212">
        <ele>281</ele>
        <time>2025-10-05T13:35:23.000Z</time>
      </trkpt>
      <trkpt lat="43.80547" lon="2.10216">
        <ele>280</ele>
        <time>2025-10-05T13:35:28.000Z</time>
      </trkpt>
      <trkpt lat="43.80543" lon="2.10222">
        <ele>280</ele>
        <time>2025-10-05T13:35:33.000Z</time>
      </trkpt>
      <trkpt lat="43.80539" lon="2.10227">
        <ele>281</ele>
        <time>2025-10-05T13:35:38.000Z</time>
      </trkpt>
      <trkpt lat="43.80535" lon="2.10233">
        <ele>280</ele>
        <time>2025-10-05T13:35:43.000Z</time>
      </trkpt>
      <trkpt lat="43.8053" lon="2.1024">
        <ele>280</ele>
        <time>2025-10-05T13:35:48.000Z</time>
      </trkpt>
      <trkpt lat="43.80528" lon="2.10246">
        <ele>279</ele>
        <time>2025-10-05T13:35:53.000Z</time>
      </trkpt>
      <trkpt lat="43.80524" lon="2.10252">
        <ele>280</ele>
        <time>2025-10-05T13:35:58.000Z</time>
      </trkpt>
      <trkpt lat="43.80521" lon="2.10259">
        <ele>281</ele>
        <time>2025-10-05T13:36:03.000Z</time>
      </trkpt>
      <trkpt lat="43.80517" lon="2.10266">
        <ele>281</ele>
        <time>2025-10-05T13:36:08.000Z</time>
      </trkpt>
      <trkpt lat="43.80514" lon="2.10271">
        <ele>280</ele>
        <time>2025-10-05T13:36:13.000Z</time>
      </trkpt>
      <trkpt lat="43.80509" lon="2.10272">
        <ele>282</ele>
        <time>2025-10-05T13:36:18.000Z</time>
      </trkpt>
      <trkpt lat="43.80504" lon="2.10275">
        <ele>282</ele>
        <time>2025-10-05T13:36:23.000Z</time>
      </trkpt>
      <trkpt lat="43.80501" lon="2.10278">
        <ele>283</ele>
        <time>2025-10-05T13:36:28.000Z</time>
      </trkpt>
      <trkpt lat="43.80495" lon="2.10283">
        <ele>283</ele>
        <time>2025-10-05T13:36:33.000Z</time>
      </trkpt>
      <trkpt lat="43.8049" lon="2.10284">
        <ele>284</ele>
        <time>2025-10-05T13:36:38.000Z</time>
      </trkpt>
      <trkpt lat="43.8049" lon="2.10284">
        <ele>283</ele>
        <time>2025-10-05T13:36:43.000Z</time>
      </trkpt>
      <trkpt lat="43.80485" lon="2.10284">
        <ele>284</ele>
        <time>2025-10-05T13:36:48.000Z</time>
      </trkpt>
      <trkpt lat="43.80481" lon="2.10281">
        <ele>285</ele>
        <time>2025-10-05T13:36:53.000Z</time>
      </trkpt>
      <trkpt lat="43.80477" lon="2.10279">
        <ele>284</ele>
        <time>2025-10-05T13:36:58.000Z</time>
      </trkpt>
      <trkpt lat="43.80472" lon="2.10275">
        <ele>284</ele>
        <time>2025-10-05T13:37:03.000Z</time>
      </trkpt>
      <trkpt lat="43.80468" lon="2.10272">
        <ele>285</ele>
        <time>2025-10-05T13:37:08.000Z</time>
      </trkpt>
      <trkpt lat="43.80467" lon="2.10266">
        <ele>284</ele>
        <time>2025-10-05T13:37:13.000Z</time>
      </trkpt>
      <trkpt lat="43.80467" lon="2.10261">
        <ele>284</ele>
        <time>2025-10-05T13:37:18.000Z</time>
      </trkpt>
      <trkpt lat="43.80466" lon="2.10257">
        <ele>284</ele>
        <time>2025-10-05T13:37:23.000Z</time>
      </trkpt>
      <trkpt lat="43.80466" lon="2.10253">
        <ele>283</ele>
        <time>2025-10-05T13:37:28.000Z</time>
      </trkpt>
      <trkpt lat="43.80467" lon="2.10253">
        <ele>284</ele>
        <time>2025-10-05T13:37:33.000Z</time>
      </trkpt>
      <trkpt lat="43.80467" lon="2.10256">
        <ele>284</ele>
        <time>2025-10-05T13:37:38.000Z</time>
      </trkpt>
      <trkpt lat="43.80468" lon="2.10257">
        <ele>284</ele>
        <time>2025-10-05T13:37:43.000Z</time>
      </trkpt>
      <trkpt lat="43.80468" lon="2.10261">
        <ele>284</ele>
        <time>2025-10-05T13:37:48.000Z</time>
      </trkpt>
      <trkpt lat="43.80469" lon="2.10267">
        <ele>284</ele>
        <time>2025-10-05T13:37:53.000Z</time>
      </trkpt>
      <trkpt lat="43.80472" lon="2.10271">
        <ele>284</ele>
        <time>2025-10-05T13:37:58.000Z</time>
      </trkpt>
      <trkpt lat="43.80478" lon="2.10271">
        <ele>283</ele>
        <time>2025-10-05T13:38:03.000Z</time>
      </trkpt>
      <trkpt lat="43.80481" lon="2.10277">
        <ele>281</ele>
        <time>2025-10-05T13:38:08.000Z</time>
      </trkpt>
      <trkpt lat="43.80484" lon="2.10283">
        <ele>281</ele>
        <time>2025-10-05T13:38:13.000Z</time>
      </trkpt>
      <trkpt lat="43.80485" lon="2.10286">
        <ele>282</ele>
        <time>2025-10-05T13:38:18.000Z</time>
      </trkpt>
      <trkpt lat="43.80485" lon="2.10286">
        <ele>282</ele>
        <time>2025-10-05T13:38:23.000Z</time>
      </trkpt>
      <trkpt lat="43.80485" lon="2.10286">
        <ele>282</ele>
        <time>2025-10-05T13:38:28.000Z</time>
      </trkpt>
      <trkpt lat="43.80485" lon="2.10286">
        <ele>282</ele>
        <time>2025-10-05T13:38:33.000Z</time>
      </trkpt>
      <trkpt lat="43.80485" lon="2.10286">
        <ele>282</ele>
        <time>2025-10-05T13:38:38.000Z</time>
      </trkpt>
      <trkpt lat="43.80485" lon="2.10286">
        <ele>281</ele>
        <time>2025-10-05T13:38:43.000Z</time>
      </trkpt>
      <trkpt lat="43.80485" lon="2.10286">
        <ele>281</ele>
        <time>2025-10-05T13:38:48.000Z</time>
      </trkpt>
      <trkpt lat="43.80485" lon="2.10286">
        <ele>281</ele>
        <time>2025-10-05T13:38:53.000Z</time>
      </trkpt>
      <trkpt lat="43.80485" lon="2.10286">
        <ele>281</ele>
        <time>2025-10-05T13:38:58.000Z</time>
      </trkpt>
      <trkpt lat="43.80485" lon="2.10286">
        <ele>281</ele>
        <time>2025-10-05T13:39:03.000Z</time>
      </trkpt>
      <trkpt lat="43.80485" lon="2.10286">
        <ele>281</ele>
        <time>2025-10-05T13:39:08.000Z</time>
      </trkpt>
      <trkpt lat="43.80485" lon="2.10286">
        <ele>281</ele>
        <time>2025-10-05T13:39:13.000Z</time>
      </trkpt>
      <trkpt lat="43.80485" lon="2.10286">
        <ele>281</ele>
        <time>2025-10-05T13:39:18.000Z</time>
      </trkpt>
      <trkpt lat="43.80485" lon="2.10286">
        <ele>281</ele>
        <time>2025-10-05T13:39:23.000Z</time>
      </trkpt>
      <trkpt lat="43.80485" lon="2.10287">
        <ele>281</ele>
        <time>2025-10-05T13:39:28.000Z</time>
      </trkpt>
      <trkpt lat="43.80486" lon="2.10289">
        <ele>280</ele>
        <time>2025-10-05T13:39:33.000Z</time>
      </trkpt>
      <trkpt lat="43.80488" lon="2.10295">
        <ele>281</ele>
        <time>2025-10-05T13:39:38.000Z</time>
      </trkpt>
      <trkpt lat="43.80488" lon="2.10301">
        <ele>280</ele>
        <time>2025-10-05T13:39:43.000Z</time>
      </trkpt>
      <trkpt lat="43.80486" lon="2.10306">
        <ele>280</ele>
        <time>2025-10-05T13:39:48.000Z</time>
      </trkpt>
      <trkpt lat="43.80486" lon="2.10307">
        <ele>281</ele>
        <time>2025-10-05T13:39:53.000Z</time>
      </trkpt>
      <trkpt lat="43.80486" lon="2.10307">
        <ele>281</ele>
        <time>2025-10-05T13:39:58.000Z</time>
      </trkpt>
      <trkpt lat="43.80486" lon="2.10307">
        <ele>281</ele>
        <time>2025-10-05T13:40:03.000Z</time>
      </trkpt>
      <trkpt lat="43.80485" lon="2.10307">
        <ele>280</ele>
        <time>2025-10-05T13:40:08.000Z</time>
      </trkpt>
      <trkpt lat="43.80483" lon="2.10308">
        <ele>280</ele>
        <time>2025-10-05T13:40:13.000Z</time>
      </trkpt>
      <trkpt lat="43.80478" lon="2.1031">
        <ele>280</ele>
        <time>2025-10-05T13:40:18.000Z</time>
      </trkpt>
      <trkpt lat="43.80473" lon="2.10311">
        <ele>281</ele>
        <time>2025-10-05T13:40:23.000Z</time>
      </trkpt>
      <trkpt lat="43.80471" lon="2.10312">
        <ele>281</ele>
        <time>2025-10-05T13:40:28.000Z</time>
      </trkpt>
      <trkpt lat="43.80468" lon="2.10311">
        <ele>281</ele>
        <time>2025-10-05T13:40:33.000Z</time>
      </trkpt>
      <trkpt lat="43.80464" lon="2.10313">
        <ele>280</ele>
        <time>2025-10-05T13:40:38.000Z</time>
      </trkpt>
      <trkpt lat="43.80458" lon="2.10312">
        <ele>280</ele>
        <time>2025-10-05T13:40:43.000Z</time>
      </trkpt>
      <trkpt lat="43.80454" lon="2.10314">
        <ele>281</ele>
        <time>2025-10-05T13:40:48.000Z</time>
      </trkpt>
      <trkpt lat="43.8045" lon="2.10316">
        <ele>282</ele>
        <time>2025-10-05T13:40:53.000Z</time>
      </trkpt>
      <trkpt lat="43.80445" lon="2.1032">
        <ele>281</ele>
        <time>2025-10-05T13:40:58.000Z</time>
      </trkpt>
      <trkpt lat="43.80442" lon="2.10323">
        <ele>280</ele>
        <time>2025-10-05T13:41:03.000Z</time>
      </trkpt>
      <trkpt lat="43.80439" lon="2.10328">
        <ele>281</ele>
        <time>2025-10-05T13:41:08.000Z</time>
      </trkpt>
      <trkpt lat="43.80436" lon="2.10333">
        <ele>280</ele>
        <time>2025-10-05T13:41:13.000Z</time>
      </trkpt>
      <trkpt lat="43.80433" lon="2.10338">
        <ele>280</ele>
        <time>2025-10-05T13:41:18.000Z</time>
      </trkpt>
      <trkpt lat="43.8043" lon="2.10343">
        <ele>281</ele>
        <time>2025-10-05T13:41:23.000Z</time>
      </trkpt>
      <trkpt lat="43.80424" lon="2.10347">
        <ele>281</ele>
        <time>2025-10-05T13:41:28.000Z</time>
      </trkpt>
      <trkpt lat="43.80419" lon="2.10351">
        <ele>282</ele>
        <time>2025-10-05T13:41:33.000Z</time>
      </trkpt>
      <trkpt lat="43.80415" lon="2.10355">
        <ele>281</ele>
        <time>2025-10-05T13:41:38.000Z</time>
      </trkpt>
      <trkpt lat="43.80414" lon="2.10356">
        <ele>281</ele>
        <time>2025-10-05T13:41:43.000Z</time>
      </trkpt>
      <trkpt lat="43.80413" lon="2.10356">
        <ele>282</ele>
        <time>2025-10-05T13:41:48.000Z</time>
      </trkpt>
      <trkpt lat="43.80413" lon="2.10356">
        <ele>283</ele>
        <time>2025-10-05T13:41:53.000Z</time>
      </trkpt>
      <trkpt lat="43.80413" lon="2.10356">
        <ele>283</ele>
        <time>2025-10-05T13:41:58.000Z</time>
      </trkpt>
      <trkpt lat="43.80409" lon="2.10354">
        <ele>283</ele>
        <time>2025-10-05T13:42:03.000Z</time>
      </trkpt>
      <trkpt lat="43.80407" lon="2.10352">
        <ele>283</ele>
        <time>2025-10-05T13:42:08.000Z</time>
      </trkpt>
      <trkpt lat="43.80404" lon="2.10349">
        <ele>283</ele>
        <time>2025-10-05T13:42:13.000Z</time>
      </trkpt>
      <trkpt lat="43.80404" lon="2.10349">
        <ele>283</ele>
        <time>2025-10-05T13:42:18.000Z</time>
      </trkpt>
      <trkpt lat="43.80404" lon="2.10349">
        <ele>284</ele>
        <time>2025-10-05T13:42:23.000Z</time>
      </trkpt>
      <trkpt lat="43.80404" lon="2.10349">
        <ele>284</ele>
        <time>2025-10-05T13:42:28.000Z</time>
      </trkpt>
      <trkpt lat="43.80404" lon="2.10348">
        <ele>284</ele>
        <time>2025-10-05T13:42:33.000Z</time>
      </trkpt>
      <trkpt lat="43.80402" lon="2.10345">
        <ele>284</ele>
        <time>2025-10-05T13:42:38.000Z</time>
      </trkpt>
      <trkpt lat="43.80398" lon="2.10341">
        <ele>285</ele>
        <time>2025-10-05T13:42:43.000Z</time>
      </trkpt>
      <trkpt lat="43.80395" lon="2.10338">
        <ele>284</ele>
        <time>2025-10-05T13:42:48.000Z</time>
      </trkpt>
      <trkpt lat="43.80393" lon="2.10337">
        <ele>283</ele>
        <time>2025-10-05T13:42:53.000Z</time>
      </trkpt>
      <trkpt lat="43.80389" lon="2.10334">
        <ele>282</ele>
        <time>2025-10-05T13:42:58.000Z</time>
      </trkpt>
      <trkpt lat="43.80384" lon="2.10329">
        <ele>284</ele>
        <time>2025-10-05T13:43:03.000Z</time>
      </trkpt>
      <trkpt lat="43.80379" lon="2.10325">
        <ele>285</ele>
        <time>2025-10-05T13:43:08.000Z</time>
      </trkpt>
      <trkpt lat="43.80374" lon="2.10322">
        <ele>286</ele>
        <time>2025-10-05T13:43:13.000Z</time>
      </trkpt>
      <trkpt lat="43.80371" lon="2.10319">
        <ele>286</ele>
        <time>2025-10-05T13:43:18.000Z</time>
      </trkpt>
      <trkpt lat="43.80368" lon="2.10314">
        <ele>286</ele>
        <time>2025-10-05T13:43:23.000Z</time>
      </trkpt>
      <trkpt lat="43.80368" lon="2.10312">
        <ele>287</ele>
        <time>2025-10-05T13:43:28.000Z</time>
      </trkpt>
      <trkpt lat="43.80364" lon="2.10308">
        <ele>287</ele>
        <time>2025-10-05T13:43:33.000Z</time>
      </trkpt>
      <trkpt lat="43.80361" lon="2.10304">
        <ele>286</ele>
        <time>2025-10-05T13:43:38.000Z</time>
      </trkpt>
      <trkpt lat="43.80356" lon="2.103">
        <ele>284</ele>
        <time>2025-10-05T13:43:43.000Z</time>
      </trkpt>
      <trkpt lat="43.80352" lon="2.10297">
        <ele>284</ele>
        <time>2025-10-05T13:43:48.000Z</time>
      </trkpt>
      <trkpt lat="43.80347" lon="2.10294">
        <ele>284</ele>
        <time>2025-10-05T13:43:53.000Z</time>
      </trkpt>
      <trkpt lat="43.80342" lon="2.1029">
        <ele>286</ele>
        <time>2025-10-05T13:43:58.000Z</time>
      </trkpt>
      <trkpt lat="43.80337" lon="2.10286">
        <ele>285</ele>
        <time>2025-10-05T13:44:03.000Z</time>
      </trkpt>
      <trkpt lat="43.80332" lon="2.10283">
        <ele>286</ele>
        <time>2025-10-05T13:44:08.000Z</time>
      </trkpt>
      <trkpt lat="43.80328" lon="2.10278">
        <ele>286</ele>
        <time>2025-10-05T13:44:13.000Z</time>
      </trkpt>
      <trkpt lat="43.80325" lon="2.10274">
        <ele>287</ele>
        <time>2025-10-05T13:44:18.000Z</time>
      </trkpt>
      <trkpt lat="43.80323" lon="2.10268">
        <ele>287</ele>
        <time>2025-10-05T13:44:23.000Z</time>
      </trkpt>
      <trkpt lat="43.80322" lon="2.10261">
        <ele>286</ele>
        <time>2025-10-05T13:44:28.000Z</time>
      </trkpt>
      <trkpt lat="43.80319" lon="2.10255">
        <ele>287</ele>
        <time>2025-10-05T13:44:33.000Z</time>
      </trkpt>
      <trkpt lat="43.80317" lon="2.10249">
        <ele>287</ele>
        <time>2025-10-05T13:44:38.000Z</time>
      </trkpt>
      <trkpt lat="43.80317" lon="2.10244">
        <ele>288</ele>
        <time>2025-10-05T13:44:43.000Z</time>
      </trkpt>
      <trkpt lat="43.80314" lon="2.10237">
        <ele>288</ele>
        <time>2025-10-05T13:44:48.000Z</time>
      </trkpt>
      <trkpt lat="43.80313" lon="2.1023">
        <ele>288</ele>
        <time>2025-10-05T13:44:53.000Z</time>
      </trkpt>
      <trkpt lat="43.80314" lon="2.10224">
        <ele>286</ele>
        <time>2025-10-05T13:44:58.000Z</time>
      </trkpt>
      <trkpt lat="43.80312" lon="2.10217">
        <ele>286</ele>
        <time>2025-10-05T13:45:03.000Z</time>
      </trkpt>
      <trkpt lat="43.80313" lon="2.1021">
        <ele>287</ele>
        <time>2025-10-05T13:45:08.000Z</time>
      </trkpt>
      <trkpt lat="43.80312" lon="2.10202">
        <ele>288</ele>
        <time>2025-10-05T13:45:13.000Z</time>
      </trkpt>
      <trkpt lat="43.8031" lon="2.10195">
        <ele>289</ele>
        <time>2025-10-05T13:45:18.000Z</time>
      </trkpt>
      <trkpt lat="43.80308" lon="2.10189">
        <ele>289</ele>
        <time>2025-10-05T13:45:23.000Z</time>
      </trkpt>
      <trkpt lat="43.80305" lon="2.10182">
        <ele>291</ele>
        <time>2025-10-05T13:45:28.000Z</time>
      </trkpt>
      <trkpt lat="43.80303" lon="2.10176">
        <ele>291</ele>
        <time>2025-10-05T13:45:33.000Z</time>
      </trkpt>
      <trkpt lat="43.80299" lon="2.10173">
        <ele>291</ele>
        <time>2025-10-05T13:45:38.000Z</time>
      </trkpt>
      <trkpt lat="43.80296" lon="2.10167">
        <ele>292</ele>
        <time>2025-10-05T13:45:43.000Z</time>
      </trkpt>
      <trkpt lat="43.80293" lon="2.10161">
        <ele>292</ele>
        <time>2025-10-05T13:45:48.000Z</time>
      </trkpt>
      <trkpt lat="43.8029" lon="2.10156">
        <ele>293</ele>
        <time>2025-10-05T13:45:53.000Z</time>
      </trkpt>
      <trkpt lat="43.80289" lon="2.10152">
        <ele>292</ele>
        <time>2025-10-05T13:45:58.000Z</time>
      </trkpt>
      <trkpt lat="43.80286" lon="2.10148">
        <ele>291</ele>
        <time>2025-10-05T13:46:03.000Z</time>
      </trkpt>
      <trkpt lat="43.80283" lon="2.10144">
        <ele>291</ele>
        <time>2025-10-05T13:46:08.000Z</time>
      </trkpt>
      <trkpt lat="43.8028" lon="2.1014">
        <ele>292</ele>
        <time>2025-10-05T13:46:13.000Z</time>
      </trkpt>
      <trkpt lat="43.80276" lon="2.10136">
        <ele>292</ele>
        <time>2025-10-05T13:46:18.000Z</time>
      </trkpt>
      <trkpt lat="43.80273" lon="2.10132">
        <ele>293</ele>
        <time>2025-10-05T13:46:23.000Z</time>
      </trkpt>
      <trkpt lat="43.8027" lon="2.1013">
        <ele>292</ele>
        <time>2025-10-05T13:46:28.000Z</time>
      </trkpt>
      <trkpt lat="43.80267" lon="2.10125">
        <ele>292</ele>
        <time>2025-10-05T13:46:33.000Z</time>
      </trkpt>
      <trkpt lat="43.80265" lon="2.10121">
        <ele>293</ele>
        <time>2025-10-05T13:46:38.000Z</time>
      </trkpt>
      <trkpt lat="43.80261" lon="2.10117">
        <ele>294</ele>
        <time>2025-10-05T13:46:43.000Z</time>
      </trkpt>
      <trkpt lat="43.80259" lon="2.10113">
        <ele>294</ele>
        <time>2025-10-05T13:46:48.000Z</time>
      </trkpt>
      <trkpt lat="43.80257" lon="2.10109">
        <ele>295</ele>
        <time>2025-10-05T13:46:53.000Z</time>
      </trkpt>
      <trkpt lat="43.80253" lon="2.10105">
        <ele>295</ele>
        <time>2025-10-05T13:46:58.000Z</time>
      </trkpt>
      <trkpt lat="43.80249" lon="2.101">
        <ele>295</ele>
        <time>2025-10-05T13:47:03.000Z</time>
      </trkpt>
      <trkpt lat="43.80245" lon="2.10097">
        <ele>298</ele>
        <time>2025-10-05T13:47:08.000Z</time>
      </trkpt>
      <trkpt lat="43.8024" lon="2.10094">
        <ele>299</ele>
        <time>2025-10-05T13:47:13.000Z</time>
      </trkpt>
      <trkpt lat="43.80238" lon="2.10091">
        <ele>299</ele>
        <time>2025-10-05T13:47:18.000Z</time>
      </trkpt>
      <trkpt lat="43.80235" lon="2.10085">
        <ele>300</ele>
        <time>2025-10-05T13:47:23.000Z</time>
      </trkpt>
      <trkpt lat="43.80232" lon="2.10079">
        <ele>301</ele>
        <time>2025-10-05T13:47:28.000Z</time>
      </trkpt>
      <trkpt lat="43.80229" lon="2.10072">
        <ele>302</ele>
        <time>2025-10-05T13:47:33.000Z</time>
      </trkpt>
      <trkpt lat="43.80227" lon="2.10066">
        <ele>301</ele>
        <time>2025-10-05T13:47:38.000Z</time>
      </trkpt>
      <trkpt lat="43.80226" lon="2.10061">
        <ele>301</ele>
        <time>2025-10-05T13:47:43.000Z</time>
      </trkpt>
      <trkpt lat="43.80223" lon="2.10055">
        <ele>302</ele>
        <time>2025-10-05T13:47:48.000Z</time>
      </trkpt>
      <trkpt lat="43.80219" lon="2.10051">
        <ele>302</ele>
        <time>2025-10-05T13:47:53.000Z</time>
      </trkpt>
      <trkpt lat="43.80215" lon="2.10046">
        <ele>304</ele>
        <time>2025-10-05T13:47:58.000Z</time>
      </trkpt>
      <trkpt lat="43.80212" lon="2.1004">
        <ele>302</ele>
        <time>2025-10-05T13:48:03.000Z</time>
      </trkpt>
      <trkpt lat="43.80209" lon="2.10035">
        <ele>302</ele>
        <time>2025-10-05T13:48:08.000Z</time>
      </trkpt>
      <trkpt lat="43.80207" lon="2.10027">
        <ele>303</ele>
        <time>2025-10-05T13:48:13.000Z</time>
      </trkpt>
      <trkpt lat="43.80205" lon="2.1002">
        <ele>303</ele>
        <time>2025-10-05T13:48:18.000Z</time>
      </trkpt>
      <trkpt lat="43.80203" lon="2.10013">
        <ele>302</ele>
        <time>2025-10-05T13:48:23.000Z</time>
      </trkpt>
      <trkpt lat="43.80203" lon="2.10012">
        <ele>302</ele>
        <time>2025-10-05T13:48:28.000Z</time>
      </trkpt>
      <trkpt lat="43.80203" lon="2.10012">
        <ele>302</ele>
        <time>2025-10-05T13:48:33.000Z</time>
      </trkpt>
      <trkpt lat="43.80204" lon="2.10011">
        <ele>301</ele>
        <time>2025-10-05T13:48:38.000Z</time>
      </trkpt>
      <trkpt lat="43.80205" lon="2.10011">
        <ele>300</ele>
        <time>2025-10-05T13:48:43.000Z</time>
      </trkpt>
      <trkpt lat="43.80205" lon="2.10011">
        <ele>300</ele>
        <time>2025-10-05T13:48:48.000Z</time>
      </trkpt>
      <trkpt lat="43.80205" lon="2.10011">
        <ele>300</ele>
        <time>2025-10-05T13:48:53.000Z</time>
      </trkpt>
      <trkpt lat="43.80206" lon="2.10009">
        <ele>299</ele>
        <time>2025-10-05T13:48:58.000Z</time>
      </trkpt>
      <trkpt lat="43.80206" lon="2.10009">
        <ele>299</ele>
        <time>2025-10-05T13:49:03.000Z</time>
      </trkpt>
      <trkpt lat="43.80205" lon="2.1001">
        <ele>300</ele>
        <time>2025-10-05T13:49:08.000Z</time>
      </trkpt>
      <trkpt lat="43.80206" lon="2.1001">
        <ele>300</ele>
        <time>2025-10-05T13:49:13.000Z</time>
      </trkpt>
      <trkpt lat="43.80206" lon="2.1001">
        <ele>301</ele>
        <time>2025-10-05T13:49:18.000Z</time>
      </trkpt>
      <trkpt lat="43.80206" lon="2.1001">
        <ele>300</ele>
        <time>2025-10-05T13:49:23.000Z</time>
      </trkpt>
      <trkpt lat="43.80206" lon="2.1001">
        <ele>300</ele>
        <time>2025-10-05T13:49:28.000Z</time>
      </trkpt>
      <trkpt lat="43.80205" lon="2.1001">
        <ele>300</ele>
        <time>2025-10-05T13:49:33.000Z</time>
      </trkpt>
      <trkpt lat="43.80205" lon="2.10009">
        <ele>300</ele>
        <time>2025-10-05T13:49:38.000Z</time>
      </trkpt>
      <trkpt lat="43.80205" lon="2.10009">
        <ele>300</ele>
        <time>2025-10-05T13:49:43.000Z</time>
      </trkpt>
      <trkpt lat="43.80205" lon="2.1001">
        <ele>302</ele>
        <time>2025-10-05T13:49:48.000Z</time>
      </trkpt>
      <trkpt lat="43.80205" lon="2.1001">
        <ele>302</ele>
        <time>2025-10-05T13:49:53.000Z</time>
      </trkpt>
      <trkpt lat="43.80205" lon="2.10011">
        <ele>302</ele>
        <time>2025-10-05T13:49:58.000Z</time>
      </trkpt>
      <trkpt lat="43.80208" lon="2.10016">
        <ele>302</ele>
        <time>2025-10-05T13:50:03.000Z</time>
      </trkpt>
      <trkpt lat="43.8021" lon="2.10023">
        <ele>302</ele>
        <time>2025-10-05T13:50:08.000Z</time>
      </trkpt>
      <trkpt lat="43.80213" lon="2.10029">
        <ele>303</ele>
        <time>2025-10-05T13:50:13.000Z</time>
      </trkpt>
      <trkpt lat="43.80214" lon="2.10036">
        <ele>303</ele>
        <time>2025-10-05T13:50:18.000Z</time>
      </trkpt>
      <trkpt lat="43.80215" lon="2.10043">
        <ele>303</ele>
        <time>2025-10-05T13:50:23.000Z</time>
      </trkpt>
      <trkpt lat="43.80214" lon="2.10051">
        <ele>301</ele>
        <time>2025-10-05T13:50:28.000Z</time>
      </trkpt>
      <trkpt lat="43.80214" lon="2.10056">
        <ele>302</ele>
        <time>2025-10-05T13:50:33.000Z</time>
      </trkpt>
      <trkpt lat="43.80212" lon="2.10062">
        <ele>302</ele>
        <time>2025-10-05T13:50:38.000Z</time>
      </trkpt>
      <trkpt lat="43.8021" lon="2.10066">
        <ele>303</ele>
        <time>2025-10-05T13:50:43.000Z</time>
      </trkpt>
      <trkpt lat="43.80205" lon="2.10066">
        <ele>303</ele>
        <time>2025-10-05T13:50:48.000Z</time>
      </trkpt>
      <trkpt lat="43.802" lon="2.10066">
        <ele>304</ele>
        <time>2025-10-05T13:50:53.000Z</time>
      </trkpt>
      <trkpt lat="43.80196" lon="2.10064">
        <ele>303</ele>
        <time>2025-10-05T13:50:58.000Z</time>
      </trkpt>
      <trkpt lat="43.80191" lon="2.10064">
        <ele>304</ele>
        <time>2025-10-05T13:51:03.000Z</time>
      </trkpt>
      <trkpt lat="43.80185" lon="2.10062">
        <ele>302</ele>
        <time>2025-10-05T13:51:08.000Z</time>
      </trkpt>
      <trkpt lat="43.8018" lon="2.10061">
        <ele>300</ele>
        <time>2025-10-05T13:51:13.000Z</time>
      </trkpt>
      <trkpt lat="43.80175" lon="2.10061">
        <ele>300</ele>
        <time>2025-10-05T13:51:18.000Z</time>
      </trkpt>
      <trkpt lat="43.8017" lon="2.1006">
        <ele>300</ele>
        <time>2025-10-05T13:51:23.000Z</time>
      </trkpt>
      <trkpt lat="43.80165" lon="2.10059">
        <ele>300</ele>
        <time>2025-10-05T13:51:28.000Z</time>
      </trkpt>
      <trkpt lat="43.8016" lon="2.10058">
        <ele>299</ele>
        <time>2025-10-05T13:51:33.000Z</time>
      </trkpt>
      <trkpt lat="43.80155" lon="2.10058">
        <ele>297</ele>
        <time>2025-10-05T13:51:38.000Z</time>
      </trkpt>
      <trkpt lat="43.8015" lon="2.10057">
        <ele>298</ele>
        <time>2025-10-05T13:51:43.000Z</time>
      </trkpt>
      <trkpt lat="43.80145" lon="2.10056">
        <ele>296</ele>
        <time>2025-10-05T13:51:48.000Z</time>
      </trkpt>
      <trkpt lat="43.8014" lon="2.10055">
        <ele>295</ele>
        <time>2025-10-05T13:51:53.000Z</time>
      </trkpt>
      <trkpt lat="43.80134" lon="2.10053">
        <ele>294</ele>
        <time>2025-10-05T13:51:58.000Z</time>
      </trkpt>
      <trkpt lat="43.80128" lon="2.10051">
        <ele>294</ele>
        <time>2025-10-05T13:52:03.000Z</time>
      </trkpt>
      <trkpt lat="43.80123" lon="2.1005">
        <ele>294</ele>
        <time>2025-10-05T13:52:08.000Z</time>
      </trkpt>
      <trkpt lat="43.80118" lon="2.10049">
        <ele>295</ele>
        <time>2025-10-05T13:52:13.000Z</time>
      </trkpt>
      <trkpt lat="43.80112" lon="2.10048">
        <ele>292</ele>
        <time>2025-10-05T13:52:18.000Z</time>
      </trkpt>
      <trkpt lat="43.80106" lon="2.10047">
        <ele>291</ele>
        <time>2025-10-05T13:52:23.000Z</time>
      </trkpt>
      <trkpt lat="43.80101" lon="2.10044">
        <ele>289</ele>
        <time>2025-10-05T13:52:28.000Z</time>
      </trkpt>
      <trkpt lat="43.80096" lon="2.10043">
        <ele>289</ele>
        <time>2025-10-05T13:52:33.000Z</time>
      </trkpt>
      <trkpt lat="43.8009" lon="2.10042">
        <ele>288</ele>
        <time>2025-10-05T13:52:38.000Z</time>
      </trkpt>
      <trkpt lat="43.80085" lon="2.10042">
        <ele>287</ele>
        <time>2025-10-05T13:52:43.000Z</time>
      </trkpt>
      <trkpt lat="43.8008" lon="2.10041">
        <ele>287</ele>
        <time>2025-10-05T13:52:48.000Z</time>
      </trkpt>
      <trkpt lat="43.80075" lon="2.1004">
        <ele>287</ele>
        <time>2025-10-05T13:52:53.000Z</time>
      </trkpt>
      <trkpt lat="43.8007" lon="2.10039">
        <ele>288</ele>
        <time>2025-10-05T13:52:58.000Z</time>
      </trkpt>
      <trkpt lat="43.80065" lon="2.10038">
        <ele>288</ele>
        <time>2025-10-05T13:53:03.000Z</time>
      </trkpt>
      <trkpt lat="43.80061" lon="2.10037">
        <ele>286</ele>
        <time>2025-10-05T13:53:08.000Z</time>
      </trkpt>
      <trkpt lat="43.80058" lon="2.10035">
        <ele>285</ele>
        <time>2025-10-05T13:53:13.000Z</time>
      </trkpt>
      <trkpt lat="43.80053" lon="2.10033">
        <ele>286</ele>
        <time>2025-10-05T13:53:18.000Z</time>
      </trkpt>
      <trkpt lat="43.8005" lon="2.10032">
        <ele>285</ele>
        <time>2025-10-05T13:53:23.000Z</time>
      </trkpt>
      <trkpt lat="43.80045" lon="2.10031">
        <ele>287</ele>
        <time>2025-10-05T13:53:28.000Z</time>
      </trkpt>
      <trkpt lat="43.8004" lon="2.10032">
        <ele>286</ele>
        <time>2025-10-05T13:53:33.000Z</time>
      </trkpt>
      <trkpt lat="43.80035" lon="2.10031">
        <ele>286</ele>
        <time>2025-10-05T13:53:38.000Z</time>
      </trkpt>
      <trkpt lat="43.8003" lon="2.10029">
        <ele>285</ele>
        <time>2025-10-05T13:53:43.000Z</time>
      </trkpt>
      <trkpt lat="43.80025" lon="2.10028">
        <ele>286</ele>
        <time>2025-10-05T13:53:48.000Z</time>
      </trkpt>
      <trkpt lat="43.80021" lon="2.10028">
        <ele>287</ele>
        <time>2025-10-05T13:53:53.000Z</time>
      </trkpt>
      <trkpt lat="43.80016" lon="2.10031">
        <ele>288</ele>
        <time>2025-10-05T13:53:58.000Z</time>
      </trkpt>
      <trkpt lat="43.80011" lon="2.10033">
        <ele>288</ele>
        <time>2025-10-05T13:54:03.000Z</time>
      </trkpt>
      <trkpt lat="43.80005" lon="2.10035">
        <ele>289</ele>
        <time>2025-10-05T13:54:08.000Z</time>
      </trkpt>
      <trkpt lat="43.80001" lon="2.10037">
        <ele>289</ele>
        <time>2025-10-05T13:54:13.000Z</time>
      </trkpt>
      <trkpt lat="43.79997" lon="2.10038">
        <ele>289</ele>
        <time>2025-10-05T13:54:18.000Z</time>
      </trkpt>
      <trkpt lat="43.79991" lon="2.10041">
        <ele>287</ele>
        <time>2025-10-05T13:54:23.000Z</time>
      </trkpt>
      <trkpt lat="43.79987" lon="2.10045">
        <ele>287</ele>
        <time>2025-10-05T13:54:28.000Z</time>
      </trkpt>
      <trkpt lat="43.79983" lon="2.10049">
        <ele>288</ele>
        <time>2025-10-05T13:54:33.000Z</time>
      </trkpt>
      <trkpt lat="43.79979" lon="2.10053">
        <ele>288</ele>
        <time>2025-10-05T13:54:38.000Z</time>
      </trkpt>
      <trkpt lat="43.79974" lon="2.10057">
        <ele>288</ele>
        <time>2025-10-05T13:54:43.000Z</time>
      </trkpt>
      <trkpt lat="43.79968" lon="2.10059">
        <ele>288</ele>
        <time>2025-10-05T13:54:48.000Z</time>
      </trkpt>
      <trkpt lat="43.79963" lon="2.10061">
        <ele>289</ele>
        <time>2025-10-05T13:54:53.000Z</time>
      </trkpt>
      <trkpt lat="43.79956" lon="2.10062">
        <ele>290</ele>
        <time>2025-10-05T13:54:58.000Z</time>
      </trkpt>
      <trkpt lat="43.79952" lon="2.10062">
        <ele>291</ele>
        <time>2025-10-05T13:55:03.000Z</time>
      </trkpt>
      <trkpt lat="43.79953" lon="2.10063">
        <ele>291</ele>
        <time>2025-10-05T13:55:08.000Z</time>
      </trkpt>
      <trkpt lat="43.79949" lon="2.1006">
        <ele>291</ele>
        <time>2025-10-05T13:55:13.000Z</time>
      </trkpt>
      <trkpt lat="43.79944" lon="2.10061">
        <ele>292</ele>
        <time>2025-10-05T13:55:18.000Z</time>
      </trkpt>
      <trkpt lat="43.79938" lon="2.10059">
        <ele>291</ele>
        <time>2025-10-05T13:55:23.000Z</time>
      </trkpt>
      <trkpt lat="43.79933" lon="2.10059">
        <ele>290</ele>
        <time>2025-10-05T13:55:28.000Z</time>
      </trkpt>
      <trkpt lat="43.79928" lon="2.10059">
        <ele>290</ele>
        <time>2025-10-05T13:55:33.000Z</time>
      </trkpt>
      <trkpt lat="43.79923" lon="2.10058">
        <ele>289</ele>
        <time>2025-10-05T13:55:38.000Z</time>
      </trkpt>
      <trkpt lat="43.79917" lon="2.10058">
        <ele>290</ele>
        <time>2025-10-05T13:55:43.000Z</time>
      </trkpt>
      <trkpt lat="43.79912" lon="2.10059">
        <ele>289</ele>
        <time>2025-10-05T13:55:48.000Z</time>
      </trkpt>
      <trkpt lat="43.79906" lon="2.10059">
        <ele>290</ele>
        <time>2025-10-05T13:55:53.000Z</time>
      </trkpt>
      <trkpt lat="43.79902" lon="2.10058">
        <ele>290</ele>
        <time>2025-10-05T13:55:58.000Z</time>
      </trkpt>
      <trkpt lat="43.79895" lon="2.10057">
        <ele>291</ele>
        <time>2025-10-05T13:56:03.000Z</time>
      </trkpt>
      <trkpt lat="43.7989" lon="2.10056">
        <ele>289</ele>
        <time>2025-10-05T13:56:08.000Z</time>
      </trkpt>
      <trkpt lat="43.79884" lon="2.10056">
        <ele>290</ele>
        <time>2025-10-05T13:56:13.000Z</time>
      </trkpt>
      <trkpt lat="43.79879" lon="2.10056">
        <ele>290</ele>
        <time>2025-10-05T13:56:18.000Z</time>
      </trkpt>
      <trkpt lat="43.79874" lon="2.10056">
        <ele>289</ele>
        <time>2025-10-05T13:56:23.000Z</time>
      </trkpt>
      <trkpt lat="43.79869" lon="2.10054">
        <ele>289</ele>
        <time>2025-10-05T13:56:28.000Z</time>
      </trkpt>
      <trkpt lat="43.79862" lon="2.10052">
        <ele>288</ele>
        <time>2025-10-05T13:56:33.000Z</time>
      </trkpt>
      <trkpt lat="43.79856" lon="2.10051">
        <ele>289</ele>
        <time>2025-10-05T13:56:38.000Z</time>
      </trkpt>
      <trkpt lat="43.7985" lon="2.1005">
        <ele>289</ele>
        <time>2025-10-05T13:56:43.000Z</time>
      </trkpt>
      <trkpt lat="43.79845" lon="2.10049">
        <ele>290</ele>
        <time>2025-10-05T13:56:48.000Z</time>
      </trkpt>
      <trkpt lat="43.7984" lon="2.10048">
        <ele>289</ele>
        <time>2025-10-05T13:56:53.000Z</time>
      </trkpt>
      <trkpt lat="43.79834" lon="2.10048">
        <ele>290</ele>
        <time>2025-10-05T13:56:58.000Z</time>
      </trkpt>
      <trkpt lat="43.79828" lon="2.10048">
        <ele>291</ele>
        <time>2025-10-05T13:57:03.000Z</time>
      </trkpt>
      <trkpt lat="43.79823" lon="2.10047">
        <ele>290</ele>
        <time>2025-10-05T13:57:08.000Z</time>
      </trkpt>
      <trkpt lat="43.79817" lon="2.10046">
        <ele>289</ele>
        <time>2025-10-05T13:57:13.000Z</time>
      </trkpt>
      <trkpt lat="43.79812" lon="2.10044">
        <ele>290</ele>
        <time>2025-10-05T13:57:18.000Z</time>
      </trkpt>
      <trkpt lat="43.79806" lon="2.10041">
        <ele>290</ele>
        <time>2025-10-05T13:57:23.000Z</time>
      </trkpt>
      <trkpt lat="43.798" lon="2.10039">
        <ele>289</ele>
        <time>2025-10-05T13:57:28.000Z</time>
      </trkpt>
      <trkpt lat="43.79796" lon="2.10038">
        <ele>291</ele>
        <time>2025-10-05T13:57:33.000Z</time>
      </trkpt>
      <trkpt lat="43.7979" lon="2.10036">
        <ele>291</ele>
        <time>2025-10-05T13:57:38.000Z</time>
      </trkpt>
      <trkpt lat="43.79785" lon="2.10035">
        <ele>291</ele>
        <time>2025-10-05T13:57:43.000Z</time>
      </trkpt>
      <trkpt lat="43.79779" lon="2.10034">
        <ele>290</ele>
        <time>2025-10-05T13:57:48.000Z</time>
      </trkpt>
      <trkpt lat="43.79774" lon="2.10034">
        <ele>290</ele>
        <time>2025-10-05T13:57:53.000Z</time>
      </trkpt>
      <trkpt lat="43.79768" lon="2.10031">
        <ele>290</ele>
        <time>2025-10-05T13:57:58.000Z</time>
      </trkpt>
      <trkpt lat="43.79763" lon="2.1003">
        <ele>291</ele>
        <time>2025-10-05T13:58:03.000Z</time>
      </trkpt>
      <trkpt lat="43.79758" lon="2.10028">
        <ele>290</ele>
        <time>2025-10-05T13:58:08.000Z</time>
      </trkpt>
      <trkpt lat="43.79753" lon="2.10026">
        <ele>290</ele>
        <time>2025-10-05T13:58:13.000Z</time>
      </trkpt>
      <trkpt lat="43.79747" lon="2.10024">
        <ele>290</ele>
        <time>2025-10-05T13:58:18.000Z</time>
      </trkpt>
      <trkpt lat="43.79741" lon="2.10023">
        <ele>290</ele>
        <time>2025-10-05T13:58:23.000Z</time>
      </trkpt>
      <trkpt lat="43.79736" lon="2.10021">
        <ele>289</ele>
        <time>2025-10-05T13:58:28.000Z</time>
      </trkpt>
      <trkpt lat="43.7973" lon="2.10019">
        <ele>290</ele>
        <time>2025-10-05T13:58:33.000Z</time>
      </trkpt>
      <trkpt lat="43.79724" lon="2.10018">
        <ele>289</ele>
        <time>2025-10-05T13:58:38.000Z</time>
      </trkpt>
      <trkpt lat="43.79719" lon="2.10017">
        <ele>290</ele>
        <time>2025-10-05T13:58:43.000Z</time>
      </trkpt>
      <trkpt lat="43.79713" lon="2.10017">
        <ele>290</ele>
        <time>2025-10-05T13:58:48.000Z</time>
      </trkpt>
      <trkpt lat="43.79708" lon="2.10016">
        <ele>290</ele>
        <time>2025-10-05T13:58:53.000Z</time>
      </trkpt>
      <trkpt lat="43.79702" lon="2.10014">
        <ele>290</ele>
        <time>2025-10-05T13:58:58.000Z</time>
      </trkpt>
      <trkpt lat="43.79697" lon="2.10013">
        <ele>290</ele>
        <time>2025-10-05T13:59:03.000Z</time>
      </trkpt>
      <trkpt lat="43.79692" lon="2.10013">
        <ele>290</ele>
        <time>2025-10-05T13:59:08.000Z</time>
      </trkpt>
      <trkpt lat="43.79686" lon="2.10012">
        <ele>289</ele>
        <time>2025-10-05T13:59:13.000Z</time>
      </trkpt>
      <trkpt lat="43.7968" lon="2.10012">
        <ele>289</ele>
        <time>2025-10-05T13:59:18.000Z</time>
      </trkpt>
      <trkpt lat="43.79674" lon="2.10011">
        <ele>289</ele>
        <time>2025-10-05T13:59:23.000Z</time>
      </trkpt>
      <trkpt lat="43.79669" lon="2.10009">
        <ele>289</ele>
        <time>2025-10-05T13:59:28.000Z</time>
      </trkpt>
      <trkpt lat="43.79664" lon="2.10008">
        <ele>290</ele>
        <time>2025-10-05T13:59:33.000Z</time>
      </trkpt>
      <trkpt lat="43.79659" lon="2.10007">
        <ele>288</ele>
        <time>2025-10-05T13:59:38.000Z</time>
      </trkpt>
      <trkpt lat="43.79653" lon="2.10006">
        <ele>289</ele>
        <time>2025-10-05T13:59:43.000Z</time>
      </trkpt>
      <trkpt lat="43.79648" lon="2.10004">
        <ele>288</ele>
        <time>2025-10-05T13:59:48.000Z</time>
      </trkpt>
      <trkpt lat="43.79642" lon="2.10004">
        <ele>288</ele>
        <time>2025-10-05T13:59:53.000Z</time>
      </trkpt>
      <trkpt lat="43.79636" lon="2.10002">
        <ele>289</ele>
        <time>2025-10-05T13:59:58.000Z</time>
      </trkpt>
      <trkpt lat="43.7963" lon="2.10001">
        <ele>289</ele>
        <time>2025-10-05T14:00:03.000Z</time>
      </trkpt>
      <trkpt lat="43.79625" lon="2.09999">
        <ele>289</ele>
        <time>2025-10-05T14:00:08.000Z</time>
      </trkpt>
      <trkpt lat="43.7962" lon="2.09998">
        <ele>289</ele>
        <time>2025-10-05T14:00:13.000Z</time>
      </trkpt>
      <trkpt lat="43.79614" lon="2.09996">
        <ele>289</ele>
        <time>2025-10-05T14:00:18.000Z</time>
      </trkpt>
      <trkpt lat="43.79609" lon="2.09993">
        <ele>289</ele>
        <time>2025-10-05T14:00:23.000Z</time>
      </trkpt>
      <trkpt lat="43.79604" lon="2.0999">
        <ele>290</ele>
        <time>2025-10-05T14:00:28.000Z</time>
      </trkpt>
      <trkpt lat="43.79601" lon="2.09986">
        <ele>288</ele>
        <time>2025-10-05T14:00:33.000Z</time>
      </trkpt>
      <trkpt lat="43.79594" lon="2.09982">
        <ele>286</ele>
        <time>2025-10-05T14:00:38.000Z</time>
      </trkpt>
      <trkpt lat="43.7959" lon="2.09979">
        <ele>287</ele>
        <time>2025-10-05T14:00:43.000Z</time>
      </trkpt>
      <trkpt lat="43.79586" lon="2.09975">
        <ele>288</ele>
        <time>2025-10-05T14:00:48.000Z</time>
      </trkpt>
      <trkpt lat="43.79582" lon="2.09971">
        <ele>288</ele>
        <time>2025-10-05T14:00:53.000Z</time>
      </trkpt>
      <trkpt lat="43.79579" lon="2.09968">
        <ele>287</ele>
        <time>2025-10-05T14:00:58.000Z</time>
      </trkpt>
      <trkpt lat="43.79574" lon="2.09964">
        <ele>287</ele>
        <time>2025-10-05T14:01:03.000Z</time>
      </trkpt>
      <trkpt lat="43.79573" lon="2.09963">
        <ele>287</ele>
        <time>2025-10-05T14:01:08.000Z</time>
      </trkpt>
      <trkpt lat="43.79573" lon="2.09962">
        <ele>286</ele>
        <time>2025-10-05T14:01:13.000Z</time>
      </trkpt>
      <trkpt lat="43.79572" lon="2.09962">
        <ele>286</ele>
        <time>2025-10-05T14:01:18.000Z</time>
      </trkpt>
      <trkpt lat="43.79568" lon="2.09959">
        <ele>287</ele>
        <time>2025-10-05T14:01:23.000Z</time>
      </trkpt>
      <trkpt lat="43.79565" lon="2.09955">
        <ele>288</ele>
        <time>2025-10-05T14:01:28.000Z</time>
      </trkpt>
      <trkpt lat="43.79561" lon="2.09951">
        <ele>287</ele>
        <time>2025-10-05T14:01:33.000Z</time>
      </trkpt>
      <trkpt lat="43.79557" lon="2.09947">
        <ele>288</ele>
        <time>2025-10-05T14:01:38.000Z</time>
      </trkpt>
      <trkpt lat="43.79554" lon="2.09942">
        <ele>289</ele>
        <time>2025-10-05T14:01:43.000Z</time>
      </trkpt>
      <trkpt lat="43.79551" lon="2.09939">
        <ele>289</ele>
        <time>2025-10-05T14:01:48.000Z</time>
      </trkpt>
      <trkpt lat="43.79547" lon="2.09934">
        <ele>289</ele>
        <time>2025-10-05T14:01:53.000Z</time>
      </trkpt>
      <trkpt lat="43.79542" lon="2.0993">
        <ele>290</ele>
        <time>2025-10-05T14:01:58.000Z</time>
      </trkpt>
      <trkpt lat="43.79538" lon="2.09925">
        <ele>290</ele>
        <time>2025-10-05T14:02:03.000Z</time>
      </trkpt>
      <trkpt lat="43.79534" lon="2.09921">
        <ele>292</ele>
        <time>2025-10-05T14:02:08.000Z</time>
      </trkpt>
      <trkpt lat="43.79531" lon="2.09917">
        <ele>292</ele>
        <time>2025-10-05T14:02:13.000Z</time>
      </trkpt>
      <trkpt lat="43.79527" lon="2.09913">
        <ele>292</ele>
        <time>2025-10-05T14:02:18.000Z</time>
      </trkpt>
      <trkpt lat="43.79524" lon="2.0991">
        <ele>291</ele>
        <time>2025-10-05T14:02:23.000Z</time>
      </trkpt>
      <trkpt lat="43.79519" lon="2.09906">
        <ele>293</ele>
        <time>2025-10-05T14:02:28.000Z</time>
      </trkpt>
      <trkpt lat="43.79515" lon="2.09902">
        <ele>293</ele>
        <time>2025-10-05T14:02:33.000Z</time>
      </trkpt>
      <trkpt lat="43.79511" lon="2.09897">
        <ele>294</ele>
        <time>2025-10-05T14:02:38.000Z</time>
      </trkpt>
      <trkpt lat="43.79508" lon="2.09893">
        <ele>293</ele>
        <time>2025-10-05T14:02:43.000Z</time>
      </trkpt>
      <trkpt lat="43.79504" lon="2.09889">
        <ele>294</ele>
        <time>2025-10-05T14:02:48.000Z</time>
      </trkpt>
      <trkpt lat="43.79501" lon="2.09884">
        <ele>294</ele>
        <time>2025-10-05T14:02:53.000Z</time>
      </trkpt>
      <trkpt lat="43.79497" lon="2.09881">
        <ele>295</ele>
        <time>2025-10-05T14:02:58.000Z</time>
      </trkpt>
      <trkpt lat="43.79494" lon="2.09878">
        <ele>296</ele>
        <time>2025-10-05T14:03:03.000Z</time>
      </trkpt>
      <trkpt lat="43.7949" lon="2.09874">
        <ele>295</ele>
        <time>2025-10-05T14:03:08.000Z</time>
      </trkpt>
      <trkpt lat="43.79486" lon="2.09869">
        <ele>297</ele>
        <time>2025-10-05T14:03:13.000Z</time>
      </trkpt>
      <trkpt lat="43.79481" lon="2.09865">
        <ele>299</ele>
        <time>2025-10-05T14:03:18.000Z</time>
      </trkpt>
      <trkpt lat="43.79477" lon="2.09861">
        <ele>300</ele>
        <time>2025-10-05T14:03:23.000Z</time>
      </trkpt>
      <trkpt lat="43.79473" lon="2.09856">
        <ele>300</ele>
        <time>2025-10-05T14:03:28.000Z</time>
      </trkpt>
      <trkpt lat="43.79469" lon="2.09852">
        <ele>300</ele>
        <time>2025-10-05T14:03:33.000Z</time>
      </trkpt>
      <trkpt lat="43.79465" lon="2.09847">
        <ele>299</ele>
        <time>2025-10-05T14:03:38.000Z</time>
      </trkpt>
      <trkpt lat="43.79461" lon="2.09843">
        <ele>300</ele>
        <time>2025-10-05T14:03:43.000Z</time>
      </trkpt>
      <trkpt lat="43.79459" lon="2.09841">
        <ele>299</ele>
        <time>2025-10-05T14:03:48.000Z</time>
      </trkpt>
      <trkpt lat="43.79455" lon="2.09836">
        <ele>298</ele>
        <time>2025-10-05T14:03:53.000Z</time>
      </trkpt>
      <trkpt lat="43.7945" lon="2.09832">
        <ele>297</ele>
        <time>2025-10-05T14:03:58.000Z</time>
      </trkpt>
      <trkpt lat="43.79446" lon="2.09828">
        <ele>299</ele>
        <time>2025-10-05T14:04:03.000Z</time>
      </trkpt>
      <trkpt lat="43.79441" lon="2.09824">
        <ele>299</ele>
        <time>2025-10-05T14:04:08.000Z</time>
      </trkpt>
      <trkpt lat="43.79438" lon="2.09822">
        <ele>299</ele>
        <time>2025-10-05T14:04:13.000Z</time>
      </trkpt>
      <trkpt lat="43.79437" lon="2.09822">
        <ele>298</ele>
        <time>2025-10-05T14:04:18.000Z</time>
      </trkpt>
      <trkpt lat="43.79437" lon="2.09822">
        <ele>298</ele>
        <time>2025-10-05T14:04:23.000Z</time>
      </trkpt>
      <trkpt lat="43.79434" lon="2.0982">
        <ele>298</ele>
        <time>2025-10-05T14:04:28.000Z</time>
      </trkpt>
      <trkpt lat="43.79432" lon="2.09821">
        <ele>299</ele>
        <time>2025-10-05T14:04:33.000Z</time>
      </trkpt>
      <trkpt lat="43.79432" lon="2.09823">
        <ele>299</ele>
        <time>2025-10-05T14:04:38.000Z</time>
      </trkpt>
      <trkpt lat="43.79432" lon="2.09823">
        <ele>300</ele>
        <time>2025-10-05T14:04:43.000Z</time>
      </trkpt>
      <trkpt lat="43.79431" lon="2.09822">
        <ele>299</ele>
        <time>2025-10-05T14:04:48.000Z</time>
      </trkpt>
      <trkpt lat="43.79432" lon="2.09822">
        <ele>299</ele>
        <time>2025-10-05T14:04:53.000Z</time>
      </trkpt>
      <trkpt lat="43.79431" lon="2.09827">
        <ele>300</ele>
        <time>2025-10-05T14:04:58.000Z</time>
      </trkpt>
      <trkpt lat="43.79431" lon="2.09832">
        <ele>300</ele>
        <time>2025-10-05T14:05:03.000Z</time>
      </trkpt>
      <trkpt lat="43.79431" lon="2.09834">
        <ele>300</ele>
        <time>2025-10-05T14:05:08.000Z</time>
      </trkpt>
      <trkpt lat="43.79431" lon="2.09837">
        <ele>300</ele>
        <time>2025-10-05T14:05:13.000Z</time>
      </trkpt>
      <trkpt lat="43.7943" lon="2.09842">
        <ele>300</ele>
        <time>2025-10-05T14:05:18.000Z</time>
      </trkpt>
      <trkpt lat="43.79428" lon="2.0985">
        <ele>300</ele>
        <time>2025-10-05T14:05:23.000Z</time>
      </trkpt>
      <trkpt lat="43.79427" lon="2.0986">
        <ele>300</ele>
        <time>2025-10-05T14:05:28.000Z</time>
      </trkpt>
      <trkpt lat="43.79427" lon="2.09866">
        <ele>301</ele>
        <time>2025-10-05T14:05:33.000Z</time>
      </trkpt>
      <trkpt lat="43.79426" lon="2.09873">
        <ele>301</ele>
        <time>2025-10-05T14:05:38.000Z</time>
      </trkpt>
      <trkpt lat="43.79424" lon="2.0988">
        <ele>301</ele>
        <time>2025-10-05T14:05:43.000Z</time>
      </trkpt>
      <trkpt lat="43.79423" lon="2.09886">
        <ele>301</ele>
        <time>2025-10-05T14:05:48.000Z</time>
      </trkpt>
      <trkpt lat="43.79422" lon="2.09893">
        <ele>302</ele>
        <time>2025-10-05T14:05:53.000Z</time>
      </trkpt>
      <trkpt lat="43.7942" lon="2.09901">
        <ele>302</ele>
        <time>2025-10-05T14:05:58.000Z</time>
      </trkpt>
      <trkpt lat="43.7942" lon="2.09907">
        <ele>302</ele>
        <time>2025-10-05T14:06:03.000Z</time>
      </trkpt>
      <trkpt lat="43.79418" lon="2.09913">
        <ele>302</ele>
        <time>2025-10-05T14:06:08.000Z</time>
      </trkpt>
      <trkpt lat="43.79417" lon="2.0992">
        <ele>303</ele>
        <time>2025-10-05T14:06:13.000Z</time>
      </trkpt>
      <trkpt lat="43.79416" lon="2.09927">
        <ele>303</ele>
        <time>2025-10-05T14:06:18.000Z</time>
      </trkpt>
      <trkpt lat="43.79415" lon="2.09934">
        <ele>302</ele>
        <time>2025-10-05T14:06:23.000Z</time>
      </trkpt>
      <trkpt lat="43.79413" lon="2.09941">
        <ele>303</ele>
        <time>2025-10-05T14:06:28.000Z</time>
      </trkpt>
      <trkpt lat="43.79411" lon="2.09949">
        <ele>302</ele>
        <time>2025-10-05T14:06:33.000Z</time>
      </trkpt>
      <trkpt lat="43.79409" lon="2.09955">
        <ele>301</ele>
        <time>2025-10-05T14:06:38.000Z</time>
      </trkpt>
      <trkpt lat="43.79409" lon="2.09962">
        <ele>301</ele>
        <time>2025-10-05T14:06:43.000Z</time>
      </trkpt>
      <trkpt lat="43.79407" lon="2.09969">
        <ele>300</ele>
        <time>2025-10-05T14:06:48.000Z</time>
      </trkpt>
      <trkpt lat="43.79405" lon="2.09976">
        <ele>299</ele>
        <time>2025-10-05T14:06:53.000Z</time>
      </trkpt>
      <trkpt lat="43.79404" lon="2.09983">
        <ele>301</ele>
        <time>2025-10-05T14:06:58.000Z</time>
      </trkpt>
      <trkpt lat="43.79404" lon="2.09991">
        <ele>301</ele>
        <time>2025-10-05T14:07:03.000Z</time>
      </trkpt>
      <trkpt lat="43.79404" lon="2.09997">
        <ele>301</ele>
        <time>2025-10-05T14:07:08.000Z</time>
      </trkpt>
      <trkpt lat="43.79403" lon="2.10005">
        <ele>301</ele>
        <time>2025-10-05T14:07:13.000Z</time>
      </trkpt>
      <trkpt lat="43.79402" lon="2.10013">
        <ele>303</ele>
        <time>2025-10-05T14:07:18.000Z</time>
      </trkpt>
      <trkpt lat="43.79401" lon="2.10019">
        <ele>302</ele>
        <time>2025-10-05T14:07:23.000Z</time>
      </trkpt>
      <trkpt lat="43.79399" lon="2.10028">
        <ele>299</ele>
        <time>2025-10-05T14:07:28.000Z</time>
      </trkpt>
      <trkpt lat="43.79397" lon="2.10033">
        <ele>300</ele>
        <time>2025-10-05T14:07:33.000Z</time>
      </trkpt>
      <trkpt lat="43.79396" lon="2.10039">
        <ele>300</ele>
        <time>2025-10-05T14:07:38.000Z</time>
      </trkpt>
      <trkpt lat="43.79395" lon="2.10045">
        <ele>300</ele>
        <time>2025-10-05T14:07:43.000Z</time>
      </trkpt>
      <trkpt lat="43.79394" lon="2.10051">
        <ele>300</ele>
        <time>2025-10-05T14:07:48.000Z</time>
      </trkpt>
      <trkpt lat="43.79394" lon="2.10054">
        <ele>300</ele>
        <time>2025-10-05T14:07:53.000Z</time>
      </trkpt>
      <trkpt lat="43.79394" lon="2.10054">
        <ele>302</ele>
        <time>2025-10-05T14:07:58.000Z</time>
      </trkpt>
      <trkpt lat="43.79394" lon="2.10054">
        <ele>302</ele>
        <time>2025-10-05T14:08:03.000Z</time>
      </trkpt>
      <trkpt lat="43.79394" lon="2.10054">
        <ele>302</ele>
        <time>2025-10-05T14:08:08.000Z</time>
      </trkpt>
      <trkpt lat="43.79393" lon="2.10054">
        <ele>301</ele>
        <time>2025-10-05T14:08:13.000Z</time>
      </trkpt>
      <trkpt lat="43.79389" lon="2.1006">
        <ele>301</ele>
        <time>2025-10-05T14:08:18.000Z</time>
      </trkpt>
      <trkpt lat="43.79386" lon="2.10065">
        <ele>302</ele>
        <time>2025-10-05T14:08:23.000Z</time>
      </trkpt>
      <trkpt lat="43.79383" lon="2.10071">
        <ele>303</ele>
        <time>2025-10-05T14:08:28.000Z</time>
      </trkpt>
      <trkpt lat="43.79381" lon="2.10077">
        <ele>302</ele>
        <time>2025-10-05T14:08:33.000Z</time>
      </trkpt>
      <trkpt lat="43.79378" lon="2.10084">
        <ele>303</ele>
        <time>2025-10-05T14:08:38.000Z</time>
      </trkpt>
      <trkpt lat="43.79375" lon="2.10087">
        <ele>303</ele>
        <time>2025-10-05T14:08:43.000Z</time>
      </trkpt>
      <trkpt lat="43.79373" lon="2.10094">
        <ele>302</ele>
        <time>2025-10-05T14:08:48.000Z</time>
      </trkpt>
      <trkpt lat="43.79369" lon="2.10102">
        <ele>303</ele>
        <time>2025-10-05T14:08:53.000Z</time>
      </trkpt>
      <trkpt lat="43.79367" lon="2.10109">
        <ele>303</ele>
        <time>2025-10-05T14:08:58.000Z</time>
      </trkpt>
      <trkpt lat="43.79365" lon="2.10114">
        <ele>302</ele>
        <time>2025-10-05T14:09:03.000Z</time>
      </trkpt>
      <trkpt lat="43.79363" lon="2.10121">
        <ele>302</ele>
        <time>2025-10-05T14:09:08.000Z</time>
      </trkpt>
      <trkpt lat="43.79361" lon="2.10127">
        <ele>303</ele>
        <time>2025-10-05T14:09:13.000Z</time>
      </trkpt>
      <trkpt lat="43.79358" lon="2.10134">
        <ele>302</ele>
        <time>2025-10-05T14:09:18.000Z</time>
      </trkpt>
      <trkpt lat="43.79355" lon="2.1014">
        <ele>302</ele>
        <time>2025-10-05T14:09:23.000Z</time>
      </trkpt>
      <trkpt lat="43.79352" lon="2.10146">
        <ele>302</ele>
        <time>2025-10-05T14:09:28.000Z</time>
      </trkpt>
      <trkpt lat="43.79349" lon="2.10153">
        <ele>301</ele>
        <time>2025-10-05T14:09:33.000Z</time>
      </trkpt>
      <trkpt lat="43.79346" lon="2.10158">
        <ele>301</ele>
        <time>2025-10-05T14:09:38.000Z</time>
      </trkpt>
      <trkpt lat="43.79343" lon="2.10164">
        <ele>301</ele>
        <time>2025-10-05T14:09:43.000Z</time>
      </trkpt>
      <trkpt lat="43.7934" lon="2.10171">
        <ele>301</ele>
        <time>2025-10-05T14:09:48.000Z</time>
      </trkpt>
      <trkpt lat="43.79337" lon="2.10178">
        <ele>301</ele>
        <time>2025-10-05T14:09:53.000Z</time>
      </trkpt>
      <trkpt lat="43.79334" lon="2.10184">
        <ele>301</ele>
        <time>2025-10-05T14:09:58.000Z</time>
      </trkpt>
      <trkpt lat="43.79331" lon="2.1019">
        <ele>302</ele>
        <time>2025-10-05T14:10:03.000Z</time>
      </trkpt>
      <trkpt lat="43.79328" lon="2.10195">
        <ele>301</ele>
        <time>2025-10-05T14:10:08.000Z</time>
      </trkpt>
      <trkpt lat="43.79325" lon="2.10203">
        <ele>302</ele>
        <time>2025-10-05T14:10:13.000Z</time>
      </trkpt>
      <trkpt lat="43.79322" lon="2.10208">
        <ele>301</ele>
        <time>2025-10-05T14:10:18.000Z</time>
      </trkpt>
      <trkpt lat="43.7932" lon="2.10213">
        <ele>301</ele>
        <time>2025-10-05T14:10:23.000Z</time>
      </trkpt>
      <trkpt lat="43.79316" lon="2.10221">
        <ele>301</ele>
        <time>2025-10-05T14:10:28.000Z</time>
      </trkpt>
      <trkpt lat="43.79313" lon="2.10227">
        <ele>300</ele>
        <time>2025-10-05T14:10:33.000Z</time>
      </trkpt>
      <trkpt lat="43.7931" lon="2.10234">
        <ele>301</ele>
        <time>2025-10-05T14:10:38.000Z</time>
      </trkpt>
      <trkpt lat="43.79307" lon="2.10239">
        <ele>300</ele>
        <time>2025-10-05T14:10:43.000Z</time>
      </trkpt>
      <trkpt lat="43.79303" lon="2.10246">
        <ele>300</ele>
        <time>2025-10-05T14:10:48.000Z</time>
      </trkpt>
      <trkpt lat="43.79301" lon="2.10253">
        <ele>300</ele>
        <time>2025-10-05T14:10:53.000Z</time>
      </trkpt>
      <trkpt lat="43.79298" lon="2.10259">
        <ele>301</ele>
        <time>2025-10-05T14:10:58.000Z</time>
      </trkpt>
      <trkpt lat="43.79294" lon="2.10266">
        <ele>301</ele>
        <time>2025-10-05T14:11:03.000Z</time>
      </trkpt>
      <trkpt lat="43.79293" lon="2.10272">
        <ele>301</ele>
        <time>2025-10-05T14:11:08.000Z</time>
      </trkpt>
      <trkpt lat="43.79291" lon="2.10278">
        <ele>301</ele>
        <time>2025-10-05T14:11:13.000Z</time>
      </trkpt>
      <trkpt lat="43.79287" lon="2.10283">
        <ele>301</ele>
        <time>2025-10-05T14:11:18.000Z</time>
      </trkpt>
      <trkpt lat="43.79285" lon="2.10289">
        <ele>302</ele>
        <time>2025-10-05T14:11:23.000Z</time>
      </trkpt>
      <trkpt lat="43.7928" lon="2.10294">
        <ele>300</ele>
        <time>2025-10-05T14:11:28.000Z</time>
      </trkpt>
      <trkpt lat="43.79277" lon="2.103">
        <ele>300</ele>
        <time>2025-10-05T14:11:33.000Z</time>
      </trkpt>
      <trkpt lat="43.79273" lon="2.10306">
        <ele>301</ele>
        <time>2025-10-05T14:11:38.000Z</time>
      </trkpt>
      <trkpt lat="43.79269" lon="2.1031">
        <ele>302</ele>
        <time>2025-10-05T14:11:43.000Z</time>
      </trkpt>
      <trkpt lat="43.79265" lon="2.10316">
        <ele>303</ele>
        <time>2025-10-05T14:11:48.000Z</time>
      </trkpt>
      <trkpt lat="43.79262" lon="2.10321">
        <ele>303</ele>
        <time>2025-10-05T14:11:53.000Z</time>
      </trkpt>
      <trkpt lat="43.79259" lon="2.10325">
        <ele>304</ele>
        <time>2025-10-05T14:11:58.000Z</time>
      </trkpt>
      <trkpt lat="43.79255" lon="2.10328">
        <ele>304</ele>
        <time>2025-10-05T14:12:03.000Z</time>
      </trkpt>
      <trkpt lat="43.79249" lon="2.1033">
        <ele>304</ele>
        <time>2025-10-05T14:12:08.000Z</time>
      </trkpt>
      <trkpt lat="43.79244" lon="2.10333">
        <ele>305</ele>
        <time>2025-10-05T14:12:13.000Z</time>
      </trkpt>
      <trkpt lat="43.79239" lon="2.10336">
        <ele>305</ele>
        <time>2025-10-05T14:12:18.000Z</time>
      </trkpt>
      <trkpt lat="43.79235" lon="2.10339">
        <ele>304</ele>
        <time>2025-10-05T14:12:23.000Z</time>
      </trkpt>
      <trkpt lat="43.79231" lon="2.10342">
        <ele>304</ele>
        <time>2025-10-05T14:12:28.000Z</time>
      </trkpt>
      <trkpt lat="43.79227" lon="2.10346">
        <ele>303</ele>
        <time>2025-10-05T14:12:33.000Z</time>
      </trkpt>
      <trkpt lat="43.79224" lon="2.10352">
        <ele>302</ele>
        <time>2025-10-05T14:12:38.000Z</time>
      </trkpt>
      <trkpt lat="43.79221" lon="2.10359">
        <ele>302</ele>
        <time>2025-10-05T14:12:43.000Z</time>
      </trkpt>
      <trkpt lat="43.79218" lon="2.10365">
        <ele>303</ele>
        <time>2025-10-05T14:12:48.000Z</time>
      </trkpt>
      <trkpt lat="43.79215" lon="2.10373">
        <ele>303</ele>
        <time>2025-10-05T14:12:53.000Z</time>
      </trkpt>
      <trkpt lat="43.79213" lon="2.10381">
        <ele>302</ele>
        <time>2025-10-05T14:12:58.000Z</time>
      </trkpt>
      <trkpt lat="43.7921" lon="2.10385">
        <ele>303</ele>
        <time>2025-10-05T14:13:03.000Z</time>
      </trkpt>
      <trkpt lat="43.79207" lon="2.10391">
        <ele>302</ele>
        <time>2025-10-05T14:13:08.000Z</time>
      </trkpt>
      <trkpt lat="43.79205" lon="2.10398">
        <ele>301</ele>
        <time>2025-10-05T14:13:13.000Z</time>
      </trkpt>
      <trkpt lat="43.79203" lon="2.10405">
        <ele>302</ele>
        <time>2025-10-05T14:13:18.000Z</time>
      </trkpt>
      <trkpt lat="43.792" lon="2.10411">
        <ele>301</ele>
        <time>2025-10-05T14:13:23.000Z</time>
      </trkpt>
      <trkpt lat="43.79197" lon="2.10418">
        <ele>300</ele>
        <time>2025-10-05T14:13:28.000Z</time>
      </trkpt>
      <trkpt lat="43.79195" lon="2.10426">
        <ele>301</ele>
        <time>2025-10-05T14:13:33.000Z</time>
      </trkpt>
      <trkpt lat="43.79193" lon="2.10432">
        <ele>300</ele>
        <time>2025-10-05T14:13:38.000Z</time>
      </trkpt>
      <trkpt lat="43.79191" lon="2.10438">
        <ele>300</ele>
        <time>2025-10-05T14:13:43.000Z</time>
      </trkpt>
      <trkpt lat="43.7919" lon="2.10446">
        <ele>301</ele>
        <time>2025-10-05T14:13:48.000Z</time>
      </trkpt>
      <trkpt lat="43.79187" lon="2.10453">
        <ele>301</ele>
        <time>2025-10-05T14:13:53.000Z</time>
      </trkpt>
      <trkpt lat="43.79184" lon="2.10458">
        <ele>301</ele>
        <time>2025-10-05T14:13:58.000Z</time>
      </trkpt>
      <trkpt lat="43.79181" lon="2.10464">
        <ele>300</ele>
        <time>2025-10-05T14:14:03.000Z</time>
      </trkpt>
      <trkpt lat="43.79179" lon="2.10471">
        <ele>300</ele>
        <time>2025-10-05T14:14:08.000Z</time>
      </trkpt>
      <trkpt lat="43.79177" lon="2.10478">
        <ele>300</ele>
        <time>2025-10-05T14:14:13.000Z</time>
      </trkpt>
      <trkpt lat="43.79174" lon="2.10486">
        <ele>302</ele>
        <time>2025-10-05T14:14:18.000Z</time>
      </trkpt>
      <trkpt lat="43.79172" lon="2.1049">
        <ele>300</ele>
        <time>2025-10-05T14:14:23.000Z</time>
      </trkpt>
      <trkpt lat="43.79169" lon="2.10498">
        <ele>301</ele>
        <time>2025-10-05T14:14:28.000Z</time>
      </trkpt>
      <trkpt lat="43.79166" lon="2.10504">
        <ele>300</ele>
        <time>2025-10-05T14:14:33.000Z</time>
      </trkpt>
      <trkpt lat="43.79162" lon="2.10512">
        <ele>300</ele>
        <time>2025-10-05T14:14:38.000Z</time>
      </trkpt>
      <trkpt lat="43.79158" lon="2.1052">
        <ele>300</ele>
        <time>2025-10-05T14:14:43.000Z</time>
      </trkpt>
      <trkpt lat="43.79155" lon="2.10527">
        <ele>300</ele>
        <time>2025-10-05T14:14:48.000Z</time>
      </trkpt>
      <trkpt lat="43.79151" lon="2.10533">
        <ele>301</ele>
        <time>2025-10-05T14:14:53.000Z</time>
      </trkpt>
      <trkpt lat="43.79148" lon="2.10539">
        <ele>301</ele>
        <time>2025-10-05T14:14:58.000Z</time>
      </trkpt>
      <trkpt lat="43.79145" lon="2.10545">
        <ele>301</ele>
        <time>2025-10-05T14:15:03.000Z</time>
      </trkpt>
      <trkpt lat="43.79143" lon="2.10552">
        <ele>301</ele>
        <time>2025-10-05T14:15:08.000Z</time>
      </trkpt>
      <trkpt lat="43.79139" lon="2.10558">
        <ele>300</ele>
        <time>2025-10-05T14:15:13.000Z</time>
      </trkpt>
      <trkpt lat="43.79136" lon="2.10563">
        <ele>302</ele>
        <time>2025-10-05T14:15:18.000Z</time>
      </trkpt>
      <trkpt lat="43.7913" lon="2.1057">
        <ele>302</ele>
        <time>2025-10-05T14:15:23.000Z</time>
      </trkpt>
      <trkpt lat="43.79127" lon="2.10575">
        <ele>301</ele>
        <time>2025-10-05T14:15:28.000Z</time>
      </trkpt>
      <trkpt lat="43.79122" lon="2.1058">
        <ele>300</ele>
        <time>2025-10-05T14:15:33.000Z</time>
      </trkpt>
      <trkpt lat="43.79119" lon="2.10586">
        <ele>300</ele>
        <time>2025-10-05T14:15:38.000Z</time>
      </trkpt>
      <trkpt lat="43.79115" lon="2.10593">
        <ele>300</ele>
        <time>2025-10-05T14:15:43.000Z</time>
      </trkpt>
      <trkpt lat="43.79111" lon="2.10599">
        <ele>301</ele>
        <time>2025-10-05T14:15:48.000Z</time>
      </trkpt>
      <trkpt lat="43.79106" lon="2.10604">
        <ele>301</ele>
        <time>2025-10-05T14:15:53.000Z</time>
      </trkpt>
      <trkpt lat="43.79103" lon="2.1061">
        <ele>300</ele>
        <time>2025-10-05T14:15:58.000Z</time>
      </trkpt>
      <trkpt lat="43.791" lon="2.10615">
        <ele>300</ele>
        <time>2025-10-05T14:16:03.000Z</time>
      </trkpt>
      <trkpt lat="43.79097" lon="2.1062">
        <ele>300</ele>
        <time>2025-10-05T14:16:08.000Z</time>
      </trkpt>
      <trkpt lat="43.79097" lon="2.10623">
        <ele>300</ele>
        <time>2025-10-05T14:16:13.000Z</time>
      </trkpt>
      <trkpt lat="43.79096" lon="2.10623">
        <ele>299</ele>
        <time>2025-10-05T14:16:18.000Z</time>
      </trkpt>
      <trkpt lat="43.79096" lon="2.10623">
        <ele>299</ele>
        <time>2025-10-05T14:16:23.000Z</time>
      </trkpt>
      <trkpt lat="43.79096" lon="2.10623">
        <ele>299</ele>
        <time>2025-10-05T14:16:28.000Z</time>
      </trkpt>
      <trkpt lat="43.79096" lon="2.10623">
        <ele>299</ele>
        <time>2025-10-05T14:16:33.000Z</time>
      </trkpt>
      <trkpt lat="43.79096" lon="2.10623">
        <ele>297</ele>
        <time>2025-10-05T14:16:38.000Z</time>
      </trkpt>
      <trkpt lat="43.79099" lon="2.10627">
        <ele>297</ele>
        <time>2025-10-05T14:16:43.000Z</time>
      </trkpt>
      <trkpt lat="43.79102" lon="2.10633">
        <ele>298</ele>
        <time>2025-10-05T14:16:48.000Z</time>
      </trkpt>
      <trkpt lat="43.79107" lon="2.10636">
        <ele>299</ele>
        <time>2025-10-05T14:16:53.000Z</time>
      </trkpt>
      <trkpt lat="43.7911" lon="2.10642">
        <ele>301</ele>
        <time>2025-10-05T14:16:58.000Z</time>
      </trkpt>
      <trkpt lat="43.79114" lon="2.10646">
        <ele>301</ele>
        <time>2025-10-05T14:17:03.000Z</time>
      </trkpt>
      <trkpt lat="43.79118" lon="2.10651">
        <ele>300</ele>
        <time>2025-10-05T14:17:08.000Z</time>
      </trkpt>
      <trkpt lat="43.79123" lon="2.10658">
        <ele>301</ele>
        <time>2025-10-05T14:17:13.000Z</time>
      </trkpt>
      <trkpt lat="43.79127" lon="2.10664">
        <ele>299</ele>
        <time>2025-10-05T14:17:18.000Z</time>
      </trkpt>
      <trkpt lat="43.79131" lon="2.10668">
        <ele>299</ele>
        <time>2025-10-05T14:17:23.000Z</time>
      </trkpt>
      <trkpt lat="43.79135" lon="2.10671">
        <ele>298</ele>
        <time>2025-10-05T14:17:28.000Z</time>
      </trkpt>
      <trkpt lat="43.79139" lon="2.10677">
        <ele>297</ele>
        <time>2025-10-05T14:17:33.000Z</time>
      </trkpt>
      <trkpt lat="43.79144" lon="2.10681">
        <ele>297</ele>
        <time>2025-10-05T14:17:38.000Z</time>
      </trkpt>
      <trkpt lat="43.79149" lon="2.10686">
        <ele>299</ele>
        <time>2025-10-05T14:17:43.000Z</time>
      </trkpt>
      <trkpt lat="43.79152" lon="2.10692">
        <ele>299</ele>
        <time>2025-10-05T14:17:48.000Z</time>
      </trkpt>
      <trkpt lat="43.79156" lon="2.10699">
        <ele>298</ele>
        <time>2025-10-05T14:17:53.000Z</time>
      </trkpt>
      <trkpt lat="43.7916" lon="2.10703">
        <ele>297</ele>
        <time>2025-10-05T14:17:58.000Z</time>
      </trkpt>
      <trkpt lat="43.79165" lon="2.10706">
        <ele>298</ele>
        <time>2025-10-05T14:18:03.000Z</time>
      </trkpt>
      <trkpt lat="43.79168" lon="2.10712">
        <ele>298</ele>
        <time>2025-10-05T14:18:08.000Z</time>
      </trkpt>
      <trkpt lat="43.7917" lon="2.1072">
        <ele>296</ele>
        <time>2025-10-05T14:18:13.000Z</time>
      </trkpt>
      <trkpt lat="43.7917" lon="2.10728">
        <ele>295</ele>
        <time>2025-10-05T14:18:18.000Z</time>
      </trkpt>
      <trkpt lat="43.79171" lon="2.10736">
        <ele>296</ele>
        <time>2025-10-05T14:18:23.000Z</time>
      </trkpt>
      <trkpt lat="43.7917" lon="2.10744">
        <ele>294</ele>
        <time>2025-10-05T14:18:28.000Z</time>
      </trkpt>
      <trkpt lat="43.79168" lon="2.10752">
        <ele>293</ele>
        <time>2025-10-05T14:18:33.000Z</time>
      </trkpt>
      <trkpt lat="43.79167" lon="2.10759">
        <ele>291</ele>
        <time>2025-10-05T14:18:38.000Z</time>
      </trkpt>
      <trkpt lat="43.79165" lon="2.10766">
        <ele>290</ele>
        <time>2025-10-05T14:18:43.000Z</time>
      </trkpt>
      <trkpt lat="43.79163" lon="2.10773">
        <ele>292</ele>
        <time>2025-10-05T14:18:48.000Z</time>
      </trkpt>
      <trkpt lat="43.79162" lon="2.1078">
        <ele>291</ele>
        <time>2025-10-05T14:18:53.000Z</time>
      </trkpt>
      <trkpt lat="43.79159" lon="2.10786">
        <ele>292</ele>
        <time>2025-10-05T14:18:58.000Z</time>
      </trkpt>
      <trkpt lat="43.79156" lon="2.10791">
        <ele>291</ele>
        <time>2025-10-05T14:19:03.000Z</time>
      </trkpt>
      <trkpt lat="43.79153" lon="2.10798">
        <ele>290</ele>
        <time>2025-10-05T14:19:08.000Z</time>
      </trkpt>
      <trkpt lat="43.7915" lon="2.10804">
        <ele>288</ele>
        <time>2025-10-05T14:19:13.000Z</time>
      </trkpt>
      <trkpt lat="43.79146" lon="2.10809">
        <ele>288</ele>
        <time>2025-10-05T14:19:18.000Z</time>
      </trkpt>
      <trkpt lat="43.79143" lon="2.10816">
        <ele>289</ele>
        <time>2025-10-05T14:19:23.000Z</time>
      </trkpt>
      <trkpt lat="43.7914" lon="2.10823">
        <ele>289</ele>
        <time>2025-10-05T14:19:28.000Z</time>
      </trkpt>
      <trkpt lat="43.79137" lon="2.10831">
        <ele>289</ele>
        <time>2025-10-05T14:19:33.000Z</time>
      </trkpt>
      <trkpt lat="43.79135" lon="2.10835">
        <ele>289</ele>
        <time>2025-10-05T14:19:38.000Z</time>
      </trkpt>
      <trkpt lat="43.79133" lon="2.10842">
        <ele>289</ele>
        <time>2025-10-05T14:19:43.000Z</time>
      </trkpt>
      <trkpt lat="43.79129" lon="2.10848">
        <ele>288</ele>
        <time>2025-10-05T14:19:48.000Z</time>
      </trkpt>
      <trkpt lat="43.79125" lon="2.10856">
        <ele>286</ele>
        <time>2025-10-05T14:19:53.000Z</time>
      </trkpt>
      <trkpt lat="43.79122" lon="2.10863">
        <ele>285</ele>
        <time>2025-10-05T14:19:58.000Z</time>
      </trkpt>
      <trkpt lat="43.7912" lon="2.1087">
        <ele>285</ele>
        <time>2025-10-05T14:20:03.000Z</time>
      </trkpt>
      <trkpt lat="43.79118" lon="2.10877">
        <ele>286</ele>
        <time>2025-10-05T14:20:08.000Z</time>
      </trkpt>
      <trkpt lat="43.79117" lon="2.10883">
        <ele>285</ele>
        <time>2025-10-05T14:20:13.000Z</time>
      </trkpt>
      <trkpt lat="43.79115" lon="2.1089">
        <ele>285</ele>
        <time>2025-10-05T14:20:18.000Z</time>
      </trkpt>
      <trkpt lat="43.79114" lon="2.10897">
        <ele>284</ele>
        <time>2025-10-05T14:20:23.000Z</time>
      </trkpt>
      <trkpt lat="43.7911" lon="2.10907">
        <ele>285</ele>
        <time>2025-10-05T14:20:28.000Z</time>
      </trkpt>
      <trkpt lat="43.79107" lon="2.10914">
        <ele>284</ele>
        <time>2025-10-05T14:20:33.000Z</time>
      </trkpt>
      <trkpt lat="43.79104" lon="2.10922">
        <ele>284</ele>
        <time>2025-10-05T14:20:38.000Z</time>
      </trkpt>
      <trkpt lat="43.79101" lon="2.10929">
        <ele>283</ele>
        <time>2025-10-05T14:20:43.000Z</time>
      </trkpt>
      <trkpt lat="43.791" lon="2.10935">
        <ele>282</ele>
        <time>2025-10-05T14:20:48.000Z</time>
      </trkpt>
      <trkpt lat="43.791" lon="2.10943">
        <ele>282</ele>
        <time>2025-10-05T14:20:53.000Z</time>
      </trkpt>
      <trkpt lat="43.79099" lon="2.1095">
        <ele>284</ele>
        <time>2025-10-05T14:20:58.000Z</time>
      </trkpt>
      <trkpt lat="43.79098" lon="2.10959">
        <ele>283</ele>
        <time>2025-10-05T14:21:03.000Z</time>
      </trkpt>
      <trkpt lat="43.79102" lon="2.10963">
        <ele>280</ele>
        <time>2025-10-05T14:21:08.000Z</time>
      </trkpt>
      <trkpt lat="43.79107" lon="2.10964">
        <ele>281</ele>
        <time>2025-10-05T14:21:13.000Z</time>
      </trkpt>
      <trkpt lat="43.79113" lon="2.10963">
        <ele>279</ele>
        <time>2025-10-05T14:21:18.000Z</time>
      </trkpt>
      <trkpt lat="43.79119" lon="2.10963">
        <ele>279</ele>
        <time>2025-10-05T14:21:23.000Z</time>
      </trkpt>
      <trkpt lat="43.79125" lon="2.10963">
        <ele>279</ele>
        <time>2025-10-05T14:21:28.000Z</time>
      </trkpt>
      <trkpt lat="43.79131" lon="2.10962">
        <ele>278</ele>
        <time>2025-10-05T14:21:33.000Z</time>
      </trkpt>
      <trkpt lat="43.79136" lon="2.10964">
        <ele>277</ele>
        <time>2025-10-05T14:21:38.000Z</time>
      </trkpt>
      <trkpt lat="43.79141" lon="2.10965">
        <ele>276</ele>
        <time>2025-10-05T14:21:43.000Z</time>
      </trkpt>
      <trkpt lat="43.79147" lon="2.10964">
        <ele>275</ele>
        <time>2025-10-05T14:21:48.000Z</time>
      </trkpt>
      <trkpt lat="43.79154" lon="2.10965">
        <ele>274</ele>
        <time>2025-10-05T14:21:53.000Z</time>
      </trkpt>
      <trkpt lat="43.7916" lon="2.10966">
        <ele>272</ele>
        <time>2025-10-05T14:21:58.000Z</time>
      </trkpt>
      <trkpt lat="43.79166" lon="2.10968">
        <ele>274</ele>
        <time>2025-10-05T14:22:03.000Z</time>
      </trkpt>
      <trkpt lat="43.79169" lon="2.10974">
        <ele>273</ele>
        <time>2025-10-05T14:22:08.000Z</time>
      </trkpt>
      <trkpt lat="43.79171" lon="2.10982">
        <ele>273</ele>
        <time>2025-10-05T14:22:13.000Z</time>
      </trkpt>
      <trkpt lat="43.79171" lon="2.10991">
        <ele>273</ele>
        <time>2025-10-05T14:22:18.000Z</time>
      </trkpt>
      <trkpt lat="43.7917" lon="2.10998">
        <ele>272</ele>
        <time>2025-10-05T14:22:23.000Z</time>
      </trkpt>
      <trkpt lat="43.79168" lon="2.11008">
        <ele>270</ele>
        <time>2025-10-05T14:22:28.000Z</time>
      </trkpt>
      <trkpt lat="43.79166" lon="2.11015">
        <ele>270</ele>
        <time>2025-10-05T14:22:33.000Z</time>
      </trkpt>
      <trkpt lat="43.79162" lon="2.11022">
        <ele>270</ele>
        <time>2025-10-05T14:22:38.000Z</time>
      </trkpt>
      <trkpt lat="43.7916" lon="2.11031">
        <ele>269</ele>
        <time>2025-10-05T14:22:43.000Z</time>
      </trkpt>
      <trkpt lat="43.79158" lon="2.11038">
        <ele>268</ele>
        <time>2025-10-05T14:22:48.000Z</time>
      </trkpt>
      <trkpt lat="43.79155" lon="2.11046">
        <ele>267</ele>
        <time>2025-10-05T14:22:53.000Z</time>
      </trkpt>
      <trkpt lat="43.79153" lon="2.11052">
        <ele>267</ele>
        <time>2025-10-05T14:22:58.000Z</time>
      </trkpt>
      <trkpt lat="43.7915" lon="2.1106">
        <ele>267</ele>
        <time>2025-10-05T14:23:03.000Z</time>
      </trkpt>
      <trkpt lat="43.79147" lon="2.11066">
        <ele>266</ele>
        <time>2025-10-05T14:23:08.000Z</time>
      </trkpt>
      <trkpt lat="43.79143" lon="2.11072">
        <ele>266</ele>
        <time>2025-10-05T14:23:13.000Z</time>
      </trkpt>
      <trkpt lat="43.79138" lon="2.11077">
        <ele>265</ele>
        <time>2025-10-05T14:23:18.000Z</time>
      </trkpt>
      <trkpt lat="43.79134" lon="2.11083">
        <ele>264</ele>
        <time>2025-10-05T14:23:23.000Z</time>
      </trkpt>
      <trkpt lat="43.7913" lon="2.11088">
        <ele>264</ele>
        <time>2025-10-05T14:23:28.000Z</time>
      </trkpt>
      <trkpt lat="43.79124" lon="2.11092">
        <ele>264</ele>
        <time>2025-10-05T14:23:33.000Z</time>
      </trkpt>
      <trkpt lat="43.79119" lon="2.11097">
        <ele>262</ele>
        <time>2025-10-05T14:23:38.000Z</time>
      </trkpt>
      <trkpt lat="43.79115" lon="2.11102">
        <ele>261</ele>
        <time>2025-10-05T14:23:43.000Z</time>
      </trkpt>
      <trkpt lat="43.79111" lon="2.11108">
        <ele>260</ele>
        <time>2025-10-05T14:23:48.000Z</time>
      </trkpt>
      <trkpt lat="43.79107" lon="2.11113">
        <ele>259</ele>
        <time>2025-10-05T14:23:53.000Z</time>
      </trkpt>
      <trkpt lat="43.79103" lon="2.11118">
        <ele>258</ele>
        <time>2025-10-05T14:23:58.000Z</time>
      </trkpt>
      <trkpt lat="43.79098" lon="2.11123">
        <ele>258</ele>
        <time>2025-10-05T14:24:03.000Z</time>
      </trkpt>
      <trkpt lat="43.79092" lon="2.11129">
        <ele>257</ele>
        <time>2025-10-05T14:24:08.000Z</time>
      </trkpt>
      <trkpt lat="43.79087" lon="2.11134">
        <ele>256</ele>
        <time>2025-10-05T14:24:13.000Z</time>
      </trkpt>
      <trkpt lat="43.79083" lon="2.11139">
        <ele>256</ele>
        <time>2025-10-05T14:24:18.000Z</time>
      </trkpt>
      <trkpt lat="43.79079" lon="2.11143">
        <ele>256</ele>
        <time>2025-10-05T14:24:23.000Z</time>
      </trkpt>
      <trkpt lat="43.79075" lon="2.11147">
        <ele>254</ele>
        <time>2025-10-05T14:24:28.000Z</time>
      </trkpt>
      <trkpt lat="43.79071" lon="2.11151">
        <ele>252</ele>
        <time>2025-10-05T14:24:33.000Z</time>
      </trkpt>
      <trkpt lat="43.79067" lon="2.11157">
        <ele>252</ele>
        <time>2025-10-05T14:24:38.000Z</time>
      </trkpt>
      <trkpt lat="43.79061" lon="2.11162">
        <ele>251</ele>
        <time>2025-10-05T14:24:43.000Z</time>
      </trkpt>
      <trkpt lat="43.79056" lon="2.11168">
        <ele>250</ele>
        <time>2025-10-05T14:24:48.000Z</time>
      </trkpt>
      <trkpt lat="43.79051" lon="2.11175">
        <ele>249</ele>
        <time>2025-10-05T14:24:53.000Z</time>
      </trkpt>
      <trkpt lat="43.79049" lon="2.11181">
        <ele>250</ele>
        <time>2025-10-05T14:24:58.000Z</time>
      </trkpt>
      <trkpt lat="43.79046" lon="2.11187">
        <ele>250</ele>
        <time>2025-10-05T14:25:03.000Z</time>
      </trkpt>
      <trkpt lat="43.79042" lon="2.11194">
        <ele>249</ele>
        <time>2025-10-05T14:25:08.000Z</time>
      </trkpt>
      <trkpt lat="43.79038" lon="2.11201">
        <ele>248</ele>
        <time>2025-10-05T14:25:13.000Z</time>
      </trkpt>
      <trkpt lat="43.79033" lon="2.11207">
        <ele>247</ele>
        <time>2025-10-05T14:25:18.000Z</time>
      </trkpt>
      <trkpt lat="43.7903" lon="2.11214">
        <ele>246</ele>
        <time>2025-10-05T14:25:23.000Z</time>
      </trkpt>
      <trkpt lat="43.79027" lon="2.11222">
        <ele>246</ele>
        <time>2025-10-05T14:25:28.000Z</time>
      </trkpt>
      <trkpt lat="43.79024" lon="2.11229">
        <ele>247</ele>
        <time>2025-10-05T14:25:33.000Z</time>
      </trkpt>
      <trkpt lat="43.79022" lon="2.11235">
        <ele>246</ele>
        <time>2025-10-05T14:25:38.000Z</time>
      </trkpt>
      <trkpt lat="43.79019" lon="2.11242">
        <ele>245</ele>
        <time>2025-10-05T14:25:43.000Z</time>
      </trkpt>
      <trkpt lat="43.79015" lon="2.1125">
        <ele>244</ele>
        <time>2025-10-05T14:25:48.000Z</time>
      </trkpt>
      <trkpt lat="43.79012" lon="2.11255">
        <ele>243</ele>
        <time>2025-10-05T14:25:53.000Z</time>
      </trkpt>
      <trkpt lat="43.79009" lon="2.11262">
        <ele>242</ele>
        <time>2025-10-05T14:25:58.000Z</time>
      </trkpt>
      <trkpt lat="43.79005" lon="2.11271">
        <ele>242</ele>
        <time>2025-10-05T14:26:03.000Z</time>
      </trkpt>
      <trkpt lat="43.79001" lon="2.11279">
        <ele>240</ele>
        <time>2025-10-05T14:26:08.000Z</time>
      </trkpt>
      <trkpt lat="43.78998" lon="2.11285">
        <ele>239</ele>
        <time>2025-10-05T14:26:13.000Z</time>
      </trkpt>
      <trkpt lat="43.78996" lon="2.1129">
        <ele>240</ele>
        <time>2025-10-05T14:26:18.000Z</time>
      </trkpt>
      <trkpt lat="43.78994" lon="2.11298">
        <ele>239</ele>
        <time>2025-10-05T14:26:23.000Z</time>
      </trkpt>
      <trkpt lat="43.78992" lon="2.11306">
        <ele>238</ele>
        <time>2025-10-05T14:26:28.000Z</time>
      </trkpt>
      <trkpt lat="43.78991" lon="2.11315">
        <ele>238</ele>
        <time>2025-10-05T14:26:33.000Z</time>
      </trkpt>
      <trkpt lat="43.78989" lon="2.11322">
        <ele>238</ele>
        <time>2025-10-05T14:26:38.000Z</time>
      </trkpt>
      <trkpt lat="43.78988" lon="2.11329">
        <ele>237</ele>
        <time>2025-10-05T14:26:43.000Z</time>
      </trkpt>
      <trkpt lat="43.78987" lon="2.11338">
        <ele>237</ele>
        <time>2025-10-05T14:26:48.000Z</time>
      </trkpt>
      <trkpt lat="43.78983" lon="2.11345">
        <ele>236</ele>
        <time>2025-10-05T14:26:53.000Z</time>
      </trkpt>
      <trkpt lat="43.78978" lon="2.1135">
        <ele>235</ele>
        <time>2025-10-05T14:26:58.000Z</time>
      </trkpt>
      <trkpt lat="43.78972" lon="2.11352">
        <ele>235</ele>
        <time>2025-10-05T14:27:03.000Z</time>
      </trkpt>
      <trkpt lat="43.78968" lon="2.11356">
        <ele>235</ele>
        <time>2025-10-05T14:27:08.000Z</time>
      </trkpt>
      <trkpt lat="43.78963" lon="2.11359">
        <ele>234</ele>
        <time>2025-10-05T14:27:13.000Z</time>
      </trkpt>
      <trkpt lat="43.7896" lon="2.11364">
        <ele>233</ele>
        <time>2025-10-05T14:27:18.000Z</time>
      </trkpt>
      <trkpt lat="43.7896" lon="2.11372">
        <ele>234</ele>
        <time>2025-10-05T14:27:23.000Z</time>
      </trkpt>
      <trkpt lat="43.78962" lon="2.11379">
        <ele>234</ele>
        <time>2025-10-05T14:27:28.000Z</time>
      </trkpt>
      <trkpt lat="43.78965" lon="2.11386">
        <ele>235</ele>
        <time>2025-10-05T14:27:33.000Z</time>
      </trkpt>
      <trkpt lat="43.78968" lon="2.11393">
        <ele>234</ele>
        <time>2025-10-05T14:27:38.000Z</time>
      </trkpt>
      <trkpt lat="43.7897" lon="2.114">
        <ele>235</ele>
        <time>2025-10-05T14:27:43.000Z</time>
      </trkpt>
      <trkpt lat="43.78973" lon="2.11408">
        <ele>235</ele>
        <time>2025-10-05T14:27:48.000Z</time>
      </trkpt>
      <trkpt lat="43.78976" lon="2.11415">
        <ele>234</ele>
        <time>2025-10-05T14:27:53.000Z</time>
      </trkpt>
      <trkpt lat="43.78979" lon="2.11421">
        <ele>234</ele>
        <time>2025-10-05T14:27:58.000Z</time>
      </trkpt>
      <trkpt lat="43.78981" lon="2.11427">
        <ele>234</ele>
        <time>2025-10-05T14:28:03.000Z</time>
      </trkpt>
      <trkpt lat="43.78985" lon="2.11434">
        <ele>234</ele>
        <time>2025-10-05T14:28:08.000Z</time>
      </trkpt>
      <trkpt lat="43.78989" lon="2.11443">
        <ele>233</ele>
        <time>2025-10-05T14:28:13.000Z</time>
      </trkpt>
      <trkpt lat="43.78991" lon="2.11449">
        <ele>232</ele>
        <time>2025-10-05T14:28:18.000Z</time>
      </trkpt>
      <trkpt lat="43.78993" lon="2.11454">
        <ele>233</ele>
        <time>2025-10-05T14:28:23.000Z</time>
      </trkpt>
      <trkpt lat="43.78996" lon="2.11461">
        <ele>234</ele>
        <time>2025-10-05T14:28:28.000Z</time>
      </trkpt>
      <trkpt lat="43.78999" lon="2.11469">
        <ele>234</ele>
        <time>2025-10-05T14:28:33.000Z</time>
      </trkpt>
      <trkpt lat="43.79002" lon="2.11475">
        <ele>234</ele>
        <time>2025-10-05T14:28:38.000Z</time>
      </trkpt>
      <trkpt lat="43.79004" lon="2.11482">
        <ele>235</ele>
        <time>2025-10-05T14:28:43.000Z</time>
      </trkpt>
      <trkpt lat="43.79007" lon="2.11489">
        <ele>236</ele>
        <time>2025-10-05T14:28:48.000Z</time>
      </trkpt>
      <trkpt lat="43.79009" lon="2.11496">
        <ele>234</ele>
        <time>2025-10-05T14:28:53.000Z</time>
      </trkpt>
      <trkpt lat="43.79012" lon="2.11504">
        <ele>233</ele>
        <time>2025-10-05T14:28:58.000Z</time>
      </trkpt>
      <trkpt lat="43.79014" lon="2.11512">
        <ele>232</ele>
        <time>2025-10-05T14:29:03.000Z</time>
      </trkpt>
      <trkpt lat="43.79017" lon="2.11521">
        <ele>232</ele>
        <time>2025-10-05T14:29:08.000Z</time>
      </trkpt>
      <trkpt lat="43.7902" lon="2.11528">
        <ele>231</ele>
        <time>2025-10-05T14:29:13.000Z</time>
      </trkpt>
      <trkpt lat="43.79021" lon="2.11536">
        <ele>231</ele>
        <time>2025-10-05T14:29:18.000Z</time>
      </trkpt>
      <trkpt lat="43.79022" lon="2.11543">
        <ele>229</ele>
        <time>2025-10-05T14:29:23.000Z</time>
      </trkpt>
      <trkpt lat="43.79024" lon="2.1155">
        <ele>230</ele>
        <time>2025-10-05T14:29:28.000Z</time>
      </trkpt>
      <trkpt lat="43.79025" lon="2.11558">
        <ele>230</ele>
        <time>2025-10-05T14:29:33.000Z</time>
      </trkpt>
      <trkpt lat="43.79026" lon="2.11566">
        <ele>231</ele>
        <time>2025-10-05T14:29:38.000Z</time>
      </trkpt>
      <trkpt lat="43.79026" lon="2.11575">
        <ele>231</ele>
        <time>2025-10-05T14:29:43.000Z</time>
      </trkpt>
      <trkpt lat="43.79027" lon="2.11582">
        <ele>230</ele>
        <time>2025-10-05T14:29:48.000Z</time>
      </trkpt>
      <trkpt lat="43.79027" lon="2.11589">
        <ele>231</ele>
        <time>2025-10-05T14:29:53.000Z</time>
      </trkpt>
      <trkpt lat="43.79027" lon="2.11597">
        <ele>231</ele>
        <time>2025-10-05T14:29:58.000Z</time>
      </trkpt>
      <trkpt lat="43.79028" lon="2.11603">
        <ele>232</ele>
        <time>2025-10-05T14:30:03.000Z</time>
      </trkpt>
      <trkpt lat="43.79028" lon="2.11608">
        <ele>232</ele>
        <time>2025-10-05T14:30:08.000Z</time>
      </trkpt>
      <trkpt lat="43.79027" lon="2.11608">
        <ele>231</ele>
        <time>2025-10-05T14:30:13.000Z</time>
      </trkpt>
      <trkpt lat="43.79027" lon="2.11608">
        <ele>231</ele>
        <time>2025-10-05T14:30:18.000Z</time>
      </trkpt>
      <trkpt lat="43.79027" lon="2.11608">
        <ele>231</ele>
        <time>2025-10-05T14:30:23.000Z</time>
      </trkpt>
      <trkpt lat="43.79027" lon="2.11608">
        <ele>231</ele>
        <time>2025-10-05T14:30:28.000Z</time>
      </trkpt>
      <trkpt lat="43.79027" lon="2.11608">
        <ele>231</ele>
        <time>2025-10-05T14:30:33.000Z</time>
      </trkpt>
      <trkpt lat="43.79027" lon="2.11608">
        <ele>231</ele>
        <time>2025-10-05T14:30:38.000Z</time>
      </trkpt>
      <trkpt lat="43.79027" lon="2.11608">
        <ele>231</ele>
        <time>2025-10-05T14:30:43.000Z</time>
      </trkpt>
      <trkpt lat="43.79027" lon="2.11608">
        <ele>231</ele>
        <time>2025-10-05T14:30:48.000Z</time>
      </trkpt>
      <trkpt lat="43.79027" lon="2.11608">
        <ele>231</ele>
        <time>2025-10-05T14:30:53.000Z</time>
      </trkpt>
      <trkpt lat="43.79027" lon="2.11608">
        <ele>231</ele>
        <time>2025-10-05T14:30:58.000Z</time>
      </trkpt>
      <trkpt lat="43.79027" lon="2.11608">
        <ele>231</ele>
        <time>2025-10-05T14:31:03.000Z</time>
      </trkpt>
      <trkpt lat="43.79027" lon="2.11608">
        <ele>231</ele>
        <time>2025-10-05T14:31:08.000Z</time>
      </trkpt>
      <trkpt lat="43.79027" lon="2.11608">
        <ele>231</ele>
        <time>2025-10-05T14:31:13.000Z</time>
      </trkpt>
      <trkpt lat="43.79027" lon="2.11608">
        <ele>231</ele>
        <time>2025-10-05T14:31:18.000Z</time>
      </trkpt>
      <trkpt lat="43.79027" lon="2.11608">
        <ele>231</ele>
        <time>2025-10-05T14:31:23.000Z</time>
      </trkpt>
      <trkpt lat="43.79027" lon="2.11608">
        <ele>231</ele>
        <time>2025-10-05T14:31:28.000Z</time>
      </trkpt>
      <trkpt lat="43.79027" lon="2.11609">
        <ele>232</ele>
        <time>2025-10-05T14:31:33.000Z</time>
      </trkpt>
      <trkpt lat="43.79028" lon="2.11615">
        <ele>231</ele>
        <time>2025-10-05T14:31:38.000Z</time>
      </trkpt>
      <trkpt lat="43.79027" lon="2.11624">
        <ele>230</ele>
        <time>2025-10-05T14:31:43.000Z</time>
      </trkpt>
      <trkpt lat="43.79028" lon="2.1163">
        <ele>229</ele>
        <time>2025-10-05T14:31:48.000Z</time>
      </trkpt>
      <trkpt lat="43.79027" lon="2.11635">
        <ele>231</ele>
        <time>2025-10-05T14:31:53.000Z</time>
      </trkpt>
      <trkpt lat="43.79027" lon="2.11643">
        <ele>231</ele>
        <time>2025-10-05T14:31:58.000Z</time>
      </trkpt>
      <trkpt lat="43.79028" lon="2.1165">
        <ele>233</ele>
        <time>2025-10-05T14:32:03.000Z</time>
      </trkpt>
      <trkpt lat="43.79027" lon="2.11658">
        <ele>234</ele>
        <time>2025-10-05T14:32:08.000Z</time>
      </trkpt>
      <trkpt lat="43.79026" lon="2.11667">
        <ele>234</ele>
        <time>2025-10-05T14:32:13.000Z</time>
      </trkpt>
      <trkpt lat="43.79026" lon="2.11673">
        <ele>234</ele>
        <time>2025-10-05T14:32:18.000Z</time>
      </trkpt>
      <trkpt lat="43.79024" lon="2.11681">
        <ele>232</ele>
        <time>2025-10-05T14:32:23.000Z</time>
      </trkpt>
      <trkpt lat="43.79023" lon="2.11689">
        <ele>232</ele>
        <time>2025-10-05T14:32:28.000Z</time>
      </trkpt>
      <trkpt lat="43.79022" lon="2.11695">
        <ele>231</ele>
        <time>2025-10-05T14:32:33.000Z</time>
      </trkpt>
      <trkpt lat="43.7902" lon="2.11702">
        <ele>231</ele>
        <time>2025-10-05T14:32:38.000Z</time>
      </trkpt>
      <trkpt lat="43.79017" lon="2.11708">
        <ele>231</ele>
        <time>2025-10-05T14:32:43.000Z</time>
      </trkpt>
      <trkpt lat="43.79015" lon="2.11716">
        <ele>231</ele>
        <time>2025-10-05T14:32:48.000Z</time>
      </trkpt>
      <trkpt lat="43.79012" lon="2.11724">
        <ele>232</ele>
        <time>2025-10-05T14:32:53.000Z</time>
      </trkpt>
      <trkpt lat="43.79009" lon="2.1173">
        <ele>231</ele>
        <time>2025-10-05T14:32:58.000Z</time>
      </trkpt>
      <trkpt lat="43.79006" lon="2.11739">
        <ele>229</ele>
        <time>2025-10-05T14:33:03.000Z</time>
      </trkpt>
      <trkpt lat="43.79004" lon="2.11747">
        <ele>230</ele>
        <time>2025-10-05T14:33:08.000Z</time>
      </trkpt>
      <trkpt lat="43.79002" lon="2.11754">
        <ele>228</ele>
        <time>2025-10-05T14:33:13.000Z</time>
      </trkpt>
      <trkpt lat="43.79" lon="2.11761">
        <ele>229</ele>
        <time>2025-10-05T14:33:18.000Z</time>
      </trkpt>
      <trkpt lat="43.78997" lon="2.11768">
        <ele>230</ele>
        <time>2025-10-05T14:33:23.000Z</time>
      </trkpt>
      <trkpt lat="43.78994" lon="2.11777">
        <ele>231</ele>
        <time>2025-10-05T14:33:28.000Z</time>
      </trkpt>
      <trkpt lat="43.78992" lon="2.11783">
        <ele>230</ele>
        <time>2025-10-05T14:33:33.000Z</time>
      </trkpt>
      <trkpt lat="43.7899" lon="2.11791">
        <ele>229</ele>
        <time>2025-10-05T14:33:38.000Z</time>
      </trkpt>
      <trkpt lat="43.78988" lon="2.11797">
        <ele>229</ele>
        <time>2025-10-05T14:33:43.000Z</time>
      </trkpt>
      <trkpt lat="43.78985" lon="2.11804">
        <ele>228</ele>
        <time>2025-10-05T14:33:48.000Z</time>
      </trkpt>
      <trkpt lat="43.78982" lon="2.11812">
        <ele>228</ele>
        <time>2025-10-05T14:33:53.000Z</time>
      </trkpt>
      <trkpt lat="43.78981" lon="2.11819">
        <ele>229</ele>
        <time>2025-10-05T14:33:58.000Z</time>
      </trkpt>
      <trkpt lat="43.78978" lon="2.11826">
        <ele>229</ele>
        <time>2025-10-05T14:34:03.000Z</time>
      </trkpt>
      <trkpt lat="43.78975" lon="2.11833">
        <ele>229</ele>
        <time>2025-10-05T14:34:08.000Z</time>
      </trkpt>
      <trkpt lat="43.78973" lon="2.11839">
        <ele>229</ele>
        <time>2025-10-05T14:34:13.000Z</time>
      </trkpt>
      <trkpt lat="43.7897" lon="2.11847">
        <ele>228</ele>
        <time>2025-10-05T14:34:18.000Z</time>
      </trkpt>
      <trkpt lat="43.78968" lon="2.11854">
        <ele>228</ele>
        <time>2025-10-05T14:34:23.000Z</time>
      </trkpt>
      <trkpt lat="43.78967" lon="2.11861">
        <ele>227</ele>
        <time>2025-10-05T14:34:28.000Z</time>
      </trkpt>
      <trkpt lat="43.78962" lon="2.11869">
        <ele>229</ele>
        <time>2025-10-05T14:34:33.000Z</time>
      </trkpt>
      <trkpt lat="43.7896" lon="2.11876">
        <ele>228</ele>
        <time>2025-10-05T14:34:38.000Z</time>
      </trkpt>
      <trkpt lat="43.78957" lon="2.11884">
        <ele>227</ele>
        <time>2025-10-05T14:34:43.000Z</time>
      </trkpt>
      <trkpt lat="43.78953" lon="2.11891">
        <ele>227</ele>
        <time>2025-10-05T14:34:48.000Z</time>
      </trkpt>
      <trkpt lat="43.78951" lon="2.11898">
        <ele>225</ele>
        <time>2025-10-05T14:34:53.000Z</time>
      </trkpt>
      <trkpt lat="43.78947" lon="2.11904">
        <ele>225</ele>
        <time>2025-10-05T14:34:58.000Z</time>
      </trkpt>
      <trkpt lat="43.78945" lon="2.11912">
        <ele>225</ele>
        <time>2025-10-05T14:35:03.000Z</time>
      </trkpt>
      <trkpt lat="43.78942" lon="2.11919">
        <ele>224</ele>
        <time>2025-10-05T14:35:08.000Z</time>
      </trkpt>
      <trkpt lat="43.78939" lon="2.11926">
        <ele>225</ele>
        <time>2025-10-05T14:35:13.000Z</time>
      </trkpt>
      <trkpt lat="43.78938" lon="2.11932">
        <ele>226</ele>
        <time>2025-10-05T14:35:18.000Z</time>
      </trkpt>
      <trkpt lat="43.78936" lon="2.11939">
        <ele>225</ele>
        <time>2025-10-05T14:35:23.000Z</time>
      </trkpt>
      <trkpt lat="43.78933" lon="2.11946">
        <ele>224</ele>
        <time>2025-10-05T14:35:28.000Z</time>
      </trkpt>
      <trkpt lat="43.7893" lon="2.11952">
        <ele>224</ele>
        <time>2025-10-05T14:35:33.000Z</time>
      </trkpt>
      <trkpt lat="43.78927" lon="2.1196">
        <ele>223</ele>
        <time>2025-10-05T14:35:38.000Z</time>
      </trkpt>
      <trkpt lat="43.78923" lon="2.11966">
        <ele>224</ele>
        <time>2025-10-05T14:35:43.000Z</time>
      </trkpt>
      <trkpt lat="43.7892" lon="2.11972">
        <ele>224</ele>
        <time>2025-10-05T14:35:48.000Z</time>
      </trkpt>
      <trkpt lat="43.78916" lon="2.11978">
        <ele>224</ele>
        <time>2025-10-05T14:35:53.000Z</time>
      </trkpt>
      <trkpt lat="43.78913" lon="2.11982">
        <ele>224</ele>
        <time>2025-10-05T14:35:58.000Z</time>
      </trkpt>
      <trkpt lat="43.78909" lon="2.11986">
        <ele>223</ele>
        <time>2025-10-05T14:36:03.000Z</time>
      </trkpt>
      <trkpt lat="43.78904" lon="2.11991">
        <ele>224</ele>
        <time>2025-10-05T14:36:08.000Z</time>
      </trkpt>
      <trkpt lat="43.78901" lon="2.11995">
        <ele>224</ele>
        <time>2025-10-05T14:36:13.000Z</time>
      </trkpt>
      <trkpt lat="43.78896" lon="2.11999">
        <ele>224</ele>
        <time>2025-10-05T14:36:18.000Z</time>
      </trkpt>
      <trkpt lat="43.78892" lon="2.12005">
        <ele>223</ele>
        <time>2025-10-05T14:36:23.000Z</time>
      </trkpt>
      <trkpt lat="43.78887" lon="2.12009">
        <ele>223</ele>
        <time>2025-10-05T14:36:28.000Z</time>
      </trkpt>
      <trkpt lat="43.78882" lon="2.12014">
        <ele>224</ele>
        <time>2025-10-05T14:36:33.000Z</time>
      </trkpt>
      <trkpt lat="43.78879" lon="2.1202">
        <ele>224</ele>
        <time>2025-10-05T14:36:38.000Z</time>
      </trkpt>
      <trkpt lat="43.78874" lon="2.12024">
        <ele>225</ele>
        <time>2025-10-05T14:36:43.000Z</time>
      </trkpt>
      <trkpt lat="43.78869" lon="2.12028">
        <ele>225</ele>
        <time>2025-10-05T14:36:48.000Z</time>
      </trkpt>
      <trkpt lat="43.78865" lon="2.12033">
        <ele>225</ele>
        <time>2025-10-05T14:36:53.000Z</time>
      </trkpt>
      <trkpt lat="43.78861" lon="2.12038">
        <ele>224</ele>
        <time>2025-10-05T14:36:58.000Z</time>
      </trkpt>
      <trkpt lat="43.78856" lon="2.12041">
        <ele>224</ele>
        <time>2025-10-05T14:37:03.000Z</time>
      </trkpt>
      <trkpt lat="43.78852" lon="2.12046">
        <ele>224</ele>
        <time>2025-10-05T14:37:08.000Z</time>
      </trkpt>
      <trkpt lat="43.78848" lon="2.1205">
        <ele>225</ele>
        <time>2025-10-05T14:37:13.000Z</time>
      </trkpt>
      <trkpt lat="43.78842" lon="2.12056">
        <ele>226</ele>
        <time>2025-10-05T14:37:18.000Z</time>
      </trkpt>
      <trkpt lat="43.78838" lon="2.1206">
        <ele>225</ele>
        <time>2025-10-05T14:37:23.000Z</time>
      </trkpt>
      <trkpt lat="43.78835" lon="2.12064">
        <ele>224</ele>
        <time>2025-10-05T14:37:28.000Z</time>
      </trkpt>
      <trkpt lat="43.78831" lon="2.12068">
        <ele>223</ele>
        <time>2025-10-05T14:37:33.000Z</time>
      </trkpt>
      <trkpt lat="43.78826" lon="2.12071">
        <ele>222</ele>
        <time>2025-10-05T14:37:38.000Z</time>
      </trkpt>
      <trkpt lat="43.78822" lon="2.12076">
        <ele>224</ele>
        <time>2025-10-05T14:37:43.000Z</time>
      </trkpt>
      <trkpt lat="43.7882" lon="2.12079">
        <ele>225</ele>
        <time>2025-10-05T14:37:48.000Z</time>
      </trkpt>
      <trkpt lat="43.7882" lon="2.12079">
        <ele>225</ele>
        <time>2025-10-05T14:37:53.000Z</time>
      </trkpt>
      <trkpt lat="43.7882" lon="2.12079">
        <ele>225</ele>
        <time>2025-10-05T14:37:58.000Z</time>
      </trkpt>
      <trkpt lat="43.7882" lon="2.12079">
        <ele>225</ele>
        <time>2025-10-05T14:38:03.000Z</time>
      </trkpt>
      <trkpt lat="43.7882" lon="2.12079">
        <ele>225</ele>
        <time>2025-10-05T14:38:08.000Z</time>
      </trkpt>
      <trkpt lat="43.7882" lon="2.12079">
        <ele>225</ele>
        <time>2025-10-05T14:38:13.000Z</time>
      </trkpt>
      <trkpt lat="43.7882" lon="2.12079">
        <ele>225</ele>
        <time>2025-10-05T14:38:18.000Z</time>
      </trkpt>
      <trkpt lat="43.78817" lon="2.1208">
        <ele>224</ele>
        <time>2025-10-05T14:38:23.000Z</time>
      </trkpt>
      <trkpt lat="43.78813" lon="2.12079">
        <ele>224</ele>
        <time>2025-10-05T14:38:28.000Z</time>
      </trkpt>
      <trkpt lat="43.78811" lon="2.12073">
        <ele>224</ele>
        <time>2025-10-05T14:38:33.000Z</time>
      </trkpt>
      <trkpt lat="43.78808" lon="2.12066">
        <ele>224</ele>
        <time>2025-10-05T14:38:38.000Z</time>
      </trkpt>
      <trkpt lat="43.78805" lon="2.12059">
        <ele>225</ele>
        <time>2025-10-05T14:38:43.000Z</time>
      </trkpt>
      <trkpt lat="43.78801" lon="2.12052">
        <ele>225</ele>
        <time>2025-10-05T14:38:48.000Z</time>
      </trkpt>
      <trkpt lat="43.78798" lon="2.12045">
        <ele>225</ele>
        <time>2025-10-05T14:38:53.000Z</time>
      </trkpt>
      <trkpt lat="43.78794" lon="2.12039">
        <ele>225</ele>
        <time>2025-10-05T14:38:58.000Z</time>
      </trkpt>
      <trkpt lat="43.78791" lon="2.12033">
        <ele>226</ele>
        <time>2025-10-05T14:39:03.000Z</time>
      </trkpt>
      <trkpt lat="43.78788" lon="2.12025">
        <ele>226</ele>
        <time>2025-10-05T14:39:08.000Z</time>
      </trkpt>
      <trkpt lat="43.78787" lon="2.12021">
        <ele>224</ele>
        <time>2025-10-05T14:39:13.000Z</time>
      </trkpt>
      <trkpt lat="43.78782" lon="2.12015">
        <ele>223</ele>
        <time>2025-10-05T14:39:18.000Z</time>
      </trkpt>
      <trkpt lat="43.78778" lon="2.12009">
        <ele>224</ele>
        <time>2025-10-05T14:39:23.000Z</time>
      </trkpt>
      <trkpt lat="43.78773" lon="2.12001">
        <ele>225</ele>
        <time>2025-10-05T14:39:28.000Z</time>
      </trkpt>
      <trkpt lat="43.7877" lon="2.11995">
        <ele>225</ele>
        <time>2025-10-05T14:39:33.000Z</time>
      </trkpt>
      <trkpt lat="43.78766" lon="2.11989">
        <ele>223</ele>
        <time>2025-10-05T14:39:38.000Z</time>
      </trkpt>
      <trkpt lat="43.78762" lon="2.11982">
        <ele>224</ele>
        <time>2025-10-05T14:39:43.000Z</time>
      </trkpt>
      <trkpt lat="43.78759" lon="2.11976">
        <ele>225</ele>
        <time>2025-10-05T14:39:48.000Z</time>
      </trkpt>
      <trkpt lat="43.78755" lon="2.11969">
        <ele>225</ele>
        <time>2025-10-05T14:39:53.000Z</time>
      </trkpt>
      <trkpt lat="43.7875" lon="2.11963">
        <ele>227</ele>
        <time>2025-10-05T14:39:58.000Z</time>
      </trkpt>
      <trkpt lat="43.78747" lon="2.11957">
        <ele>226</ele>
        <time>2025-10-05T14:40:03.000Z</time>
      </trkpt>
      <trkpt lat="43.78742" lon="2.1195">
        <ele>226</ele>
        <time>2025-10-05T14:40:08.000Z</time>
      </trkpt>
      <trkpt lat="43.78738" lon="2.11944">
        <ele>225</ele>
        <time>2025-10-05T14:40:13.000Z</time>
      </trkpt>
      <trkpt lat="43.78732" lon="2.11939">
        <ele>225</ele>
        <time>2025-10-05T14:40:18.000Z</time>
      </trkpt>
      <trkpt lat="43.78728" lon="2.11934">
        <ele>225</ele>
        <time>2025-10-05T14:40:23.000Z</time>
      </trkpt>
      <trkpt lat="43.78724" lon="2.11928">
        <ele>225</ele>
        <time>2025-10-05T14:40:28.000Z</time>
      </trkpt>
      <trkpt lat="43.78719" lon="2.11922">
        <ele>224</ele>
        <time>2025-10-05T14:40:33.000Z</time>
      </trkpt>
      <trkpt lat="43.78714" lon="2.11917">
        <ele>224</ele>
        <time>2025-10-05T14:40:38.000Z</time>
      </trkpt>
      <trkpt lat="43.78709" lon="2.11912">
        <ele>224</ele>
        <time>2025-10-05T14:40:43.000Z</time>
      </trkpt>
      <trkpt lat="43.78705" lon="2.11906">
        <ele>224</ele>
        <time>2025-10-05T14:40:48.000Z</time>
      </trkpt>
      <trkpt lat="43.78702" lon="2.119">
        <ele>225</ele>
        <time>2025-10-05T14:40:53.000Z</time>
      </trkpt>
      <trkpt lat="43.78698" lon="2.11894">
        <ele>225</ele>
        <time>2025-10-05T14:40:58.000Z</time>
      </trkpt>
      <trkpt lat="43.78695" lon="2.11886">
        <ele>225</ele>
        <time>2025-10-05T14:41:03.000Z</time>
      </trkpt>
      <trkpt lat="43.78692" lon="2.11881">
        <ele>225</ele>
        <time>2025-10-05T14:41:08.000Z</time>
      </trkpt>
      <trkpt lat="43.78689" lon="2.11873">
        <ele>225</ele>
        <time>2025-10-05T14:41:13.000Z</time>
      </trkpt>
      <trkpt lat="43.78686" lon="2.11866">
        <ele>225</ele>
        <time>2025-10-05T14:41:18.000Z</time>
      </trkpt>
      <trkpt lat="43.78684" lon="2.11859">
        <ele>224</ele>
        <time>2025-10-05T14:41:23.000Z</time>
      </trkpt>
      <trkpt lat="43.78681" lon="2.11852">
        <ele>224</ele>
        <time>2025-10-05T14:41:28.000Z</time>
      </trkpt>
      <trkpt lat="43.78679" lon="2.11847">
        <ele>223</ele>
        <time>2025-10-05T14:41:33.000Z</time>
      </trkpt>
      <trkpt lat="43.78675" lon="2.11838">
        <ele>223</ele>
        <time>2025-10-05T14:41:38.000Z</time>
      </trkpt>
      <trkpt lat="43.78672" lon="2.11832">
        <ele>223</ele>
        <time>2025-10-05T14:41:43.000Z</time>
      </trkpt>
      <trkpt lat="43.78669" lon="2.11825">
        <ele>222</ele>
        <time>2025-10-05T14:41:48.000Z</time>
      </trkpt>
      <trkpt lat="43.78665" lon="2.11819">
        <ele>221</ele>
        <time>2025-10-05T14:41:53.000Z</time>
      </trkpt>
      <trkpt lat="43.78661" lon="2.11813">
        <ele>221</ele>
        <time>2025-10-05T14:41:58.000Z</time>
      </trkpt>
      <trkpt lat="43.78656" lon="2.11806">
        <ele>222</ele>
        <time>2025-10-05T14:42:03.000Z</time>
      </trkpt>
      <trkpt lat="43.7865" lon="2.11801">
        <ele>222</ele>
        <time>2025-10-05T14:42:08.000Z</time>
      </trkpt>
      <trkpt lat="43.78646" lon="2.11798">
        <ele>222</ele>
        <time>2025-10-05T14:42:13.000Z</time>
      </trkpt>
      <trkpt lat="43.78641" lon="2.11793">
        <ele>222</ele>
        <time>2025-10-05T14:42:18.000Z</time>
      </trkpt>
      <trkpt lat="43.78637" lon="2.11788">
        <ele>222</ele>
        <time>2025-10-05T14:42:23.000Z</time>
      </trkpt>
      <trkpt lat="43.78631" lon="2.11786">
        <ele>223</ele>
        <time>2025-10-05T14:42:28.000Z</time>
      </trkpt>
      <trkpt lat="43.78627" lon="2.11781">
        <ele>222</ele>
        <time>2025-10-05T14:42:33.000Z</time>
      </trkpt>
      <trkpt lat="43.78623" lon="2.11777">
        <ele>222</ele>
        <time>2025-10-05T14:42:38.000Z</time>
      </trkpt>
      <trkpt lat="43.78622" lon="2.11776">
        <ele>222</ele>
        <time>2025-10-05T14:42:43.000Z</time>
      </trkpt>
      <trkpt lat="43.78622" lon="2.11776">
        <ele>222</ele>
        <time>2025-10-05T14:42:48.000Z</time>
      </trkpt>
      <trkpt lat="43.7862" lon="2.11778">
        <ele>223</ele>
        <time>2025-10-05T14:42:53.000Z</time>
      </trkpt>
      <trkpt lat="43.78615" lon="2.11781">
        <ele>222</ele>
        <time>2025-10-05T14:42:58.000Z</time>
      </trkpt>
      <trkpt lat="43.78611" lon="2.11785">
        <ele>222</ele>
        <time>2025-10-05T14:43:03.000Z</time>
      </trkpt>
      <trkpt lat="43.78606" lon="2.1179">
        <ele>222</ele>
        <time>2025-10-05T14:43:08.000Z</time>
      </trkpt>
      <trkpt lat="43.78602" lon="2.11796">
        <ele>222</ele>
        <time>2025-10-05T14:43:13.000Z</time>
      </trkpt>
      <trkpt lat="43.78597" lon="2.11801">
        <ele>223</ele>
        <time>2025-10-05T14:43:18.000Z</time>
      </trkpt>
      <trkpt lat="43.78593" lon="2.11806">
        <ele>223</ele>
        <time>2025-10-05T14:43:23.000Z</time>
      </trkpt>
      <trkpt lat="43.78589" lon="2.1181">
        <ele>223</ele>
        <time>2025-10-05T14:43:28.000Z</time>
      </trkpt>
      <trkpt lat="43.78584" lon="2.11813">
        <ele>222</ele>
        <time>2025-10-05T14:43:33.000Z</time>
      </trkpt>
      <trkpt lat="43.7858" lon="2.11816">
        <ele>220</ele>
        <time>2025-10-05T14:43:38.000Z</time>
      </trkpt>
      <trkpt lat="43.78574" lon="2.11821">
        <ele>219</ele>
        <time>2025-10-05T14:43:43.000Z</time>
      </trkpt>
      <trkpt lat="43.7857" lon="2.11825">
        <ele>218</ele>
        <time>2025-10-05T14:43:48.000Z</time>
      </trkpt>
      <trkpt lat="43.78566" lon="2.11829">
        <ele>218</ele>
        <time>2025-10-05T14:43:53.000Z</time>
      </trkpt>
      <trkpt lat="43.78563" lon="2.11832">
        <ele>219</ele>
        <time>2025-10-05T14:43:58.000Z</time>
      </trkpt>
      <trkpt lat="43.78562" lon="2.11832">
        <ele>219</ele>
        <time>2025-10-05T14:44:03.000Z</time>
      </trkpt>
      <trkpt lat="43.78562" lon="2.11832">
        <ele>219</ele>
        <time>2025-10-05T14:44:08.000Z</time>
      </trkpt>
      <trkpt lat="43.7856" lon="2.11835">
        <ele>220</ele>
        <time>2025-10-05T14:44:13.000Z</time>
      </trkpt>
      <trkpt lat="43.78555" lon="2.11837">
        <ele>219</ele>
        <time>2025-10-05T14:44:18.000Z</time>
      </trkpt>
      <trkpt lat="43.78549" lon="2.11839">
        <ele>220</ele>
        <time>2025-10-05T14:44:23.000Z</time>
      </trkpt>
      <trkpt lat="43.78545" lon="2.11842">
        <ele>220</ele>
        <time>2025-10-05T14:44:28.000Z</time>
      </trkpt>
      <trkpt lat="43.78541" lon="2.11845">
        <ele>218</ele>
        <time>2025-10-05T14:44:33.000Z</time>
      </trkpt>
      <trkpt lat="43.78536" lon="2.11849">
        <ele>218</ele>
        <time>2025-10-05T14:44:38.000Z</time>
      </trkpt>
      <trkpt lat="43.7853" lon="2.11852">
        <ele>218</ele>
        <time>2025-10-05T14:44:43.000Z</time>
      </trkpt>
      <trkpt lat="43.78524" lon="2.11854">
        <ele>219</ele>
        <time>2025-10-05T14:44:48.000Z</time>
      </trkpt>
      <trkpt lat="43.78519" lon="2.11858">
        <ele>219</ele>
        <time>2025-10-05T14:44:53.000Z</time>
      </trkpt>
      <trkpt lat="43.78514" lon="2.11861">
        <ele>220</ele>
        <time>2025-10-05T14:44:58.000Z</time>
      </trkpt>
      <trkpt lat="43.7851" lon="2.11866">
        <ele>221</ele>
        <time>2025-10-05T14:45:03.000Z</time>
      </trkpt>
      <trkpt lat="43.78505" lon="2.1187">
        <ele>221</ele>
        <time>2025-10-05T14:45:08.000Z</time>
      </trkpt>
      <trkpt lat="43.78501" lon="2.11875">
        <ele>221</ele>
        <time>2025-10-05T14:45:13.000Z</time>
      </trkpt>
      <trkpt lat="43.78496" lon="2.1188">
        <ele>221</ele>
        <time>2025-10-05T14:45:18.000Z</time>
      </trkpt>
      <trkpt lat="43.78492" lon="2.11886">
        <ele>220</ele>
        <time>2025-10-05T14:45:23.000Z</time>
      </trkpt>
      <trkpt lat="43.78488" lon="2.11891">
        <ele>220</ele>
        <time>2025-10-05T14:45:28.000Z</time>
      </trkpt>
      <trkpt lat="43.78485" lon="2.11894">
        <ele>221</ele>
        <time>2025-10-05T14:45:33.000Z</time>
      </trkpt>
      <trkpt lat="43.78483" lon="2.11898">
        <ele>221</ele>
        <time>2025-10-05T14:45:38.000Z</time>
      </trkpt>
      <trkpt lat="43.78479" lon="2.11903">
        <ele>221</ele>
        <time>2025-10-05T14:45:43.000Z</time>
      </trkpt>
      <trkpt lat="43.78476" lon="2.1191">
        <ele>221</ele>
        <time>2025-10-05T14:45:48.000Z</time>
      </trkpt>
      <trkpt lat="43.78472" lon="2.11916">
        <ele>220</ele>
        <time>2025-10-05T14:45:53.000Z</time>
      </trkpt>
      <trkpt lat="43.7847" lon="2.11921">
        <ele>220</ele>
        <time>2025-10-05T14:45:58.000Z</time>
      </trkpt>
      <trkpt lat="43.78465" lon="2.11928">
        <ele>220</ele>
        <time>2025-10-05T14:46:03.000Z</time>
      </trkpt>
      <trkpt lat="43.78462" lon="2.11935">
        <ele>220</ele>
        <time>2025-10-05T14:46:08.000Z</time>
      </trkpt>
      <trkpt lat="43.78458" lon="2.11941">
        <ele>220</ele>
        <time>2025-10-05T14:46:13.000Z</time>
      </trkpt>
      <trkpt lat="43.78455" lon="2.11948">
        <ele>221</ele>
        <time>2025-10-05T14:46:18.000Z</time>
      </trkpt>
      <trkpt lat="43.78452" lon="2.11955">
        <ele>220</ele>
        <time>2025-10-05T14:46:23.000Z</time>
      </trkpt>
      <trkpt lat="43.78447" lon="2.1196">
        <ele>218</ele>
        <time>2025-10-05T14:46:28.000Z</time>
      </trkpt>
      <trkpt lat="43.78444" lon="2.11965">
        <ele>218</ele>
        <time>2025-10-05T14:46:33.000Z</time>
      </trkpt>
      <trkpt lat="43.78441" lon="2.11973">
        <ele>220</ele>
        <time>2025-10-05T14:46:38.000Z</time>
      </trkpt>
      <trkpt lat="43.78439" lon="2.11978">
        <ele>221</ele>
        <time>2025-10-05T14:46:43.000Z</time>
      </trkpt>
      <trkpt lat="43.78436" lon="2.11984">
        <ele>221</ele>
        <time>2025-10-05T14:46:48.000Z</time>
      </trkpt>
      <trkpt lat="43.78433" lon="2.11991">
        <ele>221</ele>
        <time>2025-10-05T14:46:53.000Z</time>
      </trkpt>
      <trkpt lat="43.78431" lon="2.11993">
        <ele>221</ele>
        <time>2025-10-05T14:46:58.000Z</time>
      </trkpt>
      <trkpt lat="43.78431" lon="2.11993">
        <ele>221</ele>
        <time>2025-10-05T14:47:03.000Z</time>
      </trkpt>
      <trkpt lat="43.78429" lon="2.11995">
        <ele>222</ele>
        <time>2025-10-05T14:47:08.000Z</time>
      </trkpt>
      <trkpt lat="43.78429" lon="2.11996">
        <ele>222</ele>
        <time>2025-10-05T14:47:13.000Z</time>
      </trkpt>
      <trkpt lat="43.78425" lon="2.11999">
        <ele>222</ele>
        <time>2025-10-05T14:47:18.000Z</time>
      </trkpt>
      <trkpt lat="43.78422" lon="2.12005">
        <ele>221</ele>
        <time>2025-10-05T14:47:23.000Z</time>
      </trkpt>
      <trkpt lat="43.78421" lon="2.12007">
        <ele>221</ele>
        <time>2025-10-05T14:47:28.000Z</time>
      </trkpt>
      <trkpt lat="43.7842" lon="2.1201">
        <ele>219</ele>
        <time>2025-10-05T14:47:33.000Z</time>
      </trkpt>
      <trkpt lat="43.78417" lon="2.12016">
        <ele>221</ele>
        <time>2025-10-05T14:47:38.000Z</time>
      </trkpt>
      <trkpt lat="43.78414" lon="2.12022">
        <ele>221</ele>
        <time>2025-10-05T14:47:43.000Z</time>
      </trkpt>
      <trkpt lat="43.78411" lon="2.12027">
        <ele>222</ele>
        <time>2025-10-05T14:47:48.000Z</time>
      </trkpt>
      <trkpt lat="43.78407" lon="2.12032">
        <ele>223</ele>
        <time>2025-10-05T14:47:53.000Z</time>
      </trkpt>
      <trkpt lat="43.78404" lon="2.12039">
        <ele>224</ele>
        <time>2025-10-05T14:47:58.000Z</time>
      </trkpt>
      <trkpt lat="43.784" lon="2.12045">
        <ele>223</ele>
        <time>2025-10-05T14:48:03.000Z</time>
      </trkpt>
      <trkpt lat="43.78397" lon="2.12051">
        <ele>223</ele>
        <time>2025-10-05T14:48:08.000Z</time>
      </trkpt>
      <trkpt lat="43.78394" lon="2.12058">
        <ele>222</ele>
        <time>2025-10-05T14:48:13.000Z</time>
      </trkpt>
      <trkpt lat="43.7839" lon="2.12063">
        <ele>221</ele>
        <time>2025-10-05T14:48:18.000Z</time>
      </trkpt>
      <trkpt lat="43.78386" lon="2.12069">
        <ele>220</ele>
        <time>2025-10-05T14:48:23.000Z</time>
      </trkpt>
      <trkpt lat="43.78382" lon="2.12075">
        <ele>220</ele>
        <time>2025-10-05T14:48:28.000Z</time>
      </trkpt>
      <trkpt lat="43.78379" lon="2.12079">
        <ele>221</ele>
        <time>2025-10-05T14:48:33.000Z</time>
      </trkpt>
      <trkpt lat="43.78375" lon="2.12085">
        <ele>220</ele>
        <time>2025-10-05T14:48:38.000Z</time>
      </trkpt>
      <trkpt lat="43.78371" lon="2.1209">
        <ele>220</ele>
        <time>2025-10-05T14:48:43.000Z</time>
      </trkpt>
      <trkpt lat="43.78364" lon="2.12094">
        <ele>221</ele>
        <time>2025-10-05T14:48:48.000Z</time>
      </trkpt>
      <trkpt lat="43.78359" lon="2.12091">
        <ele>220</ele>
        <time>2025-10-05T14:48:53.000Z</time>
      </trkpt>
      <trkpt lat="43.78356" lon="2.12084">
        <ele>221</ele>
        <time>2025-10-05T14:48:58.000Z</time>
      </trkpt>
      <trkpt lat="43.78354" lon="2.12076">
        <ele>220</ele>
        <time>2025-10-05T14:49:03.000Z</time>
      </trkpt>
      <trkpt lat="43.78352" lon="2.12068">
        <ele>222</ele>
        <time>2025-10-05T14:49:08.000Z</time>
      </trkpt>
      <trkpt lat="43.78351" lon="2.12061">
        <ele>220</ele>
        <time>2025-10-05T14:49:13.000Z</time>
      </trkpt>
      <trkpt lat="43.78348" lon="2.12053">
        <ele>220</ele>
        <time>2025-10-05T14:49:18.000Z</time>
      </trkpt>
      <trkpt lat="43.78346" lon="2.12047">
        <ele>220</ele>
        <time>2025-10-05T14:49:23.000Z</time>
      </trkpt>
      <trkpt lat="43.78345" lon="2.1204">
        <ele>219</ele>
        <time>2025-10-05T14:49:28.000Z</time>
      </trkpt>
      <trkpt lat="43.78343" lon="2.12032">
        <ele>218</ele>
        <time>2025-10-05T14:49:33.000Z</time>
      </trkpt>
      <trkpt lat="43.78341" lon="2.12026">
        <ele>220</ele>
        <time>2025-10-05T14:49:38.000Z</time>
      </trkpt>
      <trkpt lat="43.78337" lon="2.12019">
        <ele>221</ele>
        <time>2025-10-05T14:49:43.000Z</time>
      </trkpt>
      <trkpt lat="43.78334" lon="2.12014">
        <ele>222</ele>
        <time>2025-10-05T14:49:48.000Z</time>
      </trkpt>
      <trkpt lat="43.78335" lon="2.12012">
        <ele>222</ele>
        <time>2025-10-05T14:49:53.000Z</time>
      </trkpt>
      <trkpt lat="43.78335" lon="2.12012">
        <ele>222</ele>
        <time>2025-10-05T14:49:58.000Z</time>
      </trkpt>
      <trkpt lat="43.78335" lon="2.12012">
        <ele>222</ele>
        <time>2025-10-05T14:50:03.000Z</time>
      </trkpt>
      <trkpt lat="43.78333" lon="2.12013">
        <ele>222</ele>
        <time>2025-10-05T14:50:08.000Z</time>
      </trkpt>
      <trkpt lat="43.78328" lon="2.12015">
        <ele>221</ele>
        <time>2025-10-05T14:50:13.000Z</time>
      </trkpt>
      <trkpt lat="43.78328" lon="2.12015">
        <ele>221</ele>
        <time>2025-10-05T14:50:18.000Z</time>
      </trkpt>
      <trkpt lat="43.78328" lon="2.12015">
        <ele>221</ele>
        <time>2025-10-05T14:50:23.000Z</time>
      </trkpt>
      <trkpt lat="43.78329" lon="2.12017">
        <ele>220</ele>
        <time>2025-10-05T14:50:28.000Z</time>
      </trkpt>
      <trkpt lat="43.7833" lon="2.1202">
        <ele>222</ele>
        <time>2025-10-05T14:50:33.000Z</time>
      </trkpt>
      <trkpt lat="43.78327" lon="2.12017">
        <ele>222</ele>
        <time>2025-10-05T14:50:38.000Z</time>
      </trkpt>
      <trkpt lat="43.78322" lon="2.12017">
        <ele>221</ele>
        <time>2025-10-05T14:50:43.000Z</time>
      </trkpt>
      <trkpt lat="43.78318" lon="2.12014">
        <ele>222</ele>
        <time>2025-10-05T14:50:48.000Z</time>
      </trkpt>
      <trkpt lat="43.78313" lon="2.12013">
        <ele>223</ele>
        <time>2025-10-05T14:50:53.000Z</time>
      </trkpt>
      <trkpt lat="43.78307" lon="2.12014">
        <ele>222</ele>
        <time>2025-10-05T14:50:58.000Z</time>
      </trkpt>
      <trkpt lat="43.78303" lon="2.12015">
        <ele>223</ele>
        <time>2025-10-05T14:51:03.000Z</time>
      </trkpt>
      <trkpt lat="43.78297" lon="2.1201">
        <ele>224</ele>
        <time>2025-10-05T14:51:08.000Z</time>
      </trkpt>
      <trkpt lat="43.78293" lon="2.12006">
        <ele>223</ele>
        <time>2025-10-05T14:51:13.000Z</time>
      </trkpt>
      <trkpt lat="43.78292" lon="2.12007">
        <ele>223</ele>
        <time>2025-10-05T14:51:18.000Z</time>
      </trkpt>
      <trkpt lat="43.78292" lon="2.12007">
        <ele>223</ele>
        <time>2025-10-05T14:51:23.000Z</time>
      </trkpt>
      <trkpt lat="43.78292" lon="2.12007">
        <ele>223</ele>
        <time>2025-10-05T14:51:28.000Z</time>
      </trkpt>
      <trkpt lat="43.78292" lon="2.12007">
        <ele>224</ele>
        <time>2025-10-05T14:51:33.000Z</time>
      </trkpt>
      <trkpt lat="43.78293" lon="2.12007">
        <ele>224</ele>
        <time>2025-10-05T14:51:38.000Z</time>
      </trkpt>
      <trkpt lat="43.78293" lon="2.12007">
        <ele>224</ele>
        <time>2025-10-05T14:51:43.000Z</time>
      </trkpt>
    </trkseg>
  </trk>
</gpx>